[[{"header":{"parameterUnit":"m.s-1","parameterCategory":1,"la1":31.0,"la2":29.5877,"lo1":-88.7671,"lo2":-86.6584,"dy":0.0162,"dx":0.0185,"nx":115,"ny":88,"refTime":"2023-03-26T18:00:00:Z","depth":0,"parameterNumber":2,"parameterNumberName":"U-component_of_WINDS"},"data":[0.0,0.0,0.0,0.0,0.0,0.0,0.0,0.0,0.0,0.0,0.0,0.0,0.0,0.0,0.0,0.0,0.0,0.0,0.0,0.0,0.0,0.0,0.0,0.0,0.0,0.0,0.0,0.0,0.0,0.0,0.0,0.0,0.0,0.0,0.0,0.0,0.0,0.0,0.0,0.0,0.0,0.0,0.0,0.0,0.0,0.0,0.0,0.0,0.0,0.0,0.0,0.0,0.0,0.0,0.0,0.0,0.0,0.0,0.0,0.0,0.0,0.0,0.0,0.0,0.0,0.0,0.0,0.0,0.0,0.0,0.0,0.0,0.0,0.0,0.0,0.0,0.0,0.0,0.0,0.0,0.0,0.0,0.0,0.0,0.0,0.0,0.0,0.0,0.0,0.0,0.0,0.0,0.0,0.0,0.0,0.0,0.0,0.0,0.0,0.0,0.0,0.0,0.0,0.0,0.0,0.0,0.0,0.0,0.0,0.0,0.0,0.0,0.0,0.0,0.0,0.0,0.0,0.0,0.0,0.0,0.0,0.0,0.0,0.0,0.0,0.0,0.0,0.0,0.0,0.0,0.0,0.0,0.0,0.0,0.0,0.0,0.0,0.0,0.0,0.0,0.0,0.0,0.0,0.0,0.0,0.0,0.0,0.0,0.0,0.0,0.0,0.0,0.0,0.0,0.0,0.0,0.0,0.0,0.0,0.0,0.0,0.0,0.0,0.0,0.0,0.0,0.0,0.0,0.0,0.0,0.0,0.0,0.0,0.0,0.0,0.0,0.0,0.0,0.0,0.0,0.0,0.0,0.0,0.0,0.0,0.0,0.0,0.0,0.0,0.0,0.0,0.0,0.0,0.0,0.0,0.0,0.0,0.0,0.0,0.0,0.0,0.0,0.0,0.0,0.0,0.0,0.0,0.0,0.0,0.0,0.0,0.0,0.0,0.0,0.0,0.0,0.0,0.0,0.0,0.0,0.0,0.0,0.0,0.0,0.0,0.0,0.0,0.0,0.0,0.0,0.0,0.0,0.0,0.0,0.0,0.0,0.0,0.0,0.0,0.0,0.0,0.0,0.0,0.0,0.0,0.0,0.0,0.0,0.0,0.0,0.0,0.0,0.0,0.0,0.0,0.0,0.0,0.0,0.0,0.0,0.0,0.0,0.0,0.0,0.0,0.0,0.0,0.0,0.0,0.0,0.0,0.0,0.0,0.0,0.0,0.0,0.0,0.0,0.0,0.0,0.0,0.0,0.0,0.0,0.0,0.0,0.0,0.0,0.0,0.0,0.0,0.0,0.0,0.0,0.0,0.0,0.0,0.0,0.0,0.0,0.0,0.0,0.0,0.0,0.0,0.0,0.0,0.0,0.0,0.0,0.0,0.0,0.0,0.0,0.0,0.0,0.0,0.0,0.0,0.0,0.0,0.0,0.0,0.0,0.0,0.0,0.0,0.0,0.0,0.0,0.0,0.0,0.0,0.0,0.0,0.0,0.0,0.0,0.0,0.0,0.0,0.0,0.0,0.0,0.0,0.0,0.0,0.0,0.0,0.0,0.0,0.0,0.0,0.0,0.0,0.0,0.0,0.0,0.0,0.0,0.0,0.0,0.0,0.0,0.0,0.0,0.0,0.0,0.0,0.0,0.0,0.0,0.0,0.0,0.0,0.0,0.0,0.0,0.0,0.0,0.0,0.0,0.0,0.0,0.0,0.0,0.0,0.0,0.0,0.0,0.0,0.0,0.0,0.0,0.0,0.0,0.0,0.0,0.0,0.0,0.0,0.0,0.0,0.0,0.0,0.0,0.0,0.0,0.0,0.0,0.0,0.0,0.0,0.0,0.0,0.0,0.0,0.0,0.0,0.0,0.0,0.0,0.0,0.0,0.0,0.0,0.0,0.0,0.0,0.0,0.0,0.0,0.0,0.0,0.0,0.0,0.0,0.0,0.0,0.0,0.0,0.0,0.0,0.0,0.0,0.0,0.0,0.0,0.0,0.0,0.0,0.0,0.0,0.0,0.0,0.0,0.0,0.0,0.0,0.0,0.0,0.0,0.0,0.0,0.0,0.0,0.0,0.0,0.0,0.0,0.0,0.0,0.0,0.0,0.0,0.0,0.0,0.0,0.0,0.0,0.0,0.0,0.0,0.0,0.0,0.0,0.0,0.0,0.0,0.0,0.0,0.0,0.0,0.0,0.0,0.0,0.0,0.0,0.0,0.0,0.0,0.0,0.0,0.0,0.0,0.0,0.0,0.0,0.0,0.0,0.0,0.0,0.0,0.0,0.0,0.0,0.0,0.0,0.0,0.0,0.0,0.0,0.0,0.0,0.0,0.0,0.0,0.0,0.0,0.0,0.0,0.0,0.0,0.0,0.0,0.0,0.0,0.0,0.0,0.0,0.0,0.0,0.0,0.0,0.0,0.0,0.0,0.0,0.0,0.0,0.0,0.0,0.0,0.0,0.0,0.0,0.0,0.0,0.0,0.0,0.0,0.0,0.0,0.0,0.0,0.0,0.0,0.0,0.0,0.0,0.0,0.0,0.0,0.0,0.0,0.0,0.0,0.0,0.0,0.0,0.0,0.0,0.0,0.0,0.0,0.0,0.0,0.0,0.0,0.0,0.0,0.0,0.0,0.0,0.0,0.0,0.0,0.0,0.0,0.0,0.0,0.0,0.0,0.0,0.0,0.0,0.0,0.0,0.0,0.0,0.0,0.0,0.0,0.0,0.0,0.0,0.0,0.0,0.0,0.0,0.0,0.0,0.0,0.0,0.0,0.0,0.0,0.0,0.0,0.0,0.0,0.0,0.0,0.0,0.0,0.0,0.0,0.0,0.0,0.0,0.0,0.0,0.0,0.0,0.0,0.0,0.0,0.0,0.0,0.0,0.0,0.0,0.0,0.0,0.0,0.0,0.0,0.0,0.0,0.0,0.0,0.0,0.0,0.0,0.0,0.0,0.0,0.0,0.0,0.0,0.0,0.0,0.0,0.0,0.0,0.0,0.0,0.0,0.0,0.0,0.0,0.0,0.0,0.0,0.0,0.0,0.0,0.0,0.0,0.0,0.0,0.0,0.0,0.0,0.0,0.0,0.0,0.0,0.0,0.0,0.0,0.0,0.0,0.0,0.0,0.0,0.0,0.0,0.0,0.0,0.0,0.0,0.0,0.0,0.0,0.0,0.0,0.0,0.0,0.0,0.0,0.0,0.0,0.0,0.0,0.0,0.0,0.0,0.0,0.0,0.0,0.0,0.0,0.0,0.0,0.0,0.0,0.0,0.0,0.0,0.0,0.0,0.0,0.0,0.0,0.0,0.0,0.0,0.0,0.0,0.0,0.0,0.0,0.0,0.0,0.0,0.0,0.0,0.0,0.0,0.0,0.0,0.0,0.0,0.0,0.0,0.0,0.0,0.0,0.0,0.0,0.0,0.0,0.0,0.0,0.0,0.0,0.0,0.0,0.0,0.0,0.0,0.0,0.0,0.0,0.0,0.0,0.0,0.0,0.0,0.0,0.0,0.0,0.0,0.0,0.0,0.0,0.0,0.0,0.0,0.0,0.0,0.0,0.0,0.0,0.0,0.0,0.0,0.0,0.0,0.0,0.0,0.0,0.0,0.0,0.0,0.0,0.0,0.0,0.0,0.0,0.0,0.0,0.0,0.0,0.0,0.0,0.0,0.0,0.0,0.0,0.0,0.0,0.0,0.0,0.0,0.0,0.0,0.0,0.0,0.0,0.0,0.0,0.0,0.0,0.0,0.0,0.0,0.0,0.0,0.0,0.0,0.0,0.0,0.0,0.0,0.0,0.0,0.0,0.0,0.0,0.0,0.0,0.0,0.0,0.0,0.0,0.0,0.0,0.0,0.0,0.0,0.0,0.0,0.0,0.0,0.0,0.0,0.0,0.0,0.0,0.0,0.0,0.0,0.0,0.0,0.0,0.0,0.0,0.0,0.0,0.0,0.0,0.0,0.0,0.0,0.0,0.0,0.0,0.0,0.0,0.0,0.0,0.0,0.0,0.0,0.0,0.0,0.0,0.0,0.0,0.0,0.0,0.0,0.0,0.0,0.0,0.0,0.0,0.0,0.0,0.0,0.0,0.0,0.0,0.0,0.0,0.0,0.0,0.0,0.0,0.0,0.0,0.0,0.0,0.0,0.0,0.0,0.0,0.0,0.0,0.0,0.0,0.0,0.0,0.0,0.0,0.0,0.0,0.0,0.0,0.0,0.0,0.0,0.0,0.0,0.0,0.0,0.0,0.0,0.0,0.0,0.0,0.0,0.0,0.0,0.1649,0.0,0.0,0.0,0.0,0.0,0.0,0.0,0.0,0.0,0.0,0.0,0.0,0.0,0.0,0.0,0.0,0.0,0.0,0.0,0.0,0.0,0.0,0.0,0.0,0.0,0.0,0.0,0.0,0.0,0.0,0.0,0.0,0.0,0.0,0.0,0.0,0.0,0.0,0.0,0.0,0.0,0.0,0.0,0.0,0.0,0.0,0.0,0.0,0.0,0.0,0.0,0.0,0.0,0.0,0.0,0.0,0.0,0.0,0.0,0.0,0.0,0.0,0.0,0.0,0.0,0.0,0.0,0.0,0.0,0.0,0.0,0.0,0.0,0.0,0.0,0.0,0.0,0.0,0.0,0.0,0.0,0.0,0.0,0.0,0.0,0.0,0.0,0.0,0.0,0.0,0.0,0.0,0.0,0.0,0.0,0.0,0.0,0.0,0.0,0.0,0.0,0.0,0.0,0.0,0.0,0.0,0.0,0.0,0.0,0.0,0.1943,0.1845,0.1609,0.1315,0.0943,0.0,0.0,0.0,0.0,0.0,0.0,0.0,0.0,0.0,0.0,0.0,0.0,0.0,0.0,0.0,0.0,0.0,0.0,0.0,0.0,0.0,0.0,0.0,0.0,0.0,0.0,0.0,0.0,0.0,0.0,0.0,0.0,0.0,0.0,0.0,0.0,0.0,0.0,0.0,0.0,0.0,0.0,0.0,0.0,0.0,0.0,0.0,0.0,0.0,0.0,0.0,0.0,0.0,0.0,0.0,0.0,0.0,0.0,0.0,0.0,0.0,0.0,0.0,0.0,0.0,0.0,0.0,0.0,0.0,0.0,0.0,0.0,0.0,0.0,0.0,0.0,0.0,0.0,0.0,0.0,0.0,0.0,0.0,0.0,0.0,0.0,0.0,0.0,0.0,0.0,0.0,0.0,0.0,0.0,0.0,0.0,0.0,0.0,0.0,0.0,0.0,0.0,0.0,0.0,0.0,0.0,0.0,0.0,0.0,0.0,0.0,0.0,0.0962,0.0707,0.0471,0.0,0.0,0.0,0.0,0.0,0.0,0.0,0.0,0.0,0.0,0.0,0.0,0.0,0.0,0.0,0.0,0.0,0.0,0.0,0.0,0.0,0.0,0.0,0.0,0.0,0.0,0.0,0.0,0.0,0.0,0.0,0.0,0.0,0.0,0.0,0.0,0.0,0.0,0.0,0.0,0.0,0.0,0.0,0.0,0.0,0.0,0.0,0.0,0.0,0.0,0.0,0.0,0.0,0.0,0.0,0.0,0.0,0.0,0.0,0.0,0.0,0.0,0.0,0.0,0.0,0.0,0.0,0.0,0.0,0.0,0.0,0.0,0.0,0.0,0.0,0.0,0.0,0.0,0.0,0.0,0.0,0.0,0.0,0.0,0.0,0.0,0.0,0.0,0.0,0.0,0.0,0.0,0.0,0.0,0.0,0.0,0.0,0.0,0.0,0.0,0.0,0.0,0.0,0.0,0.0,0.0,0.0,0.0,0.0,0.0,0.0923,0.0943,0.0746,0.0,0.0098,0.0,0.0,0.0,0.0,0.0,0.0,0.0,0.0,0.0,0.0,0.0,0.0,0.0,0.0,0.0,0.0,0.0,0.0,0.0,0.0,0.0,0.0,0.0,0.0,0.0,0.0,0.0,0.0,0.0,0.0,0.0,0.0,0.0,0.0,0.0,0.0,0.0,0.0,0.0,0.0,0.0,0.0,0.0,0.0,0.0,0.0,0.0,0.0,0.0,0.0,0.0,0.0,0.0,0.0,0.0,0.0,0.0,0.0,0.0,0.0,0.0,0.0,0.0,0.0,0.0,0.0,0.0,0.0,0.0,0.0,0.0,0.0,0.0,0.0,0.0,0.0,0.0,0.0,0.0,0.0,0.0,0.0,0.0,0.0,0.0,0.0,0.0,0.0,0.0,0.0,0.0,0.0,0.0,0.0,0.0,0.0,0.0,0.0,0.0,0.0,0.0,0.0,0.0,0.0,0.0,0.0,0.0,0.0,0.0,0.0,0.0727,0.0727,0.0648,0.0452,0.0,0.0,0.0,0.0,0.0,0.0,0.0,0.0,0.0,0.0,0.0,0.0,0.0,0.0,0.0,0.0,0.0,0.0,0.0,0.0,0.0,0.0,0.0,0.0,0.0,0.0,0.0,0.0,0.0,0.0,0.0,0.0,0.0,0.0,0.0,0.0,0.0,0.0,0.0,0.0,0.0,0.0,0.0,0.0,0.0,0.0,0.0,0.0,0.0,0.0,0.0,0.0,0.0,0.0,0.0,0.0,0.0,0.0,0.0,0.0,0.0,0.0,0.0,0.0,0.0,0.0,0.0,0.0,0.0,0.0,0.0,0.0,0.0,0.0,0.0,0.0,0.0,0.0,0.0,0.0,0.0,0.0,0.0,0.0,0.0,0.0,0.0,0.0,0.0,0.0,0.0,0.0,0.0,0.0,0.0,0.0,0.0,0.0,0.0,0.0,0.0,0.0,0.0,0.0,0.0,0.0,0.0,0.0,0.0,0.0,0.0648,0.0786,0.0786,0.0786,0.0648,0.0314,0.0,0.0,0.0,0.0,0.0,0.0,0.0,0.0,0.0,0.0,0.0,0.0,0.0,0.0,0.0,0.0,0.0,0.0,0.0,0.0,0.0,0.0,0.0,0.0,0.0,0.0,0.0,0.0,0.0,0.0,0.0,0.0,0.0,0.0,0.0,0.0,0.0,0.0,0.0,0.0,0.0,0.0,0.0,0.0,0.0,0.0,0.0,0.0,0.0,0.0,0.0,0.0,0.0,0.0,0.0,0.0,0.0,0.0,0.0,0.0,0.0,0.0,0.0,0.0,0.0,0.0,0.0,0.0,0.0,0.0,0.0,0.0,0.0,0.0,0.0,0.0,0.0,0.0,0.0,0.0,0.0,0.0,0.0,0.0,0.0,0.0,0.0,0.0,0.0,0.0,0.0,0.0,0.0,0.0,0.0,0.0,0.0,0.0,0.0,0.0,0.0,0.0,0.0,0.0,0.0,0.0,0.0,0.0,0.0589,0.1022,0.1277,0.1277,0.1258,0.0982,0.0,0.0,0.0,0.0,0.0,0.0,0.0,0.0,0.0,0.0,0.0,0.0,0.0,0.0,0.0,0.0,0.0,0.0,0.0,0.0,0.0,0.0,0.0,0.0,0.0,0.0,0.0,0.0,0.0,0.0,0.0,0.0,0.0,0.0,0.0,0.0,0.0,0.0,0.0,0.0,0.0,0.0,0.0,0.0,0.0,0.0,0.0,0.0,0.0,0.0,0.0,0.0,0.0,0.0,0.0,0.0,0.0,0.0,0.0,0.0,0.0,0.0,0.0,0.0,0.0,0.0,0.0,0.0,0.0,0.0,0.0,0.0,0.0,0.0,0.0,0.0,0.0,0.0,0.0,0.0,0.0,0.0,0.0,0.0,0.0,0.0,0.0,0.0,0.0,0.0,0.0,0.0,0.0,0.0,0.0,0.0,0.0,0.0,0.0,0.0,0.0,0.0,0.0,0.0,0.0,0.0,0.0,0.0,0.0,0.1042,0.1474,0.1691,0.1671,0.1573,0.1317,0.0,0.0,0.0,0.0,0.0,0.0,0.0,0.0,0.0,0.0,0.0,0.0,0.0,0.0,0.0,0.0,0.0,0.0,0.0,0.0,0.0,0.0,0.0,0.0,0.0,0.0,0.0,0.0,0.0,0.0,0.0,0.0,0.0,0.0,0.0,0.0,0.0,0.0,0.0,0.0,0.0,0.0,0.0,0.0,0.0,0.0,0.0,0.0,0.0,0.0,0.0,0.0,0.0,0.0,0.0,0.0,0.0,0.0,0.0,0.0,0.0,0.0,0.0,0.0,0.0,0.0,0.0,0.0,0.0,0.0,0.0,0.0,0.0,0.0,0.0,0.0,0.0,0.0,0.0,0.0,0.0,0.0,0.0,0.0,0.0,0.0,0.0,0.0,0.0,0.0,0.0,0.0,0.0,0.0,0.0,0.0,0.0,0.0,0.0,0.0,0.0,0.0,0.0,0.0,0.0,0.0,0.0,0.0,0.0,0.1669,0.0,0.2199,0.218,0.2003,0.1748,0.0,0.0,0.0,0.0,0.0,0.0,0.0,0.0,0.0,0.0,0.0,0.0,0.0,0.0,0.0,0.0,0.0,0.0,0.0,0.0,0.0,0.0,0.0,0.0,0.0,0.0,0.0,0.0,0.0,0.0,0.0,0.0,0.0,0.0,0.0,0.0,0.0,0.0,0.0,0.0,0.0,0.0,0.0,0.0,0.0,0.0,0.0,0.0,0.0,0.0,0.0,0.0,0.0,0.0,0.0,0.0,0.0,0.0,0.0,0.0,0.0,0.0,0.0,0.0,0.0,0.0,0.0,0.0,0.0,0.0,0.0,0.0,0.0,0.0,0.0,0.0,0.0,0.0,0.0,0.0,0.0,0.0,0.0,0.0,0.0,0.0,0.0,0.0,0.0,0.0,0.0,0.0,0.0,0.0,0.0,0.0,0.0,0.0,0.0,0.0,0.0,0.0,0.0,0.0,0.0,0.0,0.0,0.0,0.1708,0.2472,0.2707,0.2806,0.2785,0.2589,0.2217,0.0,0.0,0.0,0.0,0.0,0.0,0.0,0.0,0.0,0.0,0.0,0.0,0.0,0.0,0.0,0.0,0.0,0.0,0.0,0.0,0.0,0.0,0.0,0.0,0.0,0.0,0.0,0.0,0.0,0.0,0.0,0.0,0.0,0.0,0.0,0.0,0.0,0.0,0.0,0.0,0.0,0.0,0.0,0.0,0.0,0.0,0.0,0.0,0.0,0.0,0.0,0.0,0.0,0.0,0.0,0.0,0.0,0.0,0.0,0.0,0.0,0.0,0.0,0.0,0.0,0.0,0.0,0.0,0.0,0.0,0.0,0.0,0.0,0.0,0.0,0.0,0.0,0.0,0.0,0.0,0.0,0.0,0.0,0.0,0.0,0.0,0.0,0.0,0.0,0.0,0.0,0.0,0.0,0.0,0.0,0.0,0.0,0.0,0.0,0.0,0.0,0.0,0.0,0.0,0.0,0.0,0.0,0.0,0.0,0.2898,0.3292,0.3391,0.3214,0.3017,0.2704,0.0,0.0,0.0,0.0,0.0,0.0,0.0,0.0,0.0,0.0,0.0,0.0,0.0,0.0,0.0,0.0,0.0,0.0,0.0,0.0,0.0,0.0,0.0,0.0,0.0,0.0,0.0,0.0,0.0,0.0,0.0,0.0,0.0,0.0,0.0,0.0,0.0,0.0,0.0,0.0,0.0,0.0,0.0,0.0,0.0,0.0,0.0,0.0,0.0,0.0,0.0,0.0,0.0,0.0,0.0,0.0,0.0,0.0,0.0,0.0,0.0,0.0,0.0,0.0,0.0,0.0,0.0,0.0,0.0,0.0,0.0,0.0,0.0,0.0,0.0,0.0,0.0,0.0,0.0,0.0,0.0,0.0,0.0,0.0,0.0,0.0,0.0,0.0,0.0,0.0,0.0,0.0,0.0,0.0,0.0,0.0,0.0,0.0,0.0,0.0,0.0,0.0,0.0,0.0,0.0,0.0,0.0,0.0,0.0,0.3817,0.4071,0.4168,0.4019,0.3727,0.3313,0.282,0.0,0.0,0.0,0.0,0.0,0.0,0.0,0.0,0.0,0.0,0.0,0.0,0.0,0.0,0.0,0.0,0.0,0.0,0.0,0.0,0.0,0.0,0.0,0.0,0.0,0.0,0.0,0.0,0.0,0.0,0.0,0.0,0.0,0.0,0.0,0.0,0.0,0.0,0.0,0.0,0.0,0.0,0.0,0.0,0.0,0.0,0.0,0.0,0.0,0.0,0.0,0.0,0.0,0.0,0.0,0.0,0.0,0.0,0.0,0.0,0.0,0.0,0.0,0.0,0.0,0.0,0.0,0.0,0.0,0.0,0.0,0.0,0.0,0.0,0.0,0.0,0.0,0.0,0.0,0.0,0.0,0.0,0.0,0.0,0.0,0.0,0.0,0.0,0.0,0.0,0.0,0.0,0.0,0.0,0.0,0.0,0.0,0.0,0.0,0.0,0.0,0.0,0.0,0.0,0.0,0.0,0.0,0.0,0.5018,0.4998,0.5025,0.5095,0.4607,0.4035,0.0,0.0,0.0,0.0,0.0,0.0,0.0,0.0,0.0,0.0,0.0,0.0,0.0,0.0,0.0,0.0,0.0,0.0,0.0,0.0,0.0,0.0,0.0,0.0,0.0,0.0,0.0,0.0,0.0,0.0,0.0,0.0,0.0,0.0,0.0,0.0,0.0,0.0,0.0,0.0,0.0,0.0,0.0,0.0,0.0,0.0,0.0,0.0,0.0,0.0,0.0,0.0,0.0,0.0,0.0,0.0,0.0,0.0,0.0,0.0,0.0,0.0,0.0,0.0,0.0,0.0,0.0,0.0,0.0,0.0,0.0,0.0,0.0,0.0,0.0,0.0,0.0,0.0,0.0,0.0,0.0,0.0,0.0,0.0,0.0,0.0,0.0,0.0,0.0,0.0,0.0,0.0,0.0,0.0,0.0,0.0,0.0,0.0,0.0,0.0,0.0,0.0,0.0,0.0,0.0,0.0,0.0,0.0,0.0,0.5342,0.5787,0.5826,0.5401,0.5102,0.468,0.0,0.0,0.0,0.0,0.0,0.0,0.0,0.0,0.0,0.0,0.0,0.0,0.0,0.0,0.0,0.0,0.0,0.0,0.0,0.0,0.0,0.0,0.0,0.0,0.0,0.0,0.0,0.0,0.0,0.0,0.0,0.0,0.0,0.0,0.0,0.0,0.0,0.0,0.0,0.0,0.0,0.0,0.0,0.0,0.0,0.0,0.0,0.0,0.0,0.0,0.0,0.0,0.0,0.0,0.0,0.0,0.0,0.0,0.0,0.0,0.0,0.0,0.0,0.0,0.0,0.0,0.0,0.0,0.0,0.0,0.0,0.0,0.0,0.0,0.0,0.0,0.0,0.0,0.0,0.0,0.0,0.0,0.0,0.0,0.0,0.0,0.0,0.0,0.0,0.0,0.0,0.0,0.0,0.0,0.0,0.0,0.0,0.0,0.0,0.0,0.0,0.0,0.0,0.0,0.0,0.0,0.0,0.0,0.5074,0.5558,0.6239,0.641,0.6006,0.5664,0.519,0.0,0.0,0.0,0.0,0.0,0.0,0.0,0.0,0.0,0.0,0.0,0.0,0.0,0.0,0.0,0.0,0.0,0.0,0.0,0.0,0.0,0.0,0.0,0.0,0.0,0.0,0.0,0.0,0.0,0.0,0.0,0.0,0.0,0.0,0.0,0.0,0.0,0.0,0.0,0.0,0.0,0.0,0.0,0.0,0.0,0.0,0.0,0.0,0.0,0.0,0.0,0.0,0.0,0.0,0.0,0.0,0.0,0.0,0.0,0.0,0.0,0.0,0.0,0.0,0.0,0.0,0.0,0.0,0.0,0.0,0.0,0.0,0.0,0.0,0.0,0.0,0.0,0.0,0.0,0.0,0.0,0.0,0.0,0.0,0.0,0.0,0.0,0.0,0.0,0.0,0.0,0.0,0.0,0.0,0.0,0.0,0.0,0.0,0.0,0.0,0.0,0.0,0.0,0.0,0.0,0.0,0.0,0.0,0.5419,0.5643,0.6202,0.6517,0.6501,0.612,0.5597,0.0,0.0,0.0,0.0,0.0,0.0,0.0,0.0,0.0,0.0,0.0,0.0,0.0,0.0,0.0,0.0,0.0,0.0,0.0,0.0,0.0,0.0,0.0,0.0,0.0,0.0,0.0,0.0,0.0,0.0,0.0,0.0,0.0,0.0,0.0,0.0,0.0,0.0,0.0,0.0,0.0,0.0,0.0,0.0,0.0,0.0,0.0,0.0,0.0,0.0,0.0,0.0,0.0,0.0,0.0,0.0,0.0,0.0,0.0,0.0,0.0,0.0,0.0,0.0,0.0,0.0,0.0,0.0,0.0,0.0,0.0,0.0,0.0,0.0,0.0,0.0,0.0,0.0,0.0,0.0,0.0,0.0,0.0,0.0,0.0,0.0,0.0,0.0,0.0,0.0,0.0,0.0,0.0,0.0,0.0,0.0,0.0,0.0,0.0,0.0,0.0,0.0,0.0,0.0,0.0,0.0,0.0,0.0,0.4697,0.5776,0.4665,0.4462,0.5259,0.5695,0.5725,0.0,0.0,0.0,0.0,0.0,0.0,0.0,0.0,0.0,0.0,0.0,0.0,0.0,0.0,0.0,0.0,0.0,0.0,0.0,0.0,0.0,0.0,0.0,0.0,0.0,0.0,0.0,0.0,0.0,0.0,0.0,0.0,0.0,0.0,0.0,0.0,0.0,0.0,0.0,0.0,0.0,0.0,0.0,0.0,0.0,0.0,0.0,0.0,0.643,0.0,0.0,0.0,0.0,0.0,0.0,0.0,0.0,0.0,0.0,0.0,0.0,0.0,0.0,0.0,0.0,0.0,0.0,0.0,0.0,0.0,0.0,0.0,0.0,0.0,0.0,0.0,0.0,0.0,0.0,0.0,0.0,0.0,0.0,0.0,0.0,0.0,0.0,0.0,0.0,0.0,0.0,0.0,0.0,0.0,0.0,0.0,0.0,0.0,0.0,0.0,0.0,0.0,0.0,0.0,0.0,0.0,0.0,0.0,0.516,0.5847,0.5256,0.517,0.5743,0.6006,0.5717,0.0,0.0,0.0,0.0,0.0,0.0,0.0,0.0,0.0,0.0,0.0,0.0,0.0,0.0,0.0,0.0,0.0,0.0,0.0,0.0,0.0,0.0,0.0,0.0,0.0,0.0,0.0,0.0,0.0,0.0,0.0,0.0,0.0,0.0,0.0,0.0,0.0,0.0,0.0,0.0,0.0,0.0,0.0,0.0,0.0,0.0,0.0,0.0,0.0,0.0,0.0,0.0,0.0,0.0,0.0,0.0,0.0,0.0,0.0,0.0,0.0,0.0,0.0,0.0,0.0,0.0,0.0,0.0,0.0,0.0,0.0,0.0,0.0,0.0,0.0,0.0,0.0,0.0,0.0,0.0,0.0,0.0,0.0,0.0,0.0,0.0,0.0,0.0,0.0,0.0,0.0,0.0,0.0,0.0,0.0,0.0,0.0,0.0,0.0,0.0,0.0,0.0,0.0,0.0,0.0,0.0,0.0,0.551,0.5795,0.5983,0.6149,0.6291,0.6444,0.6145,0.5363,0.4097,0.0,0.0,0.0,0.0,0.0,0.0,0.0,0.0,0.0,0.0,0.0,0.0,0.0,0.0,0.0,0.0,0.0,0.0,0.0,0.0,0.0,0.0,0.0,0.0,0.0,0.0,0.0,0.0,0.0,0.0,0.0,0.0,0.0,0.0,0.0,0.0,0.0,0.0,0.635,0.6317,0.0,0.0,0.0,0.0,0.0,0.0,0.0,0.0,0.6389,0.0,0.0,0.0,0.0,0.0,0.0,0.0,0.0,0.0,0.0,0.0,0.0,0.0,0.0,0.0,0.0,0.0,0.0,0.0,0.0,0.0,0.0,0.0,0.0,0.0,0.0,0.0,0.0,0.0,0.0,0.0,0.0,0.0,0.0,0.0,0.0,0.0,0.0,0.0,0.0,0.0,0.0,0.0,0.0,0.0,0.0,0.0,0.0,0.0,0.0,0.0,0.0,0.0,0.0,0.0,0.0,0.5501,0.5043,0.5331,0.6338,0.4901,0.4496,0.5293,0.4513,0.4114,0.4271,0.0,0.0,0.0,0.0,0.0,0.0,0.0,0.0,0.0,0.0,0.0,0.0,0.0,0.0,0.0,0.0,0.0,0.0,0.0,0.0,0.0,0.0,0.0,0.0,0.0,0.0,0.0,0.0,0.0,0.0,0.0,0.0,0.0,0.0,0.0,0.0,0.0,0.0,0.0,0.6355,0.6351,0.0,0.0,0.0,0.0,0.0,0.0,0.0,0.0,0.6464,0.0,0.0,0.0,0.0,0.0,0.0,0.0,0.0,0.0,0.0,0.0,0.0,0.0,0.0,0.0,0.0,0.0,0.0,0.0,0.0,0.0,0.0,0.0,0.0,0.0,0.0,0.0,0.0,0.0,0.0,0.0,0.0,0.0,0.0,0.0,0.0,0.0,0.0,0.0,0.0,0.0,0.0,0.0,0.0,0.0,0.0,0.0,0.0,0.0,0.0,0.0,0.0,0.0,0.0,0.0,0.5738,0.5653,0.5901,0.6569,0.5764,0.554,0.6018,0.5624,0.5358,0.0,0.0,0.0,0.0,0.0,0.0,0.0,0.0,0.0,0.0,0.0,0.0,0.0,0.0,0.0,0.0,0.0,0.0,0.0,0.0,0.0,0.0,0.0,0.0,0.0,0.0,0.0,0.0,0.0,0.0,0.0,0.0,0.0,0.0,0.0,0.0,0.0,0.0,0.0,0.0,0.6372,0.6331,0.6494,0.0,0.0,0.0,0.0,0.0,0.0,0.6644,0.661,0.0,0.0,0.0,0.0,0.0,0.0,0.0,0.0,0.0,0.0,0.0,0.0,0.0,0.0,0.0,0.0,0.0,0.0,0.0,0.0,0.0,0.0,0.0,0.0,0.0,0.0,0.0,0.0,0.0,0.0,0.0,0.0,0.0,0.0,0.0,0.0,0.0,0.0,0.0,0.0,0.0,0.0,0.0,0.0,0.0,0.0,0.0,0.0,0.0,0.0,0.0,0.0,0.0,0.0,0.0,0.6008,0.6413,0.6664,0.679,0.6948,0.7026,0.7024,0.7107,0.6851,0.0,0.0,0.0,0.0,0.0,0.0,0.0,0.0,0.0,0.0,0.0,0.0,0.0,0.0,0.0,0.0,0.0,0.0,0.0,0.0,0.0,0.0,0.0,0.0,0.0,0.0,0.0,0.0,0.0,0.0,0.0,0.0,0.0,0.0,0.0,0.0,0.0,0.0,0.0,0.0,0.0,0.6341,0.6512,0.6512,0.0,0.0,0.0,0.0,0.6869,0.6824,0.0,0.0,0.0,0.0,0.0,0.0,0.0,0.0,0.0,0.0,0.0,0.0,0.0,0.0,0.0,0.0,0.0,0.0,0.0,0.0,0.0,0.0,0.0,0.0,0.0,0.0,0.0,0.0,0.0,0.0,0.0,0.0,0.0,0.0,0.0,0.0,0.0,0.0,0.0,0.0,0.0,0.0,0.0,0.0,0.0,0.0,0.0,0.0,0.0,0.0,0.0,0.0,0.0,0.0,0.0,0.0,0.6341,0.68,0.7024,0.708,0.737,0.7455,0.7348,0.7359,0.7029,0.0,0.0,0.0,0.0,0.0,0.0,0.0,0.0,0.0,0.0,0.0,0.0,0.0,0.0,0.0,0.0,0.0,0.0,0.0,0.0,0.0,0.0,0.0,0.0,0.0,0.0,0.0,0.0,0.0,0.0,0.0,0.0,0.0,0.0,0.0,0.0,0.0,0.0,0.0,0.0,0.0,0.6399,0.6634,0.6559,0.6562,0.0,0.0,0.6884,0.6904,0.6894,0.0,0.0,0.0,0.0,0.0,0.0,0.0,0.0,0.0,0.0,0.0,0.0,0.0,0.0,0.0,0.0,0.0,0.0,0.0,0.0,0.0,0.0,0.0,0.0,0.0,0.0,0.0,0.0,0.0,0.0,0.0,0.0,0.0,0.0,0.0,0.0,0.0,0.0,0.0,0.0,0.0,0.0,0.0,0.0,0.0,0.0,0.0,0.0,0.0,0.0,0.0,0.0,0.0,0.0,0.0,0.6137,0.6501,0.6824,0.7018,0.7095,0.7246,0.7286,0.7241,0.7241,0.6988,0.0,0.0,0.0,0.0,0.0,0.0,0.0,0.0,0.0,0.0,0.0,0.0,0.0,0.0,0.0,0.0,0.0,0.0,0.0,0.0,0.0,0.0,0.0,0.0,0.0,0.0,0.0,0.0,0.0,0.0,0.0,0.0,0.0,0.0,0.0,0.0,0.0,0.0,0.0,0.0,0.0,0.0,0.6787,0.6752,0.0,0.0,0.0,0.706,0.7166,0.0,0.0,0.0,0.0,0.0,0.0,0.0,0.0,0.0,0.0,0.0,0.0,0.0,0.0,0.0,0.0,0.0,0.0,0.0,0.0,0.0,0.0,0.0,0.0,0.0,0.0,0.0,0.0,0.0,0.0,0.0,0.0,0.0,0.0,0.0,0.0,0.0,0.0,0.0,0.0,0.0,0.0,0.0,0.0,0.0,0.0,0.0,0.0,0.0,0.0,0.0,0.0,0.0,0.0,0.0,0.0,0.0,0.6714,0.6934,0.7066,0.7175,0.7215,0.7215,0.7178,0.7178,0.0,0.0,0.0,0.0,0.0,0.0,0.0,0.0,0.0,0.0,0.0,0.0,0.0,0.0,0.0,0.0,0.0,0.0,0.0,0.0,0.0,0.0,0.0,0.0,0.0,0.0,0.0,0.0,0.0,0.0,0.0,0.0,0.0,0.0,0.0,0.0,0.0,0.0,0.0,0.0,0.0,0.0,0.6641,0.6921,0.694,0.7022,0.0,0.0,0.7286,0.7458,0.7474,0.7387,0.0,0.0,0.0,0.0,0.0,0.0,0.0,0.0,0.0,0.0,0.0,0.0,0.0,0.0,0.0,0.0,0.0,0.0,0.0,0.0,0.0,0.0,0.0,0.0,0.0,0.0,0.0,0.0,0.0,0.0,0.0,0.0,0.0,0.0,0.0,0.0,0.0,0.0,0.0,0.0,0.0,0.0,0.0,0.0,0.0,0.0,0.0,0.0,0.0,0.0,0.0,0.0,0.0,0.0,0.0,0.706,0.7268,0.7362,0.7379,0.7495,0.7499,0.7386,0.7379,0.7192,0.0,0.0,0.0,0.0,0.0,0.0,0.0,0.0,0.0,0.0,0.0,0.0,0.0,0.0,0.0,0.0,0.0,0.0,0.0,0.0,0.0,0.0,0.0,0.0,0.0,0.0,0.0,0.0,0.0,0.0,0.0,0.0,0.0,0.0,0.0,0.0,0.0,0.0,0.0,0.0,0.0,0.679,0.7041,0.7082,0.7189,0.0,0.0,0.7617,0.7732,0.7668,0.758,0.757,0.0,0.0,0.0,0.0,0.0,0.0,0.0,0.0,0.0,0.0,0.0,0.0,0.0,0.0,0.0,0.0,0.0,0.0,0.0,0.0,0.0,0.0,0.0,0.0,0.0,0.0,0.0,0.0,0.0,0.0,0.0,0.0,0.0,0.0,0.0,0.0,0.0,0.0,0.0,0.0,0.0,0.0,0.0,0.0,0.0,0.0,0.0,0.0,0.0,0.0,0.0,0.0,0.0,0.6781,0.7095,0.7178,0.7275,0.7386,0.7339,0.731,0.7396,0.7282,0.7137,0.0,0.0,0.0,0.0,0.0,0.0,0.0,0.0,0.0,0.0,0.0,0.0,0.0,0.0,0.0,0.0,0.0,0.0,0.0,0.0,0.0,0.0,0.0,0.0,0.0,0.0,0.0,0.0,0.6964,0.7014,0.7014,0.0,0.0,0.0,0.0,0.0,0.0,0.0,0.0,0.0,0.0,0.6962,0.7347,0.7343,0.0,0.0,0.7658,0.7648,0.779,0.7743,0.7702,0.7614,0.7502,0.0,0.0,0.0,0.0,0.0,0.0,0.0,0.0,0.0,0.0,0.0,0.0,0.0,0.0,0.0,0.0,0.0,0.0,0.0,0.0,0.0,0.0,0.0,0.0,0.0,0.0,0.0,0.0,0.0,0.0,0.0,0.0,0.0,0.0,0.0,0.0,0.0,0.0,0.0,0.0,0.0,0.0,0.0,0.0,0.0,0.0,0.0,0.0,0.0,0.0,0.0,0.0,0.6899,0.7117,0.7117,0.7171,0.7299,0.7175,0.7171,0.7295,0.7175,0.7117,0.0,0.0,0.0,0.0,0.0,0.0,0.0,0.0,0.0,0.0,0.0,0.0,0.0,0.0,0.0,0.0,0.0,0.0,0.0,0.0,0.0,0.0,0.0,0.0,0.0,0.0,0.0,0.0,0.706,0.7117,0.7117,0.0,0.0,0.0,0.0,0.0,0.0,0.0,0.0,0.0,0.0,0.7235,0.7611,0.7573,0.759,0.782,0.7773,0.7743,0.7841,0.7858,0.7807,0.7685,0.0,0.0,0.0,0.0,0.0,0.0,0.0,0.0,0.0,0.0,0.0,0.0,0.0,0.0,0.0,0.0,0.0,0.0,0.0,0.0,0.0,0.0,0.0,0.0,0.0,0.0,0.0,0.0,0.0,0.0,0.0,0.0,0.0,0.0,0.0,0.0,0.0,0.0,0.0,0.0,0.0,0.0,0.0,0.0,0.0,0.0,0.0,0.0,0.0,0.0,0.0,0.0,0.0,0.6906,0.7121,0.7102,0.7105,0.7137,0.7102,0.7105,0.7112,0.7121,0.7095,0.7073,0.0,0.0,0.0,0.0,0.0,0.0,0.0,0.0,0.0,0.0,0.0,0.0,0.0,0.0,0.0,0.0,0.0,0.0,0.0,0.0,0.0,0.0,0.0,0.0,0.0,0.0,0.7124,0.7092,0.7117,0.0,0.0,0.0,0.0,0.0,0.0,0.0,0.0,0.0,0.0,0.7515,0.7638,0.7756,0.7776,0.7824,0.7961,0.8006,0.7978,0.8006,0.8006,0.7934,0.0,0.0,0.0,0.0,0.0,0.0,0.0,0.0,0.0,0.0,0.0,0.0,0.0,0.0,0.0,0.0,0.0,0.0,0.0,0.0,0.0,0.0,0.0,0.0,0.0,0.0,0.0,0.0,0.0,0.0,0.0,0.0,0.0,0.0,0.0,0.0,0.0,0.0,0.0,0.0,0.0,0.0189,0.0,0.0,0.0,0.0,0.0,0.0,0.0,0.0,0.0,0.0,0.0,0.0,0.7101,0.7285,0.7292,0.7387,0.7553,0.7472,0.7421,0.7421,0.7346,0.6793,0.5736,0.0,0.0,0.0,0.0,0.0,0.0,0.0,0.0,0.0,0.0,0.0,0.0,0.0,0.0,0.0,0.0,0.0,0.0,0.0,0.0,0.0,0.0,0.0,0.0,0.0,0.7175,0.0,0.0,0.0,0.0,0.0,0.0,0.0,0.0,0.0,0.0,0.0,0.7465,0.7539,0.757,0.7651,0.777,0.7814,0.7878,0.0,0.0,0.0,0.0,0.0,0.0,0.0,0.0,0.0,0.0,0.0,0.0,0.0,0.0,0.7631,0.7459,0.7448,0.7425,0.7425,0.0,0.0,0.0,0.0,0.0,0.0,0.0,0.0,0.0,0.0,0.0,0.0,0.0,0.0,0.0,0.0,0.0,0.0,0.0,0.0,0.0,0.0,0.0,0.0,0.0,0.0,0.0,0.0,0.0169,0.0553,0.0,0.1405,0.2162,0.0,0.0,0.0,0.0,0.0,0.0,0.0,0.0,0.7327,0.7444,0.7474,0.7543,0.7723,0.7648,0.7597,0.7597,0.7078,0.6056,0.4559,0.3612,0.3177,0.0,0.0,0.0,0.0,0.0,0.0,0.0,0.0,0.0,0.0,0.0,0.0,0.0,0.0,0.0,0.0,0.0,0.0,0.0,0.0,0.0,0.0,0.0,0.7222,0.0,0.0,0.0,0.0,0.0,0.0,0.0,0.0,0.0,0.757,0.7611,0.7712,0.7845,0.7834,0.7885,0.8024,0.0,0.0,0.0,0.0,0.0,0.0,0.0,0.816,0.8062,0.8048,0.8041,0.8045,0.8126,0.8169,0.8169,0.0,0.0,0.7807,0.7729,0.775,0.7753,0.7729,0.7797,0.7943,0.7974,0.8014,0.0,0.0,0.0,0.0,0.0,0.0,0.0,0.0,0.0,0.0,0.0,0.0,0.0,0.0,0.0,0.0,0.0,0.0,0.0,0.0,0.0,0.0,0.0,0.0098,0.0908,0.2401,0.2443,0.3342,0.4991,0.453,0.0,0.0,0.0,0.0,0.0,0.0,0.76,0.7607,0.7627,0.7607,0.7621,0.7621,0.7614,0.7584,0.6308,0.5001,0.3692,0.3137,0.2858,0.2826,0.3066,0.0,0.0,0.0,0.0,0.0,0.0,0.0,0.0,0.0,0.0,0.0,0.0,0.0,0.0,0.0,0.0,0.0,0.0,0.0,0.0,0.7426,0.0,0.0,0.0,0.0,0.0,0.0,0.0,0.0,0.0,0.0,0.7882,0.7848,0.7943,0.8257,0.0,0.0,0.0,0.0,0.8515,0.8496,0.8499,0.8522,0.8506,0.8503,0.8496,0.8492,0.0,0.0,0.8503,0.8532,0.8543,0.8509,0.8549,0.8418,0.8099,0.8039,0.8019,0.8015,0.8054,0.8126,0.8262,0.8352,0.8386,0.0,0.0,0.0,0.0,0.0,0.0,0.0,0.0,0.0,0.0,0.0,0.0,0.0,0.0,0.0,0.0,0.0,0.0,0.0,0.0,0.0,0.0498,0.1424,0.1424,0.2171,0.3513,0.3557,0.3817,0.4366,0.512,0.5674,0.6016,0.0,0.0,0.0,0.0,0.7648,0.7743,0.7726,0.7776,0.7888,0.7888,0.7837,0.7753,0.6445,0.5106,0.3789,0.278,0.1976,0.1381,0.1577,0.0,0.0,0.0,0.0,0.0,0.0,0.0,0.0,0.0,0.0,0.0,0.0,0.0,0.0,0.0,0.0,0.0,0.0,0.0,0.7529,0.7559,0.7576,0.0,0.0,0.0,0.0,0.0,0.0,0.0,0.0,0.0,0.8564,0.8425,0.8349,0.0,0.0,0.8461,0.8476,0.8574,0.8686,0.8764,0.0,0.0,0.0,0.8876,0.8781,0.8781,0.8893,0.8988,0.9016,0.908,0.9123,0.9117,0.9123,0.9121,0.9005,0.873,0.851,0.8523,0.8578,0.8699,0.889,0.893,0.8968,0.0,0.0,0.0,0.0,0.0,0.0,0.0,0.0,0.0,0.0,0.0,0.0,0.0,0.0,0.0,0.0,0.0,0.0,0.1202,0.1776,0.1776,0.2213,0.298,0.2981,0.3672,0.4975,0.4975,0.5282,0.5797,0.6493,0.7025,0.7347,0.0,0.0,0.7865,0.7865,0.7936,0.8072,0.8075,0.8123,0.8186,0.816,0.7829,0.7211,0.6347,0.5247,0.394,0.3172,0.254,0.2023,0.1871,0.216,0.0,0.0,0.0,0.0,0.0,0.0,0.0,0.0,0.0,0.0,0.0,0.7525,0.0,0.0,0.0,0.0,0.7685,0.7661,0.7658,0.7712,0.0,0.0,0.0,0.0,0.0,0.0,0.0,0.8277,0.8567,0.8842,0.8994,0.8916,0.8866,0.8862,0.8811,0.8798,0.8859,0.0,0.9008,0.9075,0.9117,0.9144,0.9257,0.9171,0.9068,0.9032,0.9121,0.9152,0.9107,0.9147,0.9201,0.9211,0.9281,0.9318,0.9318,0.9182,0.9045,0.8991,0.9052,0.914,0.9257,0.9271,0.9288,0.0,0.0,0.0,0.0,0.0,0.0,0.0,0.0,0.0,0.0,0.0,0.0,0.0,0.0,0.0127,0.0,0.2203,0.2334,0.3136,0.4482,0.4482,0.4563,0.4669,0.4667,0.5356,0.665,0.665,0.7285,0.8397,0.8246,0.8249,0.8472,0.8186,0.8147,0.8308,0.8311,0.8376,0.8479,0.8505,0.8505,0.8505,0.8379,0.7737,0.6511,0.6311,0.5581,0.4285,0.4209,0.4145,0.3999,0.3309,0.302,0.323,0.0,0.0,0.0,0.0,0.0,0.0,0.0,0.0,0.0,0.0,0.0,0.0,0.0,0.0,0.0,0.7855,0.0,0.7848,0.7949,0.0,0.0,0.0,0.8503,0.8516,0.8655,0.8747,0.8747,0.0,0.0,0.9216,0.0,0.9427,0.9427,0.9326,0.925,0.9361,0.939,0.941,0.9393,0.9403,0.9407,0.9393,0.939,0.9342,0.9251,0.9228,0.9165,0.9028,0.8973,0.896,0.8983,0.9086,0.9238,0.9231,0.941,0.9544,0.941,0.9395,0.9444,0.9454,0.9458,0.942,0.0,0.0,0.0,0.0,0.0,0.0,0.0,0.0,0.0,0.0,0.0,0.0,0.0,0.0053,0.1182,0.1868,0.2245,0.3404,0.4149,0.4482,0.4482,0.5037,0.5989,0.6018,0.6732,0.7977,0.8029,0.819,0.8482,0.8433,0.8456,0.8479,0.8437,0.8394,0.8428,0.8431,0.8475,0.8509,0.8509,0.8509,0.8482,0.8475,0.8298,0.7978,0.792,0.7286,0.5985,0.5905,0.5366,0.4233,0.3967,0.4019,0.4371,0.4384,0.0,0.0,0.0,0.0,0.0,0.0,0.0,0.0,0.0,0.7959,0.8124,0.0,0.8286,0.0,0.8225,0.8189,0.8189,0.8219,0.0,0.0,0.8635,0.8703,0.8791,0.896,0.9077,0.9073,0.9237,0.94,0.9486,0.9534,0.9554,0.9554,0.9451,0.9369,0.9407,0.941,0.941,0.941,0.941,0.941,0.941,0.941,0.94,0.9362,0.9352,0.9313,0.9283,0.9276,0.9276,0.9276,0.93,0.9352,0.9349,0.942,0.9451,0.9434,0.9557,0.9717,0.9717,0.971,0.9669,0.0,0.0,0.0,0.0,0.0,0.0,0.0,0.0,0.0,0.0,0.0,0.0,0.0377,0.1039,0.1835,0.2934,0.4213,0.5073,0.5819,0.6457,0.646,0.6864,0.757,0.757,0.795,0.8656,0.8686,0.8686,0.8659,0.8686,0.8686,0.8682,0.8686,0.8682,0.8682,0.8618,0.8615,0.8686,0.8686,0.8686,0.8682,0.8621,0.8584,0.8581,0.8516,0.8161,0.7393,0.7396,0.6991,0.6165,0.5536,0.533,0.5537,0.5327,0.5435,0.0,0.0,0.0,0.0,0.0,0.0,0.0,0.0,0.0,0.0,0.0,0.8509,0.0,0.8437,0.842,0.8459,0.8526,0.8659,0.891,0.8971,0.9042,0.9098,0.9266,0.9383,0.9357,0.9486,0.9585,0.9608,0.9612,0.9581,0.9517,0.9435,0.941,0.941,0.941,0.941,0.941,0.941,0.941,0.941,0.941,0.9386,0.9325,0.9308,0.9291,0.9198,0.9184,0.9184,0.9184,0.9264,0.9308,0.9308,0.9369,0.941,0.943,0.951,0.9612,0.9625,0.9595,0.9585,0.0,0.0,0.0,0.0,0.0,0.0,0.0,0.0,0.0,0.0112,0.0275,0.0271,0.1101,0.2488,0.2675,0.4203,0.666,0.6883,0.7655,0.8878,0.8909,0.8909,0.8909,0.8909,0.8909,0.8909,0.8909,0.8909,0.8909,0.8909,0.8909,0.8909,0.8909,0.8909,0.8902,0.8781,0.8777,0.8906,0.8909,0.8909,0.8909,0.8781,0.8713,0.8706,0.8611,0.8566,0.854,0.854,0.853,0.8483,0.7393,0.6775,0.6758,0.6284,0.6102,0.0,0.698,0.0,0.0,0.0,0.0,0.0,0.0,0.0,0.0,0.853,0.856,0.8513,0.8513,0.8564,0.8699,0.8804,0.8974,0.9165,0.9301,0.9386,0.941,0.95,0.9578,0.9581,0.969,0.9713,0.9595,0.9578,0.9523,0.9384,0.9373,0.9323,0.932,0.9327,0.9369,0.9379,0.9334,0.9289,0.9296,0.9306,0.9294,0.9179,0.9155,0.9111,0.895,0.8923,0.8919,0.8929,0.9049,0.9152,0.9155,0.926,0.9313,0.9306,0.9317,0.9344,0.942,0.9437,0.9359,0.0,0.0,0.0,0.0,0.0,0.0,0.0,0.0,0.0,0.0673,0.1762,0.1784,0.2636,0.4125,0.5312,0.6148,0.6752,0.795,0.8634,0.8909,0.8909,0.8909,0.8909,0.8909,0.8909,0.8909,0.8909,0.8909,0.8909,0.8909,0.8909,0.8909,0.8909,0.8909,0.8909,0.0,0.0,0.0,0.8909,0.8909,0.8909,0.8882,0.8869,0.8869,0.8841,0.0,0.8825,0.8825,0.8767,0.8649,0.8421,0.0,0.0,0.0,0.0,0.0,0.0,0.0,0.0,0.0,0.0,0.0,0.8754,0.8774,0.8682,0.8754,0.8774,0.8682,0.8665,0.8679,0.871,0.8737,0.8862,0.9145,0.9209,0.9299,0.9393,0.9412,0.9454,0.9425,0.9449,0.9459,0.9461,0.9425,0.9364,0.925,0.9255,0.9175,0.9017,0.913,0.9248,0.922,0.9113,0.9007,0.8994,0.9007,0.9014,0.8953,0.895,0.8943,0.8919,0.8909,0.8909,0.8909,0.8933,0.8956,0.8956,0.8977,0.9014,0.8997,0.9,0.9096,0.9327,0.9407,0.9366,0.0,0.0,0.0,0.0,0.0,0.0,0.0,0.006,0.077,0.1507,0.218,0.2207,0.2647,0.3437,0.4944,0.6005,0.6785,0.8239,0.8909,0.8909,0.8909,0.8909,0.8909,0.8909,0.8909,0.8909,0.8909,0.8909,0.8909,0.8909,0.8909,0.8909,0.8909,0.8909,0.8909,0.8909,0.8909,0.8909,0.8909,0.8909,0.8909,0.8909,0.8909,0.8909,0.0,0.0,0.0,0.0,0.0,0.0,0.0,0.0,0.0,0.0,0.0,0.8494,0.8362,0.8359,0.8497,0.8567,0.8661,0.877,0.8841,0.8879,0.8801,0.8869,0.8879,0.8804,0.8794,0.8798,0.8798,0.8886,0.9019,0.919,0.925,0.9328,0.9393,0.941,0.941,0.941,0.941,0.9383,0.9305,0.9298,0.9237,0.9076,0.9077,0.9028,0.8933,0.8973,0.9045,0.9049,0.8967,0.8912,0.8909,0.8909,0.8912,0.8909,0.8909,0.8909,0.8909,0.8909,0.8909,0.8909,0.8909,0.8909,0.8909,0.8909,0.8909,0.8909,0.8909,0.895,0.9137,0.9161,0.9144,0.0,0.0,0.0,0.0,0.0,0.0,0.0147,0.0441,0.0,0.0,0.0,0.2208,0.2346,0.271,0.3939,0.5306,0.6758,0.7959,0.866,0.8909,0.8909,0.8909,0.8909,0.8909,0.8909,0.8909,0.8909,0.8909,0.8909,0.8909,0.8909,0.8909,0.8909,0.8909,0.8909,0.8909,0.8909,0.8909,0.8909,0.8909,0.8909,0.8909,0.8909,0.8909,0.8909,0.8909,0.8909,0.8909,0.8909,0.8909,0.8909,0.8909,0.8909,0.8909,0.8909,0.8909,0.8909,0.8909,0.8909,0.8909,0.8909,0.8909,0.8909,0.8909,0.8909,0.8909,0.8909,0.8909,0.8909,0.8909,0.8912,0.9042,0.9145,0.9145,0.9257,0.93,0.9296,0.9303,0.9296,0.9362,0.9362,0.9339,0.925,0.9237,0.9182,0.9024,0.9027,0.8987,0.8987,0.8987,0.9018,0.9021,0.9038,0.9004,0.8994,0.9004,0.899,0.9014,0.9004,0.8987,0.899,0.899,0.899,0.9014,0.899,0.9,0.8994,0.9011,0.899,0.8987,0.8962,0.899,0.899,0.8994,0.8994,0.0,0.0,0.0,0.0,0.0,0.0,0.0697,0.1789,0.0781,0.0995,0.218,0.2208,0.2935,0.4191,0.4388,0.5308,0.6674,0.6924,0.7679,0.8881,0.8909,0.8909,0.8909,0.8909,0.8909,0.8909,0.8912,0.8909,0.8912,0.8912,0.8909,0.8912,0.8909,0.8916,0.8909,0.8909,0.8909,0.8909,0.8909,0.8909,0.8909,0.8909,0.8909,0.8909,0.8909,0.8909,0.8909,0.8909,0.8909,0.8909,0.8909,0.8909,0.8909,0.8909,0.8909,0.8909,0.8909,0.8909,0.8909,0.8909,0.8909,0.8909,0.8909,0.8909,0.8909,0.8909,0.8909,0.8909,0.8916,0.8909,0.8912,0.8943,0.8994,0.8984,0.8967,0.898,0.9004,0.9007,0.9083,0.9223,0.9245,0.9277,0.9349,0.9369,0.9356,0.9342,0.9273,0.9306,0.9286,0.9237,0.922,0.9311,0.9349,0.9349,0.9286,0.9313,0.9293,0.9317,0.93,0.9283,0.9283,0.9283,0.9283,0.9306,0.9286,0.9296,0.93,0.9349,0.9293,0.9283,0.9279,0.9289,0.9286,0.9289,0.9228,0.0,0.0,0.0,0.0,0.0,0.0,0.038,0.094,0.0321,0.0811,0.2125,0.2211,0.2641,0.3473,0.4246,0.5449,0.6966,0.7769,0.8514,0.9149,0.9178,0.9181,0.9181,0.9181,0.9181,0.9149,0.9178,0.9178,0.9181,0.9178,0.9181,0.9181,0.9178,0.9178,0.9178,0.9178,0.9181,0.9174,0.899,0.8909,0.8909,0.8909,0.8909,0.8909,0.8909,0.8909,0.8909,0.8909,0.8909,0.8909,0.8909,0.8909,0.8909,0.8909,0.8909,0.8909,0.8909,0.8909,0.8909,0.8987,0.9089,0.9171,0.9178,0.9178,0.9181,0.9,0.8946,0.9045,0.9055,0.9089,0.9171,0.9178,0.9178,0.9181,0.9181,0.9181,0.9178,0.9153,0.9205,0.9294,0.9305,0.9332,0.9403,0.941,0.941,0.941,0.941,0.9441,0.949,0.9445,0.9417,0.9413,0.941,0.941,0.9413,0.941,0.941,0.941,0.941,0.941,0.941,0.9413,0.9413,0.941,0.9413,0.941,0.9413,0.941,0.941,0.941,0.941,0.941,0.941,0.941,0.933,0.0,0.0,0.0,0.0,0.0,0.0,0.0,0.0,0.0,0.0862,0.2106,0.1886,0.1997,0.2614,0.3726,0.5245,0.7089,0.8323,0.9055,0.9381,0.941,0.941,0.941,0.941,0.941,0.941,0.941,0.941,0.941,0.941,0.941,0.941,0.941,0.941,0.941,0.941,0.941,0.9396,0.9157,0.9011,0.9011,0.9011,0.9011,0.9011,0.9014,0.9011,0.9011,0.9011,0.9011,0.9011,0.9011,0.9014,0.9011,0.9011,0.9011,0.9011,0.9011,0.9011,0.9014,0.9169,0.9284,0.9396,0.941,0.941,0.939,0.9174,0.9051,0.9241,0.9233,0.9281,0.9373,0.9371,0.941,0.941,0.941,0.9393,0.9407,0.941,0.9398,0.9422,0.9435,0.9442,0.9473,0.9479,0.9493,0.95,0.9479,0.9534,0.9632,0.9656,0.9602,0.9523,0.9479,0.9526,0.9479,0.949,0.9493,0.9509,0.9493,0.9507,0.9503,0.949,0.9486,0.9503,0.9496,0.9507,0.9486,0.9522,0.95,0.951,0.9517,0.9496,0.9536,0.9503,0.9449,0.0,0.0,0.0,0.0,0.0,0.0,0.0,0.0,0.0,0.0921,0.2168,0.0894,0.1177,0.2379,0.2792,0.4492,0.7102,0.7267,0.8096,0.9336,0.941,0.941,0.9427,0.9391,0.941,0.942,0.9427,0.9437,0.9437,0.9427,0.9417,0.941,0.941,0.942,0.9417,0.9417,0.9413,0.9413,0.9354,0.9373,0.9369,0.9369,0.9369,0.934,0.9337,0.934,0.9349,0.9369,0.934,0.9373,0.9359,0.9366,0.9362,0.9362,0.9366,0.9334,0.9334,0.9369,0.934,0.9379,0.94,0.9407,0.9427,0.9427,0.9424,0.9364,0.9373,0.9393,0.9364,0.9371,0.941,0.9395,0.9441,0.9422,0.9441,0.941,0.943,0.941,0.9464,0.9574,0.9588,0.9606,0.969,0.971,0.9727,0.9734,0.9724,0.9704,0.9768,0.9748,0.9748,0.9734,0.9741,0.9731,0.9751,0.9744,0.9741,0.9751,0.9768,0.9717,0.97,0.971,0.9774,0.9696,0.9744,0.9704,0.9714,0.9748,0.9727,0.9687,0.9697,0.9731,0.9778,0.9754,0.9666,0.0,0.0,0.0,0.0,0.0,0.0,0.0,0.0,0.0,0.0401,0.1047,0.1307,0.2927,0.5362,0.5392,0.6623,0.8611,0.8704,0.9006,0.9642,0.9639,0.9642,0.9642,0.9639,0.9642,0.9642,0.9642,0.9642,0.9639,0.9639,0.9639,0.9642,0.9642,0.9642,0.9642,0.9642,0.9642,0.9642,0.9639,0.9642,0.9618,0.9469,0.941,0.941,0.941,0.941,0.941,0.941,0.941,0.941,0.941,0.941,0.941,0.941,0.941,0.941,0.941,0.9451,0.9507,0.9513,0.9554,0.9632,0.9642,0.9639,0.9639,0.9642,0.9642,0.9632,0.9564,0.9547,0.9622,0.9612,0.9642,0.9642,0.9612,0.9609,0.9642,0.9642,0.9673,0.9727,0.9734,0.9724,0.9775,0.9788,0.9788,0.9788,0.9792,0.9805,0.9795,0.9788,0.9788,0.9788,0.9788,0.9788,0.9788,0.9788,0.9788,0.9788,0.9788,0.9788,0.9788,0.9788,0.9788,0.9788,0.9788,0.9788,0.9775,0.9788,0.9788,0.9788,0.9788,0.9788,0.9788,0.9788,0.9721,0.0,0.0,0.0,0.0,0.0,0.0,0.0,0.0,0.0,0.0497,0.1519,0.2705,0.5069,0.7819,0.7669,0.8279,0.9667,0.9788,0.9788,0.9788,0.9788,0.9788,0.9788,0.9788,0.9788,0.9788,0.9781,0.9785,0.9788,0.9788,0.9788,0.9795,0.9832,0.9852,0.9859,0.992,0.9947,0.9917,0.9947,0.9947,0.992,0.9741,0.9618,0.9513,0.9503,0.95,0.9503,0.9529,0.9503,0.9503,0.9503,0.9503,0.9529,0.95,0.9503,0.95,0.95,0.9551,0.9659,0.9669,0.97,0.9832,0.9852,0.9873,0.9937,0.9947,0.9947,0.9941,0.9852,0.9829,0.9771,0.9788,0.9788,0.9792,0.9852,0.9849,0.9852,0.9879,0.9951,0.9947,0.9961,0.9947,0.9947,0.993,0.9971,0.9968,0.9958,0.9947,0.9947,0.9958,0.9927,0.9917,0.9951,0.9879,0.9815,0.9788,0.9788,0.9788,0.9788,0.9788,0.9788,0.9788,0.9788,0.9788,0.9788,0.9788,0.9788,0.9788,0.9808,0.9795,0.9802,0.9808,0.9788,0.9792,0.9792,0.0,0.0,0.0,0.0,0.0,0.0,0.0,0.0,0.0,0.173,0.4182,0.4801,0.6848,0.9678,0.8183,0.8318,0.9677,0.9815,0.9819,0.9819,0.9812,0.9798,0.9788,0.9788,0.9798,0.9832,0.9836,0.9822,0.9812,0.9805,0.9788,0.9839,0.9944,1.0008,1.0025,1.0168,1.0281,1.0257,1.0257,1.0278,1.0274,1.0257,1.0066,0.9832,0.9802,0.9805,0.9771,0.9805,0.9771,0.9771,0.9802,0.9802,0.9802,0.9802,0.9802,0.9771,0.9775,0.9808,0.9792,0.9798,0.9856,0.9978,0.9977,1.0065,1.0202,1.0247,1.0247,1.0278,1.0237,1.0107,0.9866,0.9849,0.9863,0.9832,0.993,0.9998,0.9977,1.0148,1.0278,1.0271,1.025,1.0237,1.0267,1.0263,1.0261,1.0254,1.0271,1.0264,1.0244,1.0261,1.0254,1.025,1.0237,1.0158,0.9869,0.9893,0.9846,0.9852,0.9924,0.9825,0.9798,0.9788,0.9805,0.9815,0.9852,0.9852,0.9808,0.9808,0.9869,0.988,0.9893,0.989,0.9856,0.9808,0.9798,0.0,0.0,0.0,0.0,0.0,0.0,0.0,0.0,0.0,0.064,0.2078,0.4102,0.581,0.7024,0.8603,0.9575,1.0082,1.0117,1.0114,1.0114,1.0114,1.0117,1.0114,1.0117,1.0114,1.0114,1.0114,1.0117,1.0114,1.0114,1.0117,1.0117,1.0168,1.0167,1.0209,1.0284,1.0312,1.0312,1.0312,1.0312,1.0318,1.0312,1.0219,1.0124,1.0117,1.0114,1.0114,1.0145,1.0117,1.0148,1.0114,1.0117,1.0117,1.0114,1.0117,1.0117,1.0114,1.0114,1.0114,1.0114,1.0134,1.0185,1.0198,1.0219,1.0298,1.0312,1.0312,1.0315,1.0315,1.0244,1.0158,1.0114,1.0117,1.012,1.0161,1.0198,1.0202,1.0278,1.0312,1.0312,1.0312,1.0312,1.0329,1.0312,1.0312,1.0312,1.0312,1.0322,1.0315,1.0312,1.0329,1.0315,1.0308,1.0246,1.0158,1.012,1.012,1.012,1.0127,1.012,1.01,1.008,1.009,1.0073,1.0066,1.0059,1.0053,1.0056,1.0056,1.007,1.0073,1.0008,0.9954,0.994,0.9886,0.0,0.0,0.0,0.0,0.0,0.0,0.0,0.0,0.0,0.0325,0.1331,0.3934,0.5499,0.6442,0.9113,1.0422,1.0409,1.0359,1.0312,1.0312,1.0312,1.0312,1.0312,1.0312,1.0312,1.0308,1.0312,1.0312,1.0312,1.0312,1.0312,1.0308,1.0321,1.0348,1.0354,1.0395,1.0422,1.0422,1.0422,1.0426,1.0422,1.0422,1.0426,1.0422,1.0422,1.0371,1.0318,1.0312,1.0312,1.0312,1.0312,1.0312,1.0312,1.0312,1.0312,1.0312,1.0308,1.0312,1.0312,1.0312,1.0329,1.0344,1.0351,1.0361,1.0409,1.0422,1.0426,1.0422,1.0422,1.0422,1.0422,1.0422,1.0417,1.0349,1.0352,1.038,1.0383,1.0395,1.0422,1.0439,1.0443,1.0432,1.0422,1.0426,1.0432,1.0422,1.0422,1.0422,1.0422,1.0422,1.0419,1.0454,1.0443,1.0446,1.0419,1.0415,1.0297,1.0276,1.0263,1.0322,1.0346,1.0339,1.0335,1.0325,1.0318,1.0315,1.0315,1.0315,1.0318,1.0325,1.0271,1.0164,1.0144,1.0096,1.0049,0.0,0.0,0.0,0.0,0.0,0.0,0.0,0.0,0.0,0.079,0.2141,0.439,0.5933,0.7813,0.9429,1.0565,1.0636,1.0436,1.0359,1.0359,1.0349,1.0352,1.0352,1.0363,1.0363,1.0359,1.0332,1.03,1.0321,1.0359,1.0356,1.0359,1.0439,1.0497,1.0493,1.0612,1.0694,1.0683,1.064,1.0654,1.0714,1.0683,1.0677,1.0687,1.0687,1.0568,1.0349,1.0339,1.0352,1.0346,1.0339,1.0322,1.0352,1.0352,1.0304,1.0352,1.0335,1.0329,1.0304,1.0349,1.0424,1.0466,1.0493,1.0548,1.0606,1.064,1.0644,1.0633,1.0677,1.069,1.0683,1.0677,1.0585,1.0393,1.0429,1.0493,1.0521,1.0622,1.0711,1.0687,1.0673,1.0707,1.0711,1.067,1.0656,1.066,1.0666,1.066,1.0649,1.0646,1.0657,1.069,1.0646,1.0609,1.066,1.0694,1.0524,1.0388,1.0368,1.0403,1.0431,1.0402,1.0415,1.0412,1.0451,1.0448,1.0419,1.0419,1.0427,1.042,1.0341,1.0327,1.0293,1.0273,1.0256,0.0,0.0,0.0,0.0,0.0,0.0,0.0,0.0,0.0,0.0,0.1103,0.2746,0.4526,0.6297,0.8033,0.951,1.0641,1.0619,1.0582,1.0575,1.0575,1.0571,1.0575,1.0578,1.0585,1.0585,1.0582,1.0582,1.0575,1.0575,1.0585,1.0595,1.059,1.0649,1.0646,1.0697,1.0721,1.0721,1.0721,1.0721,1.0721,1.0721,1.0721,1.0721,1.0717,1.067,1.0592,1.0585,1.0582,1.0575,1.0582,1.0585,1.0582,1.0582,1.0552,1.0585,1.0582,1.0582,1.0582,1.0578,1.0588,1.0636,1.0643,1.0666,1.0711,1.0721,1.0721,1.0721,1.0721,1.0721,1.0721,1.0721,1.067,1.0592,1.0622,1.0639,1.0639,1.0687,1.0714,1.0721,1.0721,1.0721,1.0721,1.0721,1.0721,1.0721,1.0721,1.0721,1.0721,1.0721,1.0717,1.0717,1.0721,1.0721,1.0721,1.0721,1.0636,1.0541,1.0514,1.049,1.0507,1.0517,1.0527,1.0534,1.0541,1.0548,1.0551,1.0548,1.0524,1.0548,1.0561,1.0517,1.0446,1.0415,1.0405,0.0,0.0,0.0,0.0,0.0,0.0,0.0,0.0,0.0,0.0,0.0,0.1915,0.3288,0.4727,0.6896,0.8568,0.9742,1.0316,1.0721,1.0721,1.0721,1.0721,1.0721,1.0721,1.0721,1.0721,1.0717,1.0721,1.0721,1.0721,1.0717,1.0717,1.0721,1.0717,1.0721,1.0721,1.0721,1.0721,1.0721,1.0721,1.0721,1.0721,1.0721,1.0721,1.0721,1.0721,1.0721,1.0721,1.0721,1.0721,1.0721,1.0721,1.0721,1.0714,1.0721,1.0721,1.0717,1.0714,1.0721,1.0704,1.0721,1.0721,1.0721,1.0717,1.0721,1.0721,1.0721,1.0721,1.0721,1.0721,1.0721,1.0721,1.0721,1.0717,1.0711,1.0721,1.0721,1.0721,1.0721,1.0721,1.0721,1.0721,1.0721,1.0721,1.0721,1.0721,1.0721,1.0721,1.0721,1.0721,1.0721,1.0721,1.0721,1.0721,1.0721,1.0721,1.0721,1.0694,1.0677,1.0653,1.0649,1.0646,1.0653,1.0646,1.0649,1.0643,1.0643,1.0663,1.066,1.0714,1.0721,1.066,1.0578,1.0575,1.0565,0.0,0.0,0.0,0.0,0.0,0.0,0.0,0.0,0.0,0.0,0.0,0.1613,0.2585,0.3488,0.5926,0.7495,0.8299,0.9576,1.0485,1.0651,1.0721,1.0721,1.0721,1.0721,1.0721,1.0721,1.0721,1.0721,1.0721,1.0721,1.0721,1.0721,1.0721,1.0721,1.0721,1.0721,1.0721,1.0721,1.0721,1.0721,1.0721,1.0721,1.0721,1.0721,1.0741,1.0751,1.0721,1.0778,1.0761,1.0727,1.0721,1.0721,1.0721,1.0721,1.0721,1.0721,1.0721,1.0721,1.0721,1.0721,1.0721,1.0721,1.0721,1.0721,1.0721,1.0721,1.0721,1.0721,1.0721,1.0727,1.0741,1.0751,1.0758,1.0751,1.0748,1.0724,1.0721,1.0721,1.0721,1.0721,1.0721,1.0721,1.0721,1.0721,1.0721,1.0721,1.0721,1.0721,1.0721,1.0721,1.0721,1.0721,1.0721,1.0721,1.0721,1.0721,1.0721,1.0721,1.0721,1.0721,1.0721,1.0721,1.0721,1.0721,1.0721,1.0721,1.0721,1.0721,1.0721,1.0721,1.0721,1.0721,1.0704,1.0677,1.0663,0.0,0.0,0.0,0.0,0.0,0.0,0.0,0.0,0.0,0.0,0.0,0.0471,0.1512,0.2752,0.3689,0.5426,0.7564,0.8568,0.954,1.0585,1.0721,1.0721,1.0721,1.0721,1.0721,1.0721,1.0721,1.0721,1.0721,1.0721,1.0721,1.0721,1.0721,1.0721,1.0721,1.0724,1.0721,1.0721,1.0724,1.0698,1.0734,1.0734,1.0721,1.0694,1.0796,1.085,1.0867,1.0992,1.0931,1.0734,1.0721,1.0721,1.0738,1.0738,1.0748,1.0744,1.0734,1.0727,1.0731,1.0734,1.0727,1.0721,1.0751,1.0721,1.0721,1.0721,1.0721,1.0721,1.0721,1.0742,1.083,1.0857,1.0897,1.0999,1.087,1.0744,1.0741,1.0721,1.0721,1.0721,1.0731,1.0731,1.0734,1.0721,1.0721,1.0721,1.0721,1.0721,1.0721,1.0721,1.0721,1.0721,1.0721,1.0721,1.0721,1.0721,1.0721,1.0721,1.0721,1.0721,1.0721,1.0721,1.0721,1.0721,1.0721,1.0721,1.0721,1.0721,1.0721,1.0721,1.0721,1.0721,1.0721,1.0704,1.07,0.0,0.0,0.0,0.0,0.0,0.0,0.0,0.0,0.0,0.0,0.0,0.0,0.0,0.1646,0.3187,0.4859,0.6865,0.8468,0.9742,1.0482,1.0721,1.0721,1.0721,1.0721,1.0721,1.0721,1.0721,1.0721,1.0721,1.0721,1.0721,1.0721,1.0721,1.0721,1.0727,1.0759,1.0786,1.0799,1.0867,1.0907,1.0907,1.0904,1.0907,1.0917,1.0999,1.104,1.1053,1.1152,1.1104,1.0941,1.0907,1.0904,1.0907,1.0907,1.0904,1.0907,1.0907,1.0911,1.0907,1.0907,1.0907,1.0907,1.0907,1.0904,1.0914,1.0907,1.0907,1.0917,1.0907,1.0951,1.1012,1.104,1.1077,1.1149,1.1009,1.0907,1.0907,1.0921,1.0911,1.0894,1.0819,1.0782,1.0782,1.0735,1.0731,1.0721,1.0721,1.0721,1.0721,1.0724,1.0738,1.0758,1.0755,1.0755,1.0751,1.0748,1.0727,1.0724,1.0721,1.0721,1.0721,1.0721,1.0721,1.0721,1.0721,1.0721,1.0721,1.0721,1.0721,1.0721,1.0721,1.0721,1.0721,1.0721,1.0721,0.0,0.0,0.0,0.0,0.0,0.0,0.0,0.0,0.0,0.0,0.0,0.0,0.0,0.0,0.2761,0.4774,0.5314,0.8027,0.995,1.0565,1.0802,1.0806,1.0812,1.0741,1.0724,1.0721,1.0721,1.0721,1.0721,1.0721,1.0704,1.0728,1.0761,1.0765,1.0829,1.088,1.0931,1.0958,1.1094,1.1138,1.1142,1.1142,1.1138,1.1145,1.1196,1.1209,1.1257,1.1274,1.1219,1.1247,1.122,1.1169,1.1176,1.1186,1.1179,1.1166,1.1152,1.1159,1.1183,1.1152,1.1176,1.1159,1.1166,1.1196,1.1159,1.1145,1.1145,1.1138,1.1193,1.1183,1.122,1.1234,1.1271,1.1295,1.1254,1.1247,1.124,1.122,1.1196,1.1193,1.104,1.0951,1.0901,1.083,1.0778,1.0884,1.0863,1.087,1.0873,1.088,1.087,1.085,1.0833,1.0799,1.0789,1.0778,1.0751,1.0698,1.0724,1.0721,1.0721,1.0721,1.0721,1.0721,1.0721,1.0721,1.0721,1.0721,1.0721,1.0721,1.0721,1.0721,1.0721,1.0721,1.0721,0.0,0.0,0.0,0.0,0.0,0.0,0.0,0.0,0.0,0.0,0.0,0.0,0.0,0.0,0.119,0.1878,0.3586,0.601,0.8087,1.0998,1.1101,1.1067,1.0975,1.0786,1.0704,1.0738,1.0727,1.0727,1.0734,1.0765,1.0755,1.0857,1.087,1.0917,1.105,1.108,1.1118,1.1155,1.1193,1.122,1.123,1.1227,1.1227,1.1234,1.1322,1.1406,1.1501,1.1525,1.1521,1.1467,1.1346,1.1234,1.1234,1.1223,1.123,1.1234,1.122,1.121,1.1203,1.1223,1.1203,1.1227,1.1237,1.1196,1.1196,1.1217,1.121,1.12,1.12,1.1274,1.1363,1.1453,1.1477,1.1477,1.1487,1.1494,1.148,1.1314,1.124,1.121,1.1183,1.1149,1.1118,1.1084,1.1077,1.1094,1.1087,1.1094,1.1046,1.1029,1.1006,1.0968,1.0975,1.0955,1.0945,1.0924,1.0877,1.0846,1.0822,1.0806,1.0806,1.0715,1.0725,1.0744,1.0721,1.0721,1.0721,1.0721,1.0721,1.0721,1.0721,1.0721,1.0721,1.0721,1.0721,0.0,0.0,0.0,0.0,0.0,0.0,0.0,0.0,0.0,0.0,0.0,0.0,0.0,0.0,0.0898,0.1939,0.291,0.4625,0.6519,0.8396,0.9201,0.9832,1.0134,1.061,1.0928,1.0928,1.0931,1.0928,1.0928,1.0924,1.0978,1.1005,1.105,1.1077,1.1206,1.1233,1.1302,1.1325,1.1345,1.1379,1.1379,1.1375,1.1379,1.1382,1.1457,1.1545,1.1603,1.1577,1.1577,1.154,1.1463,1.1372,1.1375,1.141,1.1375,1.1379,1.1375,1.1375,1.1379,1.1375,1.1385,1.1404,1.1372,1.1379,1.1379,1.1379,1.1379,1.1379,1.1389,1.1423,1.1491,1.1552,1.1616,1.158,1.158,1.158,1.1592,1.147,1.1379,1.1393,1.1359,1.1322,1.1298,1.1274,1.1213,1.1172,1.1162,1.1169,1.1155,1.1142,1.1152,1.1142,1.1162,1.1162,1.1152,1.1087,1.1033,1.1012,1.1033,1.1026,1.1026,1.0904,1.0779,1.0745,1.0708,1.0721,1.0721,1.0721,1.0721,1.0721,1.0721,1.0721,1.0721,1.0721,1.0721,0.0,0.0,0.0,0.0,0.0,0.0,0.0,0.0,0.0,0.0,0.0,0.0,0.0,0.0,0.1368,0.2247,0.3097,0.4046,0.5325,0.6239,0.7402,0.8248,0.8798,0.9872,1.0841,1.1157,1.1183,1.1172,1.1166,1.12,1.1172,1.122,1.1234,1.1274,1.1305,1.1352,1.1426,1.144,1.1518,1.1572,1.1546,1.1546,1.1546,1.1546,1.155,1.1599,1.158,1.158,1.158,1.158,1.158,1.158,1.158,1.158,1.158,1.1606,1.1579,1.1565,1.1558,1.1546,1.1589,1.158,1.157,1.157,1.156,1.1543,1.1572,1.1582,1.1543,1.1543,1.158,1.158,1.158,1.158,1.158,1.158,1.158,1.158,1.155,1.1572,1.1487,1.1433,1.1396,1.1365,1.1322,1.1261,1.1257,1.1254,1.1251,1.1268,1.1305,1.1336,1.137,1.1315,1.1257,1.1271,1.1182,1.1134,1.1169,1.1172,1.1169,1.1084,1.0938,1.0779,1.0732,1.0715,1.0727,1.0721,1.0721,1.0721,1.0721,1.0721,1.0721,1.0721,1.0721,0.0,0.0,0.0,0.0,0.0,0.0,0.0,0.0,0.0,0.0,0.0,0.0,0.0,0.0,0.0,0.0,0.248,0.3164,0.3993,0.5072,0.6005,0.6719,0.7964,0.864,0.9808,1.1141,1.1082,1.0745,1.1192,1.12,1.1298,1.1335,1.1355,1.1399,1.1487,1.1569,1.1558,1.1548,1.156,1.158,1.158,1.158,1.158,1.158,1.158,1.158,1.158,1.158,1.158,1.158,1.158,1.158,1.158,1.158,1.158,1.158,1.158,1.158,1.158,1.158,1.158,1.158,1.158,1.158,1.158,1.158,1.158,1.158,1.158,1.158,1.158,1.158,1.158,1.158,1.158,1.158,1.158,1.158,1.158,1.1609,1.1546,1.1526,1.1514,1.1487,1.1457,1.1423,1.1426,1.1433,1.144,1.1463,1.1504,1.1535,1.1562,1.1474,1.1389,1.1365,1.1324,1.1243,1.1261,1.1261,1.1247,1.12,1.1104,1.0985,1.083,1.0789,1.0765,1.0748,1.0724,1.0698,1.0727,1.0721,1.0721,1.0721,1.0721,0.0,0.0,0.0,0.0,0.0,0.0,0.0,0.0,0.0,0.0,0.0,0.0,0.0,0.0,0.0,0.0,0.0,0.142,0.1966,0.2874,0.3815,0.4649,0.6022,0.6675,0.7582,0.8318,0.8449,0.9674,1.1223,1.1406,1.1249,1.1484,1.1511,1.1516,1.1563,1.1573,1.1508,1.1508,1.1472,1.1508,1.1544,1.1544,1.1548,1.158,1.158,1.158,1.158,1.158,1.158,1.158,1.158,1.158,1.158,1.158,1.158,1.158,1.158,1.158,1.158,1.158,1.158,1.158,1.158,1.158,1.158,1.158,1.158,1.158,1.158,1.158,1.158,1.158,1.158,1.158,1.158,1.158,1.158,1.158,1.158,1.158,1.1567,1.156,1.1567,1.1592,1.1573,1.158,1.158,1.158,1.158,1.158,1.158,1.158,1.1613,1.1572,1.1491,1.1477,1.1457,1.1382,1.1341,1.138,1.1373,1.1349,1.1277,1.1216,1.1077,1.0948,1.083,1.0833,1.0772,1.0715,1.0708,1.0738,1.0724,1.0721,1.0721,0.0,0.0,0.0,0.0,0.0,0.0,0.0,0.0,0.0,0.0,0.0,0.0,0.0,0.0,0.0,0.0,0.0,0.0,0.0,0.062,0.1675,0.2437,0.3379,0.425,0.5591,0.6423,0.6342,0.7402,0.9333,0.991,1.0257,0.9964,1.0263,1.0452,1.0164,0.9798,1.0416,1.0452,1.0455,1.0488,1.0926,1.1034,1.1293,1.158,1.158,1.158,1.158,1.158,1.158,1.158,1.158,1.158,1.158,1.158,1.158,1.158,1.158,1.158,1.158,1.158,1.158,1.158,1.158,1.158,1.158,1.158,1.158,1.158,1.158,1.158,1.158,1.158,1.158,1.158,1.158,1.158,1.158,1.158,1.158,1.158,1.158,1.158,1.158,1.158,1.158,1.158,1.158,1.158,1.158,1.158,1.158,1.158,1.158,1.158,1.1586,1.1579,1.1562,1.1528,1.1504,1.1504,1.1504,1.1494,1.1447,1.1392,1.1355,1.1233,1.108,1.0945,1.0894,1.0836,1.0769,1.0721,1.0701,1.0724,1.0721,0.0,0.0,0.0,0.0,0.0,0.0,0.0,0.0,0.0,0.0,0.0,0.0,0.0,0.0,0.0,0.0,0.0,0.0,0.0,0.0,0.0,0.142,0.2581,0.3017,0.4032,0.4723,0.5266,0.5918,0.6642,0.6679,0.6787,0.6932,0.7149,0.6679,0.7331,0.7404,0.6496,0.6606,0.6679,0.7474,0.8742,0.9033,0.9867,1.0815,1.1217,1.107,1.0851,1.0815,1.0998,1.1145,1.1329,1.1508,1.158,1.158,1.158,1.158,1.158,1.158,1.1544,1.158,1.158,1.158,1.158,1.158,1.158,1.158,1.158,1.158,1.158,1.158,1.158,1.158,1.158,1.158,1.158,1.158,1.158,1.158,1.158,1.158,1.158,1.158,1.158,1.158,1.158,1.158,1.158,1.158,1.158,1.158,1.158,1.158,1.158,1.158,1.158,1.158,1.158,1.158,1.158,1.158,1.1592,1.1572,1.1586,1.1541,1.1514,1.1443,1.1284,1.1155,1.107,1.0999,1.0934,1.0806,1.0708,1.0701,1.0755,0.0,0.0,0.0,0.0,0.0,0.0,0.0,0.0,0.0,0.0,0.0,0.0,0.0,0.0,0.0,0.0,0.0,0.0,0.0,0.0,0.0,0.0,0.0984,0.1275,0.1929,0.0,0.0,0.2256,0.3019,0.4723,0.5774,0.5629,0.5701,0.5991,0.5375,0.5701,0.5846,0.5918,0.5918,0.6242,0.6857,0.711,0.7474,0.8309,0.8456,0.8492,0.8492,0.8309,0.8309,0.8309,0.8312,0.8309,0.8309,0.8273,0.8273,0.8273,0.8273,0.9288,1.1145,1.1436,1.1361,1.1508,1.1508,1.158,1.158,1.1508,1.1508,1.158,1.158,1.158,1.158,1.158,1.158,1.158,1.158,1.158,1.158,1.158,1.158,1.158,1.158,1.158,1.158,1.158,1.158,1.158,1.158,1.158,1.158,1.158,1.158,1.158,1.158,1.158,1.158,1.158,1.158,1.158,1.158,1.158,1.158,1.1577,1.158,1.158,1.1546,1.1501,1.1406,1.1328,1.124,1.1155,1.1073,1.0992,1.0917,1.0833,1.083,0.0,0.0,0.0,0.0,0.0,0.0,0.0,0.0,0.0,0.0,0.0,0.0,0.0,0.0,0.0,0.0,0.0,0.0,0.0,0.0,0.0,0.0,0.0,0.0,0.0,0.0,0.0,0.0,0.0,0.2474,0.3962,0.4361,0.3745,0.3998,0.4215,0.3998,0.3818,0.3817,0.3889,0.4323,0.4939,0.5084,0.5448,0.5774,0.581,0.581,0.581,0.5955,0.6027,0.6063,0.6208,0.6353,0.628,0.6389,0.6353,0.6389,0.6425,0.7257,0.8928,0.9654,1.0125,1.0161,1.0161,0.9579,0.987,1.0416,1.0851,1.0632,1.1436,1.1508,1.158,1.158,1.158,1.158,1.158,1.158,1.158,1.158,1.158,1.158,1.158,1.158,1.158,1.158,1.158,1.158,1.158,1.158,1.158,1.158,1.158,1.158,1.158,1.158,1.158,1.158,1.158,1.158,1.158,1.158,1.158,1.158,1.158,1.158,1.158,1.1586,1.1508,1.146,1.1406,1.1304,1.1216,1.122,1.1128,1.106,1.0995,0.0,0.0,0.0,0.0,0.0,0.0,0.0,0.0,0.0,0.0,0.0,0.0,0.0,0.0,0.0,0.0,0.0,0.0,0.0,0.0,0.0,0.0,0.0,0.0,0.0,0.0,0.0,0.0,0.0,0.0,0.0,0.0,0.0,0.0,0.0,0.0,0.0,0.0,0.0,0.1929,0.2691,0.3235,0.3815,0.5121,0.5592,0.5774,0.5737,0.5266,0.5049,0.5013,0.494,0.494,0.4723,0.4795,0.4759,0.476,0.4795,0.5339,0.6027,0.6789,0.6534,0.6353,0.657,0.7042,0.7295,0.8271,0.8739,0.9103,1.0122,1.1109,1.1325,1.158,1.158,1.158,1.158,1.158,1.158,1.158,1.158,1.158,1.158,1.158,1.158,1.158,1.158,1.158,1.158,1.158,1.158,1.158,1.158,1.158,1.158,1.158,1.158,1.158,1.158,1.158,1.158,1.158,1.158,1.158,1.158,1.158,1.158,1.158,1.158,1.1555,1.1491,1.1419,1.1362,1.1328,1.1302,1.1182,1.1141,0.0,0.0,0.0,0.0,0.0,0.0,0.0,0.0,0.0,0.0,0.0,0.0,0.0,0.0,0.0,0.0,0.0,0.0,0.0,0.0,0.0,0.0,0.0,0.0,0.0,0.0,0.0,0.0,0.0,0.0,0.0,0.0,0.0,0.0,0.0,0.0,0.0,0.0,0.0,0.0,0.0766,0.1129,0.1493,0.2075,0.2221,0.222,0.2147,0.2184,0.222,0.0,0.0,0.0,0.0,0.0,0.0,0.0,0.0,0.0,0.3092,0.4288,0.5774,0.581,0.5846,0.5629,0.5375,0.6532,0.6821,0.7508,0.8631,0.9759,0.9831,1.0776,1.158,1.158,1.158,1.158,1.158,1.158,1.158,1.158,1.158,1.158,1.158,1.158,1.158,1.158,1.158,1.158,1.158,1.158,1.158,1.158,1.158,1.158,1.158,1.158,1.158,1.158,1.158,1.158,1.158,1.158,1.158,1.158,1.158,1.158,1.158,1.158,1.1575,1.1511,1.1484,1.147,1.1396,1.1311,1.1315,0.0,0.0,0.0,0.0,0.0,0.0,0.0,0.0,0.0,0.0,0.0,0.0,0.0,0.0,0.0,0.0,0.0,0.0,0.0,0.0,0.0,0.0,0.0,0.0,0.0,0.0,0.0,0.0,0.0,0.0,0.0,0.0,0.0,0.0,0.0,0.0,0.0,0.0,0.0,0.0,0.0,0.0,0.0,0.0,0.0,0.0,0.0,0.0,0.0,0.0,0.0,0.0,0.0,0.0,0.0,0.0,0.0,0.0,0.0,0.2075,0.4034,0.3563,0.3671,0.3744,0.4143,0.4576,0.4937,0.5118,0.6602,0.7833,0.7941,0.9285,1.0305,1.0269,1.1397,1.158,1.158,1.158,1.158,1.158,1.158,1.158,1.158,1.158,1.158,1.158,1.158,1.158,1.158,1.158,1.158,1.158,1.158,1.158,1.158,1.158,1.158,1.158,1.158,1.158,1.158,1.158,1.158,1.158,1.158,1.158,1.158,1.158,1.158,1.1573,1.1579,1.1548,1.1531,1.1453,1.1423,0.0,0.0,0.0,0.0,0.0,0.0,0.0,0.0,0.0,0.0,0.0,0.0,0.0,0.0,0.0,0.0,0.0,0.0,0.0,0.0,0.0,0.0,0.0,0.0,0.0,0.0,0.0,0.0,0.0,0.0,0.0,0.0,0.0,0.0,0.0,0.0,0.0,0.0,0.0,0.0,0.0,0.0,0.0,0.0,0.0,0.0,0.0,0.0,0.0,0.0,0.0,0.0,0.0,0.0,0.0,0.0,0.0,0.0,0.0,0.0,0.0,0.0,0.0,0.0,0.0,0.1747,0.2945,0.309,0.472,0.5698,0.6496,0.7472,0.8343,0.9033,1.0086,1.0452,1.0305,1.0923,1.0776,1.0923,1.1325,1.158,1.158,1.158,1.158,1.158,1.158,1.158,1.158,1.158,1.158,1.158,1.158,1.158,1.158,1.158,1.158,1.158,1.158,1.158,1.158,1.158,1.158,1.158,1.158,1.158,1.158,1.158,1.158,1.158,1.158,1.1563,1.1563,1.155,1.1535,0.0,0.0,0.0,0.0,0.0,0.0,0.0,0.0,0.0,0.0,0.0,0.0,0.0,0.0,0.0,0.0,0.0,0.0,0.0,0.0,0.0,0.0,0.0,0.0,0.0,0.0,0.0,0.0,0.0,0.0,0.0,0.0,0.0,0.0,0.0,0.0,0.0,0.0,0.0,0.0,0.0,0.0,0.0,0.0,0.0,0.0,0.0,0.0,0.0,0.0,0.0,0.0,0.0,0.0,0.0,0.0,0.0,0.0,0.0,0.0,0.0,0.0,0.0,0.0,0.0,0.0,0.0911,0.1384,0.2872,0.3707,0.4212,0.5699,0.6606,0.6751,0.7331,0.7368,0.7584,0.885,0.9502,0.9939,1.0341,1.1034,1.1289,1.1544,1.158,1.158,1.158,1.158,1.158,1.158,1.158,1.158,1.158,1.158,1.158,1.158,1.158,1.158,1.158,1.158,1.158,1.158,1.158,1.158,1.158,1.158,1.158,1.158,1.158,1.158,1.158,1.158,1.1577,1.1573,1.156,0.0,0.0,0.0,0.0,0.0,0.0,0.0,0.0,0.0,0.0,0.0,0.0,0.0,0.0,0.0,0.0,0.0,0.0,0.0,0.0,0.0,0.0,0.0,0.0,0.0,0.0,0.0,0.0,0.0,0.0,0.0,0.0,0.0,0.0,0.0,0.0,0.0,0.0,0.0,0.0,0.0,0.0,0.0,0.0,0.0,0.0,0.0,0.0,0.0,0.0,0.0,0.0,0.0,0.0,0.0,0.0,0.0,0.0,0.0,0.0,0.0,0.0,0.0,0.0,0.0,0.0,0.0,0.0,0.0,0.0,0.0,0.0,0.465,0.4795,0.5339,0.5448,0.5953,0.7291,0.7724,0.8234,0.867,0.9579,1.0779,1.1364,1.158,1.158,1.158,1.158,1.158,1.158,1.158,1.158,1.158,1.158,1.158,1.158,1.158,1.158,1.158,1.158,1.158,1.158,1.158,1.158,1.158,1.158,1.158,1.158,1.158,1.158,1.158,1.158,1.158,1.158,1.158,0.0,0.0,0.0,0.0,0.0,0.0,0.0,0.0,0.0,0.0,0.0,0.0,0.0,0.0,0.0,0.0,0.0,0.0,0.0,0.0,0.0,0.0,0.0,0.0,0.0,0.0,0.0,0.0,0.0,0.0,0.0,0.0,0.0,0.0,0.0,0.0,0.0,0.0,0.0,0.0,0.0,0.0,0.0,0.0,0.0,0.0,0.0,0.0,0.0,0.0,0.0,0.0,0.0,0.0,0.0,0.0,0.0,0.0,0.0,0.0,0.0,0.0,0.0,0.0,0.0,0.0,0.0,0.0,0.0,0.0,0.0,0.0,0.2763,0.3416,0.4215,0.454,0.4902,0.5446,0.5663,0.5989,0.628,0.7293,0.9141,1.0083,1.0815,1.158,1.158,1.158,1.158,1.158,1.158,1.158,1.158,1.158,1.158,1.158,1.158,1.158,1.158,1.158,1.158,1.158,1.158,1.158,1.158,1.158,1.158,1.158,1.158,1.158,1.158,1.158,1.158,1.158,1.158,0.0,0.0,0.0,0.0,0.0,0.0,0.0,0.0,0.0,0.0,0.0,0.0,0.0,0.0,0.0,0.0,0.0,0.0,0.0,0.0,0.0,0.0,0.0,0.0,0.0,0.0,0.0,0.0,0.0,0.0,0.0,0.0,0.0,0.0,0.0,0.0,0.0,0.0,0.0,0.0,0.0,0.0,0.0,0.0,0.0,0.0,0.0,0.0,0.0,0.0,0.0,0.0,0.0,0.0,0.0,0.0,0.0,0.0,0.0,0.0,0.0,0.0,0.0,0.0,0.0,0.0,0.0,0.0,0.0,0.0,0.0,0.0,0.0,0.0,0.0,0.0,0.0,0.3344,0.3599,0.3961,0.4251,0.5843,0.7652,0.8631,0.9468,1.0815,1.1436,1.1145,1.14,1.1361,1.158,1.158,1.158,1.158,1.158,1.158,1.158,1.158,1.158,1.158,1.158,1.158,1.158,1.158,1.158,1.158,1.158,1.158,1.158,1.158,1.158,1.158,1.158,1.158,1.158,0.0,0.0,0.0,0.0,0.0,0.0,0.0,0.0,0.0,0.0,0.0,0.0,0.0,0.0,0.0,0.0,0.0,0.0,0.0,0.0,0.0,0.0,0.0,0.0,0.0,0.0,0.0,0.0,0.0,0.0,0.0,0.0,0.0,0.0,0.0,0.0,0.0,0.0,0.0,0.0,0.0,0.0,0.0,0.0,0.0,0.0,0.0,0.0,0.0,0.0,0.0,0.0,0.0,0.0,0.0,0.0,0.0,0.0,0.0,0.0,0.0,0.0,0.0,0.0,0.0,0.0,0.0,0.0,0.0,0.0,0.0,0.0,0.0,0.0,0.0,0.0,0.0,0.0,0.1638,0.2038,0.3127,0.4683,0.5986,0.6964,0.7654,0.8273,0.86,0.8528,0.9507,1.0632,1.1181,1.158,1.158,1.158,1.158,1.158,1.158,1.158,1.158,1.158,1.158,1.158,1.158,1.158,1.158,1.158,1.158,1.158,1.158,1.158,1.1544,1.1508,1.1544,1.158,1.158,0.0,0.0,0.0,0.0,0.0,0.0,0.0,0.0,0.0,0.0,0.0,0.0,0.0,0.0,0.0,0.0,0.0,0.0,0.0,0.0,0.0,0.0,0.0,0.0,0.0,0.0,0.0,0.0,0.0,0.0,0.0,0.0,0.0,0.0,0.0,0.0,0.0,0.0,0.0,0.0,0.0,0.0,0.0,0.0,0.0,0.0,0.0,0.0,0.0,0.0,0.0,0.0,0.0,0.0,0.0,0.0,0.0,0.0,0.0,0.0,0.0,0.0,0.0,0.0,0.0,0.0,0.0,0.0,0.0,0.0,0.0,0.0,0.0,0.0,0.0,0.0,0.0,0.0,0.0,0.0,0.1638,0.3127,0.4212,0.5191,0.6132,0.6134,0.6425,0.6534,0.7149,0.8961,0.9906,1.0704,1.0779,1.0815,1.158,1.158,1.158,1.158,1.1508,1.158,1.158,1.158,1.158,1.158,1.158,1.158,1.158,1.158,1.1508,1.1472,1.1436,1.14,1.14,1.1217,1.1436,0.0,0.0,0.0,0.0,0.0,0.0,0.0,0.0,0.0,0.0,0.0,0.0,0.0,0.0,0.0,0.0,0.0,0.0,0.0,0.0,0.0,0.0,0.0,0.0,0.0,0.0,0.0,0.0,0.0,0.0,0.0,0.0,0.0,0.0,0.0,0.0,0.0,0.0,0.0,0.0,0.0,0.0,0.0,0.0,0.0,0.0,0.0,0.0,0.0,0.0,0.0,0.0,0.0,0.0,0.0,0.0,0.0,0.0,0.0,0.0,0.0,0.0,0.0,0.0,0.0,0.0,0.0,0.0,0.0,0.0,0.0,0.0,0.0,0.0,0.0,0.0,0.0,0.0,0.0,0.0,0.0,0.1384,0.251,0.338,0.4358,0.5084,0.5701,0.5882,0.5592,0.6568,0.7438,0.8234,0.9105,0.954,1.0485,1.0887,1.0488,1.0962,1.1106,1.1289,1.1508,1.1178,1.0923,1.1436,1.158,1.1436,1.1364,1.1512,1.1436,1.1074,1.0233,0.9726,0.9978,0.9978,1.0599,0.0,0.0,0.0,0.0,0.0,0.0,0.0,0.0,0.0,0.0,0.0,0.0,0.0,0.0,0.0,0.0,0.0,0.0,0.0,0.0,0.0,0.0,0.0,0.0,0.0,0.0,0.0,0.0,0.0,0.0,0.0,0.0,0.0,0.0,0.0,0.0,0.0,0.0,0.0,0.0,0.0,0.0,0.0,0.0,0.0,0.0,0.0,0.0,0.0,0.0,0.0,0.0,0.0,0.0,0.0,0.0,0.0,0.0,0.0,0.0,0.0,0.0,0.0,0.0,0.0,0.0,0.0,0.0,0.0,0.0,0.0,0.0,0.0,0.0,0.0,0.0,0.0,0.0,0.0,0.0,0.0,0.0474,0.1275,0.1311,0.0,0.0,0.0,0.0,0.0,0.0,0.4902,0.5698,0.6494,0.7291,0.7946,0.849,0.8781,0.9468,1.0305,1.0743,1.0779,1.0413,1.0269,1.0269,1.0524,1.0926,1.0926,1.0488,1.0305,0.9831,0.8742,0.7691,0.8126,0.8526,0.86,0.0,0.0,0.0,0.0,0.0,0.0,0.0,0.0,0.0,0.0,0.0,0.0,0.0,0.0,0.0,0.0,0.0,0.0,0.0,0.0,0.0,0.0,0.0,0.0,0.0,0.0,0.0,0.0,0.0,0.0,0.0,0.0,0.0,0.0,0.0,0.0,0.0,0.0,0.0,0.0,0.0,0.0,0.0,0.0,0.0,0.0,0.0,0.0,0.0,0.0,0.0,0.0,0.0,0.0,0.0,0.0,0.0,0.0,0.0,0.0,0.0,0.0,0.0,0.0,0.0,0.0,0.0,0.0,0.0,0.0,0.0,0.0,0.0,0.0,0.0,0.0,0.0,0.0,0.0,0.0,0.0,0.0,0.0,0.0,0.0,0.0,0.0,0.0,0.0,0.0,0.2365,0.3054,0.3707,0.4505,0.5736,0.6389,0.7076,0.7654,0.849,0.9432,0.987,0.8925,0.8379,0.8523,0.8814,0.9144,0.8961,0.8417,0.8343,0.8304,0.6855,0.5734,0.6387,0.6606,0.6136,0.0,0.0,0.0,0.0,0.0,0.0,0.0,0.0,0.0,0.0,0.0,0.0,0.0,0.0,0.0,0.0,0.0,0.0,0.0,0.0,0.0,0.0,0.0,0.0,0.0,0.0,0.0,0.0,0.0,0.0,0.0,0.0,0.0,0.0,0.0,0.0,0.0,0.0,0.0,0.0,0.0,0.0,0.0,0.0,0.0,0.0,0.0,0.0,0.0,0.0,0.0,0.0,0.0,0.0,0.0,0.0,0.0,0.0,0.0,0.0,0.0,0.0,0.0,0.0,0.0,0.0,0.0,0.0,0.0,0.0,0.0,0.0,0.0,0.0,0.0,0.0,0.0,0.0,0.0,0.0,0.0,0.0,0.0,0.0,0.0,0.0,0.0,0.0,0.0,0.0,0.0,0.0,0.0,0.3235,0.5084,0.5049,0.5556,0.6062,0.6532,0.7257,0.7402,0.6749,0.6423,0.6496,0.6604,0.6787,0.6534,0.6351,0.6351,0.6132,0.4611,0.3778,0.0,0.4614,0.4071]},{"header":{"parameterUnit":"m.s-1","parameterCategory":1,"la1":31.0,"la2":29.5877,"lo1":-88.7671,"lo2":-86.6584,"dy":0.0162,"dx":0.0185,"nx":115,"ny":88,"refTime":"2023-03-26T18:00:00:Z","depth":0,"parameterNumber":3,"parameterNumberName":"V-component_of_WINDS"},"data":[0.0,0.0,0.0,0.0,0.0,0.0,0.0,0.0,0.0,0.0,0.0,0.0,0.0,0.0,0.0,0.0,0.0,0.0,0.0,0.0,0.0,0.0,0.0,0.0,0.0,0.0,0.0,0.0,0.0,0.0,0.0,0.0,0.0,0.0,0.0,0.0,0.0,0.0,0.0,0.0,0.0,0.0,0.0,0.0,0.0,0.0,0.0,0.0,0.0,0.0,0.0,0.0,0.0,0.0,0.0,0.0,0.0,0.0,0.0,0.0,0.0,0.0,0.0,0.0,0.0,0.0,0.0,0.0,0.0,0.0,0.0,0.0,0.0,0.0,0.0,0.0,0.0,0.0,0.0,0.0,0.0,0.0,0.0,0.0,0.0,0.0,0.0,0.0,0.0,0.0,0.0,0.0,0.0,0.0,0.0,0.0,0.0,0.0,0.0,0.0,0.0,0.0,0.0,0.0,0.0,0.0,0.0,0.0,0.0,0.0,0.0,0.0,0.0,0.0,0.0,0.0,0.0,0.0,0.0,0.0,0.0,0.0,0.0,0.0,0.0,0.0,0.0,0.0,0.0,0.0,0.0,0.0,0.0,0.0,0.0,0.0,0.0,0.0,0.0,0.0,0.0,0.0,0.0,0.0,0.0,0.0,0.0,0.0,0.0,0.0,0.0,0.0,0.0,0.0,0.0,0.0,0.0,0.0,0.0,0.0,0.0,0.0,0.0,0.0,0.0,0.0,0.0,0.0,0.0,0.0,0.0,0.0,0.0,0.0,0.0,0.0,0.0,0.0,0.0,0.0,0.0,0.0,0.0,0.0,0.0,0.0,0.0,0.0,0.0,0.0,0.0,0.0,0.0,0.0,0.0,0.0,0.0,0.0,0.0,0.0,0.0,0.0,0.0,0.0,0.0,0.0,0.0,0.0,0.0,0.0,0.0,0.0,0.0,0.0,0.0,0.0,0.0,0.0,0.0,0.0,0.0,0.0,0.0,0.0,0.0,0.0,0.0,0.0,0.0,0.0,0.0,0.0,0.0,0.0,0.0,0.0,0.0,0.0,0.0,0.0,0.0,0.0,0.0,0.0,0.0,0.0,0.0,0.0,0.0,0.0,0.0,0.0,0.0,0.0,0.0,0.0,0.0,0.0,0.0,0.0,0.0,0.0,0.0,0.0,0.0,0.0,0.0,0.0,0.0,0.0,0.0,0.0,0.0,0.0,0.0,0.0,0.0,0.0,0.0,0.0,0.0,0.0,0.0,0.0,0.0,0.0,0.0,0.0,0.0,0.0,0.0,0.0,0.0,0.0,0.0,0.0,0.0,0.0,0.0,0.0,0.0,0.0,0.0,0.0,0.0,0.0,0.0,0.0,0.0,0.0,0.0,0.0,0.0,0.0,0.0,0.0,0.0,0.0,0.0,0.0,0.0,0.0,0.0,0.0,0.0,0.0,0.0,0.0,0.0,0.0,0.0,0.0,0.0,0.0,0.0,0.0,0.0,0.0,0.0,0.0,0.0,0.0,0.0,0.0,0.0,0.0,0.0,0.0,0.0,0.0,0.0,0.0,0.0,0.0,0.0,0.0,0.0,0.0,0.0,0.0,0.0,0.0,0.0,0.0,0.0,0.0,0.0,0.0,0.0,0.0,0.0,0.0,0.0,0.0,0.0,0.0,0.0,0.0,0.0,0.0,0.0,0.0,0.0,0.0,0.0,0.0,0.0,0.0,0.0,0.0,0.0,0.0,0.0,0.0,0.0,0.0,0.0,0.0,0.0,0.0,0.0,0.0,0.0,0.0,0.0,0.0,0.0,0.0,0.0,0.0,0.0,0.0,0.0,0.0,0.0,0.0,0.0,0.0,0.0,0.0,0.0,0.0,0.0,0.0,0.0,0.0,0.0,0.0,0.0,0.0,0.0,0.0,0.0,0.0,0.0,0.0,0.0,0.0,0.0,0.0,0.0,0.0,0.0,0.0,0.0,0.0,0.0,0.0,0.0,0.0,0.0,0.0,0.0,0.0,0.0,0.0,0.0,0.0,0.0,0.0,0.0,0.0,0.0,0.0,0.0,0.0,0.0,0.0,0.0,0.0,0.0,0.0,0.0,0.0,0.0,0.0,0.0,0.0,0.0,0.0,0.0,0.0,0.0,0.0,0.0,0.0,0.0,0.0,0.0,0.0,0.0,0.0,0.0,0.0,0.0,0.0,0.0,0.0,0.0,0.0,0.0,0.0,0.0,0.0,0.0,0.0,0.0,0.0,0.0,0.0,0.0,0.0,0.0,0.0,0.0,0.0,0.0,0.0,0.0,0.0,0.0,0.0,0.0,0.0,0.0,0.0,0.0,0.0,0.0,0.0,0.0,0.0,0.0,0.0,0.0,0.0,0.0,0.0,0.0,0.0,0.0,0.0,0.0,0.0,0.0,0.0,0.0,0.0,0.0,0.0,0.0,0.0,0.0,0.0,0.0,0.0,0.0,0.0,0.0,0.0,0.0,0.0,0.0,0.0,0.0,0.0,0.0,0.0,0.0,0.0,0.0,0.0,0.0,0.0,0.0,0.0,0.0,0.0,0.0,0.0,0.0,0.0,0.0,0.0,0.0,0.0,0.0,0.0,0.0,0.0,0.0,0.0,0.0,0.0,0.0,0.0,0.0,0.0,0.0,0.0,0.0,0.0,0.0,0.0,0.0,0.0,0.0,0.0,0.0,0.0,0.0,0.0,0.0,0.0,0.0,0.0,0.0,0.0,0.0,0.0,0.0,0.0,0.0,0.0,0.0,0.0,0.0,0.0,0.0,0.0,0.0,0.0,0.0,0.0,0.0,0.0,0.0,0.0,0.0,0.0,0.0,0.0,0.0,0.0,0.0,0.0,0.0,0.0,0.0,0.0,0.0,0.0,0.0,0.0,0.0,0.0,0.0,0.0,0.0,0.0,0.0,0.0,0.0,0.0,0.0,0.0,0.0,0.0,0.0,0.0,0.0,0.0,0.0,0.0,0.0,0.0,0.0,0.0,0.0,0.0,0.0,0.0,0.0,0.0,0.0,0.0,0.0,0.0,0.0,0.0,0.0,0.0,0.0,0.0,0.0,0.0,0.0,0.0,0.0,0.0,0.0,0.0,0.0,0.0,0.0,0.0,0.0,0.0,0.0,0.0,0.0,0.0,0.0,0.0,0.0,0.0,0.0,0.0,0.0,0.0,0.0,0.0,0.0,0.0,0.0,0.0,0.0,0.0,0.0,0.0,0.0,0.0,0.0,0.0,0.0,0.0,0.0,0.0,0.0,0.0,0.0,0.0,0.0,0.0,0.0,0.0,0.0,0.0,0.0,0.0,0.0,0.0,0.0,0.0,0.0,0.0,0.0,0.0,0.0,0.0,0.0,0.0,0.0,0.0,0.0,0.0,0.0,0.0,0.0,0.0,0.0,0.0,0.0,0.0,0.0,0.0,0.0,0.0,0.0,0.0,0.0,0.0,0.0,0.0,0.0,0.0,0.0,0.0,0.0,0.0,0.0,0.0,0.0,0.0,0.0,0.0,0.0,0.0,0.0,0.0,0.0,0.0,0.0,0.0,0.0,0.0,0.0,0.0,0.0,0.0,0.0,0.0,0.0,0.0,0.0,0.0,0.0,0.0,0.0,0.0,0.0,0.0,0.0,0.0,0.0,0.0,0.0,0.0,0.0,0.0,0.0,0.0,0.0,0.0,0.0,0.0,0.0,0.0,0.0,0.0,0.0,0.0,0.0,0.0,0.0,0.0,0.0,0.0,0.0,0.0,0.0,0.0,0.0,0.0,0.0,0.0,0.0,0.0,0.0,0.0,0.0,0.0,0.0,0.0,0.0,0.0,0.0,0.0,0.0,0.0,0.0,0.0,0.0,0.0,0.0,0.0,0.0,0.0,0.0,0.0,0.0,0.0,0.0,0.0,0.0,0.0,0.0,0.0,0.0,0.0,0.0,0.0,0.0,0.0,0.0,0.0,0.0,0.0,0.0,0.0,0.0,0.0,0.0,0.0,0.0,0.0,0.0,0.0,0.0,0.0,0.0,0.0,0.0,0.0,0.0,0.0,0.0,0.0,0.0,0.0,0.0,0.0,0.0,0.0,0.0,0.0,0.0,0.0,0.0,0.0,0.0,0.0,0.0,0.0,0.0,0.0,0.0,0.0,0.0,0.0,0.0,0.0,0.0,0.0,0.0,0.0,0.0,0.0,0.0,0.0,0.0,0.0,0.0,0.0,0.0,0.0,0.0,0.0,0.0,0.0,0.0,0.0,0.0,0.0,0.0,0.0,3.5958,0.0,0.0,0.0,0.0,0.0,0.0,0.0,0.0,0.0,0.0,0.0,0.0,0.0,0.0,0.0,0.0,0.0,0.0,0.0,0.0,0.0,0.0,0.0,0.0,0.0,0.0,0.0,0.0,0.0,0.0,0.0,0.0,0.0,0.0,0.0,0.0,0.0,0.0,0.0,0.0,0.0,0.0,0.0,0.0,0.0,0.0,0.0,0.0,0.0,0.0,0.0,0.0,0.0,0.0,0.0,0.0,0.0,0.0,0.0,0.0,0.0,0.0,0.0,0.0,0.0,0.0,0.0,0.0,0.0,0.0,0.0,0.0,0.0,0.0,0.0,0.0,0.0,0.0,0.0,0.0,0.0,0.0,0.0,0.0,0.0,0.0,0.0,0.0,0.0,0.0,0.0,0.0,0.0,0.0,0.0,0.0,0.0,0.0,0.0,0.0,0.0,0.0,0.0,0.0,0.0,0.0,0.0,0.0,0.0,0.0,3.5944,3.5949,3.596,3.5972,3.6003,0.0,0.0,0.0,0.0,0.0,0.0,0.0,0.0,0.0,0.0,0.0,0.0,0.0,0.0,0.0,0.0,0.0,0.0,0.0,0.0,0.0,0.0,0.0,0.0,0.0,0.0,0.0,0.0,0.0,0.0,0.0,0.0,0.0,0.0,0.0,0.0,0.0,0.0,0.0,0.0,0.0,0.0,0.0,0.0,0.0,0.0,0.0,0.0,0.0,0.0,0.0,0.0,0.0,0.0,0.0,0.0,0.0,0.0,0.0,0.0,0.0,0.0,0.0,0.0,0.0,0.0,0.0,0.0,0.0,0.0,0.0,0.0,0.0,0.0,0.0,0.0,0.0,0.0,0.0,0.0,0.0,0.0,0.0,0.0,0.0,0.0,0.0,0.0,0.0,0.0,0.0,0.0,0.0,0.0,0.0,0.0,0.0,0.0,0.0,0.0,0.0,0.0,0.0,0.0,0.0,0.0,0.0,0.0,0.0,0.0,0.0,0.0,3.6003,3.6009,3.6012,0.0,0.0,0.0,0.0,0.0,0.0,0.0,0.0,0.0,0.0,0.0,0.0,0.0,0.0,0.0,0.0,0.0,0.0,0.0,0.0,0.0,0.0,0.0,0.0,0.0,0.0,0.0,0.0,0.0,0.0,0.0,0.0,0.0,0.0,0.0,0.0,0.0,0.0,0.0,0.0,0.0,0.0,0.0,0.0,0.0,0.0,0.0,0.0,0.0,0.0,0.0,0.0,0.0,0.0,0.0,0.0,0.0,0.0,0.0,0.0,0.0,0.0,0.0,0.0,0.0,0.0,0.0,0.0,0.0,0.0,0.0,0.0,0.0,0.0,0.0,0.0,0.0,0.0,0.0,0.0,0.0,0.0,0.0,0.0,0.0,0.0,0.0,0.0,0.0,0.0,0.0,0.0,0.0,0.0,0.0,0.0,0.0,0.0,0.0,0.0,0.0,0.0,0.0,0.0,0.0,0.0,0.0,0.0,0.0,0.0,3.6004,3.6003,3.6008,0.0,3.6015,0.0,0.0,0.0,0.0,0.0,0.0,0.0,0.0,0.0,0.0,0.0,0.0,0.0,0.0,0.0,0.0,0.0,0.0,0.0,0.0,0.0,0.0,0.0,0.0,0.0,0.0,0.0,0.0,0.0,0.0,0.0,0.0,0.0,0.0,0.0,0.0,0.0,0.0,0.0,0.0,0.0,0.0,0.0,0.0,0.0,0.0,0.0,0.0,0.0,0.0,0.0,0.0,0.0,0.0,0.0,0.0,0.0,0.0,0.0,0.0,0.0,0.0,0.0,0.0,0.0,0.0,0.0,0.0,0.0,0.0,0.0,0.0,0.0,0.0,0.0,0.0,0.0,0.0,0.0,0.0,0.0,0.0,0.0,0.0,0.0,0.0,0.0,0.0,0.0,0.0,0.0,0.0,0.0,0.0,0.0,0.0,0.0,0.0,0.0,0.0,0.0,0.0,0.0,0.0,0.0,0.0,0.0,0.0,0.0,0.0,3.6008,3.6008,3.601,3.6013,0.0,0.0,0.0,0.0,0.0,0.0,0.0,0.0,0.0,0.0,0.0,0.0,0.0,0.0,0.0,0.0,0.0,0.0,0.0,0.0,0.0,0.0,0.0,0.0,0.0,0.0,0.0,0.0,0.0,0.0,0.0,0.0,0.0,0.0,0.0,0.0,0.0,0.0,0.0,0.0,0.0,0.0,0.0,0.0,0.0,0.0,0.0,0.0,0.0,0.0,0.0,0.0,0.0,0.0,0.0,0.0,0.0,0.0,0.0,0.0,0.0,0.0,0.0,0.0,0.0,0.0,0.0,0.0,0.0,0.0,0.0,0.0,0.0,0.0,0.0,0.0,0.0,0.0,0.0,0.0,0.0,0.0,0.0,0.0,0.0,0.0,0.0,0.0,0.0,0.0,0.0,0.0,0.0,0.0,0.0,0.0,0.0,0.0,0.0,0.0,0.0,0.0,0.0,0.0,0.0,0.0,0.0,0.0,0.0,0.0,3.601,3.6007,3.6007,3.6007,3.601,3.6014,0.0,0.0,0.0,0.0,0.0,0.0,0.0,0.0,0.0,0.0,0.0,0.0,0.0,0.0,0.0,0.0,0.0,0.0,0.0,0.0,0.0,0.0,0.0,0.0,0.0,0.0,0.0,0.0,0.0,0.0,0.0,0.0,0.0,0.0,0.0,0.0,0.0,0.0,0.0,0.0,0.0,0.0,0.0,0.0,0.0,0.0,0.0,0.0,0.0,0.0,0.0,0.0,0.0,0.0,0.0,0.0,0.0,0.0,0.0,0.0,0.0,0.0,0.0,0.0,0.0,0.0,0.0,0.0,0.0,0.0,0.0,0.0,0.0,0.0,0.0,0.0,0.0,0.0,0.0,0.0,0.0,0.0,0.0,0.0,0.0,0.0,0.0,0.0,0.0,0.0,0.0,0.0,0.0,0.0,0.0,0.0,0.0,0.0,0.0,0.0,0.0,0.0,0.0,0.0,0.0,0.0,0.0,0.0,3.6011,3.6021,3.6012,3.6012,3.6013,3.6002,0.0,0.0,0.0,0.0,0.0,0.0,0.0,0.0,0.0,0.0,0.0,0.0,0.0,0.0,0.0,0.0,0.0,0.0,0.0,0.0,0.0,0.0,0.0,0.0,0.0,0.0,0.0,0.0,0.0,0.0,0.0,0.0,0.0,0.0,0.0,0.0,0.0,0.0,0.0,0.0,0.0,0.0,0.0,0.0,0.0,0.0,0.0,0.0,0.0,0.0,0.0,0.0,0.0,0.0,0.0,0.0,0.0,0.0,0.0,0.0,0.0,0.0,0.0,0.0,0.0,0.0,0.0,0.0,0.0,0.0,0.0,0.0,0.0,0.0,0.0,0.0,0.0,0.0,0.0,0.0,0.0,0.0,0.0,0.0,0.0,0.0,0.0,0.0,0.0,0.0,0.0,0.0,0.0,0.0,0.0,0.0,0.0,0.0,0.0,0.0,0.0,0.0,0.0,0.0,0.0,0.0,0.0,0.0,0.0,3.602,3.6005,3.6015,3.6016,3.602,3.6011,0.0,0.0,0.0,0.0,0.0,0.0,0.0,0.0,0.0,0.0,0.0,0.0,0.0,0.0,0.0,0.0,0.0,0.0,0.0,0.0,0.0,0.0,0.0,0.0,0.0,0.0,0.0,0.0,0.0,0.0,0.0,0.0,0.0,0.0,0.0,0.0,0.0,0.0,0.0,0.0,0.0,0.0,0.0,0.0,0.0,0.0,0.0,0.0,0.0,0.0,0.0,0.0,0.0,0.0,0.0,0.0,0.0,0.0,0.0,0.0,0.0,0.0,0.0,0.0,0.0,0.0,0.0,0.0,0.0,0.0,0.0,0.0,0.0,0.0,0.0,0.0,0.0,0.0,0.0,0.0,0.0,0.0,0.0,0.0,0.0,0.0,0.0,0.0,0.0,0.0,0.0,0.0,0.0,0.0,0.0,0.0,0.0,0.0,0.0,0.0,0.0,0.0,0.0,0.0,0.0,0.0,0.0,0.0,0.0,3.5977,0.0,3.5948,3.5969,3.596,3.5973,0.0,0.0,0.0,0.0,0.0,0.0,0.0,0.0,0.0,0.0,0.0,0.0,0.0,0.0,0.0,0.0,0.0,0.0,0.0,0.0,0.0,0.0,0.0,0.0,0.0,0.0,0.0,0.0,0.0,0.0,0.0,0.0,0.0,0.0,0.0,0.0,0.0,0.0,0.0,0.0,0.0,0.0,0.0,0.0,0.0,0.0,0.0,0.0,0.0,0.0,0.0,0.0,0.0,0.0,0.0,0.0,0.0,0.0,0.0,0.0,0.0,0.0,0.0,0.0,0.0,0.0,0.0,0.0,0.0,0.0,0.0,0.0,0.0,0.0,0.0,0.0,0.0,0.0,0.0,0.0,0.0,0.0,0.0,0.0,0.0,0.0,0.0,0.0,0.0,0.0,0.0,0.0,0.0,0.0,0.0,0.0,0.0,0.0,0.0,0.0,0.0,0.0,0.0,0.0,0.0,0.0,0.0,0.0,3.5975,3.5911,3.5894,3.5906,3.5888,3.5903,3.5928,0.0,0.0,0.0,0.0,0.0,0.0,0.0,0.0,0.0,0.0,0.0,0.0,0.0,0.0,0.0,0.0,0.0,0.0,0.0,0.0,0.0,0.0,0.0,0.0,0.0,0.0,0.0,0.0,0.0,0.0,0.0,0.0,0.0,0.0,0.0,0.0,0.0,0.0,0.0,0.0,0.0,0.0,0.0,0.0,0.0,0.0,0.0,0.0,0.0,0.0,0.0,0.0,0.0,0.0,0.0,0.0,0.0,0.0,0.0,0.0,0.0,0.0,0.0,0.0,0.0,0.0,0.0,0.0,0.0,0.0,0.0,0.0,0.0,0.0,0.0,0.0,0.0,0.0,0.0,0.0,0.0,0.0,0.0,0.0,0.0,0.0,0.0,0.0,0.0,0.0,0.0,0.0,0.0,0.0,0.0,0.0,0.0,0.0,0.0,0.0,0.0,0.0,0.0,0.0,0.0,0.0,0.0,0.0,0.0,3.582,3.5826,3.5836,3.5833,3.583,3.5855,0.0,0.0,0.0,0.0,0.0,0.0,0.0,0.0,0.0,0.0,0.0,0.0,0.0,0.0,0.0,0.0,0.0,0.0,0.0,0.0,0.0,0.0,0.0,0.0,0.0,0.0,0.0,0.0,0.0,0.0,0.0,0.0,0.0,0.0,0.0,0.0,0.0,0.0,0.0,0.0,0.0,0.0,0.0,0.0,0.0,0.0,0.0,0.0,0.0,0.0,0.0,0.0,0.0,0.0,0.0,0.0,0.0,0.0,0.0,0.0,0.0,0.0,0.0,0.0,0.0,0.0,0.0,0.0,0.0,0.0,0.0,0.0,0.0,0.0,0.0,0.0,0.0,0.0,0.0,0.0,0.0,0.0,0.0,0.0,0.0,0.0,0.0,0.0,0.0,0.0,0.0,0.0,0.0,0.0,0.0,0.0,0.0,0.0,0.0,0.0,0.0,0.0,0.0,0.0,0.0,0.0,0.0,0.0,0.0,3.5754,3.608,3.6403,3.6695,3.6411,3.6275,3.6336,0.0,0.0,0.0,0.0,0.0,0.0,0.0,0.0,0.0,0.0,0.0,0.0,0.0,0.0,0.0,0.0,0.0,0.0,0.0,0.0,0.0,0.0,0.0,0.0,0.0,0.0,0.0,0.0,0.0,0.0,0.0,0.0,0.0,0.0,0.0,0.0,0.0,0.0,0.0,0.0,0.0,0.0,0.0,0.0,0.0,0.0,0.0,0.0,0.0,0.0,0.0,0.0,0.0,0.0,0.0,0.0,0.0,0.0,0.0,0.0,0.0,0.0,0.0,0.0,0.0,0.0,0.0,0.0,0.0,0.0,0.0,0.0,0.0,0.0,0.0,0.0,0.0,0.0,0.0,0.0,0.0,0.0,0.0,0.0,0.0,0.0,0.0,0.0,0.0,0.0,0.0,0.0,0.0,0.0,0.0,0.0,0.0,0.0,0.0,0.0,0.0,0.0,0.0,0.0,0.0,0.0,0.0,0.0,3.5704,3.6574,3.7379,3.8059,3.7354,3.7027,0.0,0.0,0.0,0.0,0.0,0.0,0.0,0.0,0.0,0.0,0.0,0.0,0.0,0.0,0.0,0.0,0.0,0.0,0.0,0.0,0.0,0.0,0.0,0.0,0.0,0.0,0.0,0.0,0.0,0.0,0.0,0.0,0.0,0.0,0.0,0.0,0.0,0.0,0.0,0.0,0.0,0.0,0.0,0.0,0.0,0.0,0.0,0.0,0.0,0.0,0.0,0.0,0.0,0.0,0.0,0.0,0.0,0.0,0.0,0.0,0.0,0.0,0.0,0.0,0.0,0.0,0.0,0.0,0.0,0.0,0.0,0.0,0.0,0.0,0.0,0.0,0.0,0.0,0.0,0.0,0.0,0.0,0.0,0.0,0.0,0.0,0.0,0.0,0.0,0.0,0.0,0.0,0.0,0.0,0.0,0.0,0.0,0.0,0.0,0.0,0.0,0.0,0.0,0.0,0.0,0.0,0.0,0.0,0.0,3.6565,3.7327,3.7578,3.7247,3.7033,3.6951,0.0,0.0,0.0,0.0,0.0,0.0,0.0,0.0,0.0,0.0,0.0,0.0,0.0,0.0,0.0,0.0,0.0,0.0,0.0,0.0,0.0,0.0,0.0,0.0,0.0,0.0,0.0,0.0,0.0,0.0,0.0,0.0,0.0,0.0,0.0,0.0,0.0,0.0,0.0,0.0,0.0,0.0,0.0,0.0,0.0,0.0,0.0,0.0,0.0,0.0,0.0,0.0,0.0,0.0,0.0,0.0,0.0,0.0,0.0,0.0,0.0,0.0,0.0,0.0,0.0,0.0,0.0,0.0,0.0,0.0,0.0,0.0,0.0,0.0,0.0,0.0,0.0,0.0,0.0,0.0,0.0,0.0,0.0,0.0,0.0,0.0,0.0,0.0,0.0,0.0,0.0,0.0,0.0,0.0,0.0,0.0,0.0,0.0,0.0,0.0,0.0,0.0,0.0,0.0,0.0,0.0,0.0,0.0,3.6248,3.6375,3.7789,3.8176,3.7392,3.7761,3.7829,0.0,0.0,0.0,0.0,0.0,0.0,0.0,0.0,0.0,0.0,0.0,0.0,0.0,0.0,0.0,0.0,0.0,0.0,0.0,0.0,0.0,0.0,0.0,0.0,0.0,0.0,0.0,0.0,0.0,0.0,0.0,0.0,0.0,0.0,0.0,0.0,0.0,0.0,0.0,0.0,0.0,0.0,0.0,0.0,0.0,0.0,0.0,0.0,0.0,0.0,0.0,0.0,0.0,0.0,0.0,0.0,0.0,0.0,0.0,0.0,0.0,0.0,0.0,0.0,0.0,0.0,0.0,0.0,0.0,0.0,0.0,0.0,0.0,0.0,0.0,0.0,0.0,0.0,0.0,0.0,0.0,0.0,0.0,0.0,0.0,0.0,0.0,0.0,0.0,0.0,0.0,0.0,0.0,0.0,0.0,0.0,0.0,0.0,0.0,0.0,0.0,0.0,0.0,0.0,0.0,0.0,0.0,0.0,3.6396,3.563,3.7953,3.8812,3.8082,3.8916,3.9054,0.0,0.0,0.0,0.0,0.0,0.0,0.0,0.0,0.0,0.0,0.0,0.0,0.0,0.0,0.0,0.0,0.0,0.0,0.0,0.0,0.0,0.0,0.0,0.0,0.0,0.0,0.0,0.0,0.0,0.0,0.0,0.0,0.0,0.0,0.0,0.0,0.0,0.0,0.0,0.0,0.0,0.0,0.0,0.0,0.0,0.0,0.0,0.0,0.0,0.0,0.0,0.0,0.0,0.0,0.0,0.0,0.0,0.0,0.0,0.0,0.0,0.0,0.0,0.0,0.0,0.0,0.0,0.0,0.0,0.0,0.0,0.0,0.0,0.0,0.0,0.0,0.0,0.0,0.0,0.0,0.0,0.0,0.0,0.0,0.0,0.0,0.0,0.0,0.0,0.0,0.0,0.0,0.0,0.0,0.0,0.0,0.0,0.0,0.0,0.0,0.0,0.0,0.0,0.0,0.0,0.0,0.0,0.0,3.5826,3.5589,3.7484,3.8414,3.8175,3.8981,3.9035,0.0,0.0,0.0,0.0,0.0,0.0,0.0,0.0,0.0,0.0,0.0,0.0,0.0,0.0,0.0,0.0,0.0,0.0,0.0,0.0,0.0,0.0,0.0,0.0,0.0,0.0,0.0,0.0,0.0,0.0,0.0,0.0,0.0,0.0,0.0,0.0,0.0,0.0,0.0,0.0,0.0,0.0,0.0,0.0,0.0,0.0,0.0,0.0,3.635,0.0,0.0,0.0,0.0,0.0,0.0,0.0,0.0,0.0,0.0,0.0,0.0,0.0,0.0,0.0,0.0,0.0,0.0,0.0,0.0,0.0,0.0,0.0,0.0,0.0,0.0,0.0,0.0,0.0,0.0,0.0,0.0,0.0,0.0,0.0,0.0,0.0,0.0,0.0,0.0,0.0,0.0,0.0,0.0,0.0,0.0,0.0,0.0,0.0,0.0,0.0,0.0,0.0,0.0,0.0,0.0,0.0,0.0,0.0,3.5585,3.5538,3.7248,3.8147,3.8144,3.9309,3.9431,0.0,0.0,0.0,0.0,0.0,0.0,0.0,0.0,0.0,0.0,0.0,0.0,0.0,0.0,0.0,0.0,0.0,0.0,0.0,0.0,0.0,0.0,0.0,0.0,0.0,0.0,0.0,0.0,0.0,0.0,0.0,0.0,0.0,0.0,0.0,0.0,0.0,0.0,0.0,0.0,0.0,0.0,0.0,0.0,0.0,0.0,0.0,0.0,0.0,0.0,0.0,0.0,0.0,0.0,0.0,0.0,0.0,0.0,0.0,0.0,0.0,0.0,0.0,0.0,0.0,0.0,0.0,0.0,0.0,0.0,0.0,0.0,0.0,0.0,0.0,0.0,0.0,0.0,0.0,0.0,0.0,0.0,0.0,0.0,0.0,0.0,0.0,0.0,0.0,0.0,0.0,0.0,0.0,0.0,0.0,0.0,0.0,0.0,0.0,0.0,0.0,0.0,0.0,0.0,0.0,0.0,0.0,3.5671,3.5705,3.5753,3.7369,3.8236,3.825,3.9782,3.9895,3.8376,0.0,0.0,0.0,0.0,0.0,0.0,0.0,0.0,0.0,0.0,0.0,0.0,0.0,0.0,0.0,0.0,0.0,0.0,0.0,0.0,0.0,0.0,0.0,0.0,0.0,0.0,0.0,0.0,0.0,0.0,0.0,0.0,0.0,0.0,0.0,0.0,0.0,0.0,3.567,3.5596,0.0,0.0,0.0,0.0,0.0,0.0,0.0,0.0,3.6119,0.0,0.0,0.0,0.0,0.0,0.0,0.0,0.0,0.0,0.0,0.0,0.0,0.0,0.0,0.0,0.0,0.0,0.0,0.0,0.0,0.0,0.0,0.0,0.0,0.0,0.0,0.0,0.0,0.0,0.0,0.0,0.0,0.0,0.0,0.0,0.0,0.0,0.0,0.0,0.0,0.0,0.0,0.0,0.0,0.0,0.0,0.0,0.0,0.0,0.0,0.0,0.0,0.0,0.0,0.0,0.0,3.5613,3.6312,3.6626,3.6524,3.836,3.9275,3.9215,4.0197,3.9984,3.8416,0.0,0.0,0.0,0.0,0.0,0.0,0.0,0.0,0.0,0.0,0.0,0.0,0.0,0.0,0.0,0.0,0.0,0.0,0.0,0.0,0.0,0.0,0.0,0.0,0.0,0.0,0.0,0.0,0.0,0.0,0.0,0.0,0.0,0.0,0.0,0.0,0.0,0.0,0.0,3.5927,3.5788,0.0,0.0,0.0,0.0,0.0,0.0,0.0,0.0,3.6542,0.0,0.0,0.0,0.0,0.0,0.0,0.0,0.0,0.0,0.0,0.0,0.0,0.0,0.0,0.0,0.0,0.0,0.0,0.0,0.0,0.0,0.0,0.0,0.0,0.0,0.0,0.0,0.0,0.0,0.0,0.0,0.0,0.0,0.0,0.0,0.0,0.0,0.0,0.0,0.0,0.0,0.0,0.0,0.0,0.0,0.0,0.0,0.0,0.0,0.0,0.0,0.0,0.0,0.0,0.0,3.6228,3.6597,3.6993,3.7376,3.8714,3.9417,3.9387,4.0175,3.9856,0.0,0.0,0.0,0.0,0.0,0.0,0.0,0.0,0.0,0.0,0.0,0.0,0.0,0.0,0.0,0.0,0.0,0.0,0.0,0.0,0.0,0.0,0.0,0.0,0.0,0.0,0.0,0.0,0.0,0.0,0.0,0.0,0.0,0.0,0.0,0.0,0.0,0.0,0.0,0.0,3.6023,3.5792,3.6596,0.0,0.0,0.0,0.0,0.0,0.0,3.768,3.7369,0.0,0.0,0.0,0.0,0.0,0.0,0.0,0.0,0.0,0.0,0.0,0.0,0.0,0.0,0.0,0.0,0.0,0.0,0.0,0.0,0.0,0.0,0.0,0.0,0.0,0.0,0.0,0.0,0.0,0.0,0.0,0.0,0.0,0.0,0.0,0.0,0.0,0.0,0.0,0.0,0.0,0.0,0.0,0.0,0.0,0.0,0.0,0.0,0.0,0.0,0.0,0.0,0.0,0.0,0.0,3.7016,3.7324,3.7796,3.8507,3.9531,3.9973,3.9835,4.0435,4.0003,0.0,0.0,0.0,0.0,0.0,0.0,0.0,0.0,0.0,0.0,0.0,0.0,0.0,0.0,0.0,0.0,0.0,0.0,0.0,0.0,0.0,0.0,0.0,0.0,0.0,0.0,0.0,0.0,0.0,0.0,0.0,0.0,0.0,0.0,0.0,0.0,0.0,0.0,0.0,0.0,0.0,3.585,3.6811,3.6811,0.0,0.0,0.0,0.0,3.9207,3.87,0.0,0.0,0.0,0.0,0.0,0.0,0.0,0.0,0.0,0.0,0.0,0.0,0.0,0.0,0.0,0.0,0.0,0.0,0.0,0.0,0.0,0.0,0.0,0.0,0.0,0.0,0.0,0.0,0.0,0.0,0.0,0.0,0.0,0.0,0.0,0.0,0.0,0.0,0.0,0.0,0.0,0.0,0.0,0.0,0.0,0.0,0.0,0.0,0.0,0.0,0.0,0.0,0.0,0.0,0.0,0.0,3.7891,3.9319,4.0092,4.0281,4.1797,4.2277,4.1542,4.16,4.0904,0.0,0.0,0.0,0.0,0.0,0.0,0.0,0.0,0.0,0.0,0.0,0.0,0.0,0.0,0.0,0.0,0.0,0.0,0.0,0.0,0.0,0.0,0.0,0.0,0.0,0.0,0.0,0.0,0.0,0.0,0.0,0.0,0.0,0.0,0.0,0.0,0.0,0.0,0.0,0.0,0.0,3.6058,3.7623,3.7199,3.6981,0.0,0.0,3.9165,3.9281,3.9223,0.0,0.0,0.0,0.0,0.0,0.0,0.0,0.0,0.0,0.0,0.0,0.0,0.0,0.0,0.0,0.0,0.0,0.0,0.0,0.0,0.0,0.0,0.0,0.0,0.0,0.0,0.0,0.0,0.0,0.0,0.0,0.0,0.0,0.0,0.0,0.0,0.0,0.0,0.0,0.0,0.0,0.0,0.0,0.0,0.0,0.0,0.0,0.0,0.0,0.0,0.0,0.0,0.0,0.0,0.0,3.7944,3.8716,3.9453,4.0054,4.0496,4.1223,4.1454,4.1066,4.1066,4.0535,0.0,0.0,0.0,0.0,0.0,0.0,0.0,0.0,0.0,0.0,0.0,0.0,0.0,0.0,0.0,0.0,0.0,0.0,0.0,0.0,0.0,0.0,0.0,0.0,0.0,0.0,0.0,0.0,0.0,0.0,0.0,0.0,0.0,0.0,0.0,0.0,0.0,0.0,0.0,0.0,0.0,0.0,3.8488,3.8415,0.0,0.0,0.0,4.0165,4.0642,0.0,0.0,0.0,0.0,0.0,0.0,0.0,0.0,0.0,0.0,0.0,0.0,0.0,0.0,0.0,0.0,0.0,0.0,0.0,0.0,0.0,0.0,0.0,0.0,0.0,0.0,0.0,0.0,0.0,0.0,0.0,0.0,0.0,0.0,0.0,0.0,0.0,0.0,0.0,0.0,0.0,0.0,0.0,0.0,0.0,0.0,0.0,0.0,0.0,0.0,0.0,0.0,0.0,0.0,0.0,0.0,0.0,3.9591,3.9831,4.0204,4.0819,4.105,4.105,4.0839,4.0839,0.0,0.0,0.0,0.0,0.0,0.0,0.0,0.0,0.0,0.0,0.0,0.0,0.0,0.0,0.0,0.0,0.0,0.0,0.0,0.0,0.0,0.0,0.0,0.0,0.0,0.0,0.0,0.0,0.0,0.0,0.0,0.0,0.0,0.0,0.0,0.0,0.0,0.0,0.0,0.0,0.0,0.0,3.7661,3.9377,3.9611,3.9954,0.0,0.0,4.1454,4.2297,4.2254,4.1893,0.0,0.0,0.0,0.0,0.0,0.0,0.0,0.0,0.0,0.0,0.0,0.0,0.0,0.0,0.0,0.0,0.0,0.0,0.0,0.0,0.0,0.0,0.0,0.0,0.0,0.0,0.0,0.0,0.0,0.0,0.0,0.0,0.0,0.0,0.0,0.0,0.0,0.0,0.0,0.0,0.0,0.0,0.0,0.0,0.0,0.0,0.0,0.0,0.0,0.0,0.0,0.0,0.0,0.0,0.0,4.0423,4.1219,4.1619,4.1716,4.2508,4.2527,4.1754,4.1716,4.1312,0.0,0.0,0.0,0.0,0.0,0.0,0.0,0.0,0.0,0.0,0.0,0.0,0.0,0.0,0.0,0.0,0.0,0.0,0.0,0.0,0.0,0.0,0.0,0.0,0.0,0.0,0.0,0.0,0.0,0.0,0.0,0.0,0.0,0.0,0.0,0.0,0.0,0.0,0.0,0.0,0.0,3.8507,4.0189,4.0419,4.1035,0.0,0.0,4.3201,4.3993,4.3489,4.2989,4.2931,0.0,0.0,0.0,0.0,0.0,0.0,0.0,0.0,0.0,0.0,0.0,0.0,0.0,0.0,0.0,0.0,0.0,0.0,0.0,0.0,0.0,0.0,0.0,0.0,0.0,0.0,0.0,0.0,0.0,0.0,0.0,0.0,0.0,0.0,0.0,0.0,0.0,0.0,0.0,0.0,0.0,0.0,0.0,0.0,0.0,0.0,0.0,0.0,0.0,0.0,0.0,0.0,0.0,4.0253,4.0496,4.0839,4.1258,4.1754,4.1623,4.1589,4.1812,4.1296,4.0866,0.0,0.0,0.0,0.0,0.0,0.0,0.0,0.0,0.0,0.0,0.0,0.0,0.0,0.0,0.0,0.0,0.0,0.0,0.0,0.0,0.0,0.0,0.0,0.0,0.0,0.0,0.0,0.0,3.9746,4.0035,4.0035,0.0,0.0,0.0,0.0,0.0,0.0,0.0,0.0,0.0,0.0,3.9608,4.1801,4.1643,0.0,0.0,4.3431,4.3374,4.4182,4.4051,4.3682,4.3181,4.2547,0.0,0.0,0.0,0.0,0.0,0.0,0.0,0.0,0.0,0.0,0.0,0.0,0.0,0.0,0.0,0.0,0.0,0.0,0.0,0.0,0.0,0.0,0.0,0.0,0.0,0.0,0.0,0.0,0.0,0.0,0.0,0.0,0.0,0.0,0.0,0.0,0.0,0.0,0.0,0.0,0.0,0.0,0.0,0.0,0.0,0.0,0.0,0.0,0.0,0.0,0.0,0.0,4.055,4.0492,4.0492,4.08,4.1393,4.0819,4.08,4.1373,4.0819,4.0492,0.0,0.0,0.0,0.0,0.0,0.0,0.0,0.0,0.0,0.0,0.0,0.0,0.0,0.0,0.0,0.0,0.0,0.0,0.0,0.0,0.0,0.0,0.0,0.0,0.0,0.0,0.0,0.0,4.0165,4.0492,4.0492,0.0,0.0,0.0,0.0,0.0,0.0,0.0,0.0,0.0,0.0,4.1166,4.3162,4.2951,4.3047,4.4494,4.4224,4.4051,4.4609,4.4705,4.4417,4.3585,0.0,0.0,0.0,0.0,0.0,0.0,0.0,0.0,0.0,0.0,0.0,0.0,0.0,0.0,0.0,0.0,0.0,0.0,0.0,0.0,0.0,0.0,0.0,0.0,0.0,0.0,0.0,0.0,0.0,0.0,4.1269,0.0,0.0,0.0,0.0,0.0,0.0,0.0,0.0,0.0,0.0,0.0,0.0,0.0,0.0,0.0,0.0,0.0,0.0,0.0,0.0,0.0,0.0,4.0588,4.0512,4.0535,4.0554,4.0608,4.0535,4.0554,4.0593,4.0512,4.0496,4.05,0.0,0.0,0.0,0.0,0.0,0.0,0.0,0.0,0.0,0.0,0.0,0.0,0.0,0.0,0.0,0.0,0.0,0.0,0.0,0.0,0.0,0.0,0.0,0.0,0.0,0.0,4.0531,4.0477,4.0492,0.0,0.0,0.0,0.0,0.0,0.0,0.0,0.0,0.0,0.0,4.2485,4.3316,4.4128,4.4244,4.4513,4.5441,4.5552,4.5537,4.5552,4.5552,4.5287,0.0,0.0,0.0,0.0,0.0,0.0,0.0,0.0,0.0,0.0,0.0,0.0,0.0,0.0,0.0,0.0,0.0,0.0,0.0,0.0,0.0,0.0,0.0,0.0,0.0,0.0,0.0,4.2851,4.2871,0.0,0.0,0.0,0.0,0.0,0.0,0.0,0.0,0.0,0.0,0.0,4.3262,4.3281,0.0,0.0,0.0,0.0,0.0,0.0,0.0,0.0,0.0,0.0,0.0,0.0,4.0793,4.1316,4.1354,4.1893,4.2974,4.2512,4.2224,4.2224,4.1662,4.1142,4.0652,0.0,0.0,0.0,0.0,0.0,0.0,0.0,0.0,0.0,0.0,0.0,0.0,0.0,0.0,0.0,0.0,0.0,0.0,0.0,0.0,0.0,0.0,0.0,0.0,0.0,4.0819,0.0,0.0,0.0,0.0,0.0,0.0,0.0,0.0,0.0,0.0,0.0,4.2335,4.262,4.2931,4.3393,4.4205,4.4316,4.4821,0.0,0.0,0.0,0.0,0.0,0.0,0.0,0.0,0.0,0.0,0.0,0.0,0.0,0.0,4.3555,4.2435,4.2239,4.2243,4.2243,0.0,0.0,0.0,0.0,0.0,0.0,0.0,0.0,0.0,0.0,0.0,0.0,0.0,0.0,4.3711,0.0,4.3711,0.0,0.0,0.0,0.0,0.0,0.0,0.0,0.0,4.3848,4.3848,4.416,4.416,4.4118,0.0,4.4392,4.4498,0.0,0.0,0.0,0.0,0.0,0.0,0.0,0.0,4.1685,4.222,4.2254,4.2777,4.3797,4.3374,4.3085,4.3085,4.258,4.1928,4.1213,4.1288,4.1225,0.0,0.0,0.0,0.0,0.0,0.0,0.0,0.0,0.0,0.0,0.0,0.0,0.0,0.0,0.0,0.0,0.0,0.0,0.0,0.0,0.0,0.0,0.0,4.1089,0.0,0.0,0.0,0.0,0.0,0.0,0.0,0.0,0.0,4.2793,4.3162,4.3739,4.435,4.4432,4.472,4.5509,0.0,0.0,0.0,0.0,0.0,0.0,0.0,4.6278,4.572,4.5643,4.5605,4.5624,4.6086,4.6475,4.6475,0.0,0.0,4.4278,4.3974,4.3951,4.397,4.3974,4.422,4.5047,4.522,4.5451,0.0,0.0,0.0,0.0,0.0,0.0,0.0,0.0,4.3867,4.3906,0.0,4.3867,0.0,0.0,0.0,0.0,0.0,4.3828,0.0,0.0,4.4199,4.4238,4.5,4.5039,4.4971,4.4877,4.5657,4.5992,4.5803,4.4261,0.0,0.0,0.0,0.0,0.0,0.0,4.3104,4.3143,4.312,4.3143,4.322,4.322,4.3181,4.3147,4.3174,4.2854,4.2202,4.2208,4.1856,4.1055,4.188,0.0,0.0,0.0,0.0,0.0,0.0,0.0,0.0,0.0,0.0,0.0,0.0,0.0,0.0,0.0,0.0,0.0,0.0,0.0,0.0,4.1846,0.0,0.0,0.0,0.0,0.0,0.0,0.0,0.0,0.0,0.0,4.4701,4.4509,4.5047,4.6678,0.0,0.0,0.0,0.0,4.8139,4.8182,4.8202,4.8178,4.824,4.8221,4.8182,4.8163,0.0,0.0,4.8221,4.8235,4.8293,4.8259,4.8332,4.774,4.6229,4.5883,4.5768,4.5748,4.5821,4.6086,4.6855,4.7216,4.7408,4.748,0.0,0.0,0.0,0.0,4.6211,4.6484,4.6484,4.6484,4.6484,4.6445,4.582,0.0,0.0,0.0,0.0,0.0,0.0,4.5683,4.5898,4.5683,4.5622,4.5798,4.5779,4.571,4.5587,4.5839,4.5935,4.5867,4.5376,4.4798,4.4202,0.0,0.0,0.0,0.0,4.3374,4.3912,4.3955,4.4244,4.4878,4.4878,4.459,4.397,4.345,4.3136,4.3037,4.3133,4.3099,4.2907,4.3135,0.0,0.0,0.0,0.0,0.0,0.0,0.0,0.0,0.0,0.0,0.0,0.0,0.0,0.0,0.0,0.0,0.0,0.0,0.0,4.2701,4.2735,4.2831,0.0,0.0,0.0,0.0,0.0,0.0,0.0,0.0,0.0,4.8726,4.7778,4.7197,0.0,0.0,4.7832,4.8067,4.8625,4.926,4.9861,0.0,0.0,0.0,5.0337,4.9957,4.9957,5.0433,5.0813,5.0808,5.1332,5.1741,5.1702,5.1741,5.1563,5.1068,4.951,4.8418,4.8336,4.8803,4.9495,5.0255,5.0486,5.0697,5.0781,4.9238,4.791,4.7324,4.7383,4.7891,4.8125,4.8086,4.7734,4.7617,4.7558,4.668,4.6289,4.6289,4.6289,0.0,0.0,0.0,4.6899,4.7173,4.7173,4.7135,4.7035,4.7054,4.6986,4.6846,4.6846,4.6812,4.6791,4.6758,4.6484,4.59,0.0,0.0,4.4605,4.4605,4.5009,4.5778,4.5797,4.6067,4.6571,4.6278,4.586,4.5368,4.4629,4.4123,4.3925,4.3987,4.3891,4.3605,4.3944,4.397,0.0,0.0,0.0,0.0,0.0,0.0,0.0,0.0,0.0,0.0,0.0,4.2543,0.0,0.0,0.0,0.0,4.3585,4.359,4.357,4.3878,0.0,0.0,0.0,0.0,0.0,0.0,0.0,4.7091,4.8586,4.9986,5.101,5.0567,5.012,5.0101,4.9813,4.9736,5.0082,0.0,5.1087,5.163,5.1702,5.1856,5.2332,5.201,5.1592,5.1221,5.1563,5.1736,5.1486,5.1875,5.2183,5.2241,5.2467,5.2678,5.2678,5.1909,5.1298,5.0991,5.1337,5.1837,5.2332,5.2409,5.2505,5.3984,5.3711,5.0605,4.9316,4.9316,4.9297,4.9316,4.9219,4.8398,4.8008,4.793,4.7031,4.6562,4.6504,4.6484,0.0,4.7488,4.7501,4.7846,4.8485,4.8485,4.8497,4.8487,4.8467,4.8415,4.8274,4.8274,4.8203,4.8081,4.8146,4.8166,4.8048,4.6571,4.6201,4.6966,4.6985,4.7351,4.8086,4.8082,4.8082,4.8082,4.737,4.7024,4.7071,4.6369,4.5656,4.5011,4.4999,4.4573,4.3782,4.4526,4.4585,4.3787,0.0,0.0,0.0,0.0,0.0,0.0,0.0,0.0,0.0,0.0,0.0,0.0,0.0,0.0,0.0,4.4547,0.0,4.4509,4.5225,0.0,0.0,0.0,4.8221,4.8298,4.9086,4.9606,4.9606,0.0,0.0,5.2101,0.0,5.3294,5.3294,5.2558,5.2294,5.3087,5.3082,5.3197,5.3101,5.3159,5.3178,5.3101,5.3082,5.2813,5.2135,5.2,5.1813,5.1202,5.1053,5.0976,5.1111,5.1529,5.2058,5.2019,5.3197,5.4126,5.3197,5.328,5.339,5.3447,5.3467,5.3255,5.3984,5.3926,5.3125,5.2793,5.2793,5.2773,5.2773,5.2715,5.1855,5.1484,5.1387,4.9922,4.8906,4.8262,4.8169,4.8225,4.8385,4.8298,4.8338,4.8485,4.8485,4.843,4.8341,4.8357,4.8283,4.8152,4.8143,4.8136,4.8105,4.8134,4.811,4.8086,4.7697,4.7605,4.7798,4.7817,4.7908,4.8101,4.8101,4.8101,4.8105,4.7908,4.782,4.7835,4.7647,4.7511,4.7456,4.7446,4.7098,4.635,4.6511,4.6232,4.5395,4.5531,0.0,0.0,0.0,0.0,0.0,0.0,0.0,0.0,0.0,4.5282,4.5928,0.0,4.699,0.0,4.6644,4.6293,4.6293,4.6466,0.0,0.0,4.8971,4.9356,5.0014,5.0818,5.1313,5.1293,5.2217,5.314,5.3799,5.4068,5.4184,5.4184,5.3428,5.2967,5.3178,5.3197,5.3197,5.3197,5.3197,5.3197,5.3197,5.3197,5.314,5.2928,5.287,5.2818,5.2645,5.2606,5.2606,5.2606,5.2741,5.287,5.2851,5.3255,5.3428,5.3332,5.4203,5.5107,5.5107,5.5068,5.4838,5.5156,5.5156,5.5156,5.5156,5.5098,5.4336,5.3789,5.3359,5.25,5.1933,5.1504,5.0176,4.9315,4.8817,4.8735,4.8838,4.9077,4.9035,4.9168,4.9463,4.9482,4.9428,4.9364,4.9364,4.9324,4.9245,4.926,4.926,4.9264,4.926,4.926,4.924,4.926,4.924,4.924,4.8875,4.8856,4.926,4.926,4.926,4.924,4.8894,4.8682,4.8663,4.8298,4.8121,4.8206,4.8225,4.8029,4.763,4.7668,4.7475,4.6999,4.6984,4.6795,0.0,0.0,0.0,0.0,0.0,0.0,0.0,0.0,0.0,0.0,0.0,4.8101,0.0,4.7697,4.7601,4.7971,4.8355,4.9106,5.037,5.0875,5.1279,5.1765,5.2549,5.3044,5.3068,5.3799,5.4357,5.4491,5.4511,5.4337,5.3972,5.351,5.3197,5.3197,5.3197,5.3197,5.3197,5.3197,5.3197,5.3197,5.3197,5.3063,5.2717,5.262,5.2524,5.2164,5.2087,5.2087,5.2087,5.237,5.262,5.262,5.2967,5.3197,5.3313,5.3933,5.4511,5.4587,5.4593,5.4357,5.6367,5.6269,5.6269,5.625,5.6133,5.4629,5.3691,5.3144,5.2266,5.1367,5.0448,4.9687,4.9226,4.8999,4.8989,4.9274,4.9751,4.9761,5.0102,5.0673,5.0688,5.0688,5.0688,5.0688,5.0688,5.0688,5.0688,5.0688,5.0688,5.0688,5.0688,5.0688,5.0688,5.0688,5.0649,4.9957,4.9938,5.0668,5.0688,5.0688,5.0688,4.9957,4.9572,4.9534,4.8836,4.8428,4.8432,4.8432,4.8375,4.8264,4.8384,4.8395,4.8279,4.8343,4.8386,0.0,4.8327,0.0,0.0,0.0,0.0,0.0,0.0,0.0,0.0,4.8375,4.8389,4.8279,4.8279,4.8567,4.9336,5.0091,5.0894,5.1813,5.2582,5.3063,5.3197,5.3876,5.4318,5.4337,5.4953,5.5088,5.4414,5.4318,5.401,5.3222,5.2986,5.2876,5.2856,5.2895,5.2967,5.3024,5.2933,5.2683,5.2722,5.2779,5.2544,5.189,5.1755,5.1505,5.0919,5.0765,5.0745,5.0803,5.1318,5.1736,5.1755,5.2351,5.2818,5.2779,5.2837,5.2991,5.3255,5.3351,5.2909,5.5137,5.4512,5.4492,5.4492,5.4473,5.4121,5.4707,5.5801,5.4941,5.3609,5.2079,5.1903,5.1378,5.0652,5.0542,5.0526,5.0646,5.055,5.0577,5.0688,5.0688,5.0688,5.0688,5.0688,5.0688,5.0688,5.0688,5.0688,5.0688,5.0688,5.0688,5.0688,5.0688,5.0688,5.0688,0.0,0.0,0.0,5.0688,5.0688,5.0688,5.0534,5.0457,5.0457,5.0303,0.0,5.0207,5.0207,4.988,4.9207,4.9167,0.0,0.0,0.0,0.0,0.0,0.0,0.0,0.0,0.0,0.0,0.0,4.9803,4.9918,4.924,4.9803,4.9918,4.924,4.9144,4.9221,4.9394,4.9548,5.026,5.1697,5.2063,5.2404,5.3101,5.3376,5.3447,5.3453,5.3587,5.3645,5.3486,5.3453,5.3106,5.2294,5.2154,5.187,5.1303,5.1779,5.2115,5.212,5.1683,5.1246,5.1169,5.1246,5.1284,5.0938,5.0919,5.088,5.0745,5.0688,5.0688,5.0688,5.0822,5.0957,5.0957,5.1072,5.1284,5.1188,5.1207,5.1587,5.2895,5.3178,5.2947,5.4414,0.0,5.3984,5.3984,0.0,5.3984,5.4512,5.5254,5.4311,5.3123,5.1868,5.1847,5.1592,5.1154,5.105,5.0976,5.0897,5.0761,5.0688,5.0688,5.0688,5.0688,5.0688,5.0688,5.0688,5.0688,5.0688,5.0688,5.0688,5.0688,5.0688,5.0688,5.0688,5.0688,5.0688,5.0688,5.0688,5.0688,5.0688,5.0688,5.0688,5.0688,5.0688,5.0688,0.0,0.0,0.0,0.0,0.0,0.0,0.0,0.0,0.0,0.0,0.0,4.9432,4.9474,4.9455,4.9451,4.9855,5.0077,5.0058,5.0462,5.0515,5.0072,5.0457,5.0515,5.0091,5.0034,5.0053,5.0053,5.0394,5.0986,5.1788,5.2294,5.2736,5.3101,5.3197,5.3197,5.3197,5.3197,5.3044,5.2601,5.2563,5.2217,5.1471,5.1313,5.1202,5.0822,5.1053,5.1298,5.1318,5.1015,5.0707,5.0688,5.0688,5.0707,5.0688,5.0688,5.0688,5.0688,5.0688,5.0688,5.0688,5.0688,5.0688,5.0688,5.0688,5.0688,5.0688,5.0688,5.0919,5.1818,5.1952,5.1856,5.3672,5.3535,5.3555,5.3535,5.3555,5.3711,5.3847,5.3885,0.0,0.0,0.0,5.1202,5.1177,5.1178,5.1118,5.1014,5.0901,5.0786,5.0731,5.0688,5.0688,5.0688,5.0688,5.0688,5.0688,5.0688,5.0688,5.0688,5.0688,5.0688,5.0688,5.0688,5.0688,5.0688,5.0688,5.0688,5.0688,5.0688,5.0688,5.0688,5.0688,5.0688,5.0688,5.0688,5.0688,5.0688,5.0688,5.0688,5.0688,5.0688,5.0688,5.0688,5.0688,5.0688,5.0688,5.0688,5.0688,5.0688,5.0688,5.0688,5.0688,5.0688,5.0688,5.0688,5.0688,5.0688,5.0688,5.0688,5.0688,5.0688,5.0707,5.1279,5.1697,5.1697,5.2332,5.2741,5.2722,5.276,5.2722,5.2928,5.2928,5.2794,5.2294,5.2217,5.1909,5.1342,5.1361,5.113,5.113,5.113,5.1144,5.1323,5.1419,5.1226,5.1169,5.1226,5.1149,5.1284,5.1226,5.113,5.1149,5.1149,5.1149,5.1284,5.1149,5.1207,5.1169,5.1265,5.1149,5.113,5.1154,5.1149,5.1149,5.1169,5.1169,5.2461,5.1758,5.1758,5.1758,5.1816,5.2578,5.3238,5.3759,5.3002,5.21,5.1223,5.1202,5.1185,5.1117,5.112,5.1033,5.0912,5.0879,5.081,5.0693,5.0688,5.0688,5.0688,5.0688,5.0688,5.0688,5.0707,5.0688,5.0707,5.0707,5.0688,5.0707,5.0688,5.0726,5.0688,5.0688,5.0688,5.0688,5.0688,5.0688,5.0688,5.0688,5.0688,5.0688,5.0688,5.0688,5.0688,5.0688,5.0688,5.0688,5.0688,5.0688,5.0688,5.0688,5.0688,5.0688,5.0688,5.0688,5.0688,5.0688,5.0688,5.0688,5.0688,5.0688,5.0688,5.0688,5.0688,5.0688,5.0726,5.0688,5.0707,5.088,5.101,5.0952,5.1015,5.1092,5.1226,5.1246,5.151,5.214,5.2096,5.2447,5.2851,5.2967,5.289,5.2813,5.2587,5.2779,5.2664,5.2217,5.212,5.264,5.2851,5.2851,5.2664,5.2818,5.2702,5.2837,5.2741,5.2645,5.2645,5.2645,5.2645,5.2779,5.2664,5.2722,5.2741,5.2851,5.2702,5.2645,5.2626,5.2683,5.2664,5.2683,5.2337,5.3164,5.2832,5.2812,5.2812,5.2851,5.3242,5.3592,5.3878,5.3534,5.3119,5.2633,5.261,5.259,5.2542,5.2485,5.2393,5.2252,5.2179,5.2102,5.2054,5.2049,5.2068,5.2068,5.2068,5.2068,5.2054,5.2049,5.2049,5.2068,5.2049,5.2068,5.2068,5.2049,5.2049,5.2049,5.2049,5.2068,5.2029,5.1149,5.0688,5.0688,5.0688,5.0688,5.0688,5.0688,5.0688,5.0688,5.0688,5.0688,5.0688,5.0688,5.0688,5.0688,5.0688,5.0688,5.0688,5.0688,5.0688,5.0688,5.113,5.1548,5.201,5.2049,5.2049,5.2068,5.1207,5.0899,5.1298,5.1356,5.1548,5.201,5.2049,5.2049,5.2068,5.2068,5.2068,5.2049,5.2073,5.2202,5.2544,5.2601,5.2755,5.3159,5.3197,5.3197,5.3197,5.3197,5.3371,5.3818,5.3568,5.3236,5.3217,5.3197,5.3197,5.3217,5.3197,5.3197,5.3197,5.3197,5.3197,5.3197,5.3217,5.3217,5.3197,5.3217,5.3197,5.3217,5.3197,5.3197,5.3197,5.3197,5.3197,5.3197,5.3197,5.2914,5.3984,5.3984,5.3984,5.4101,5.4277,5.4297,5.4394,5.459,5.459,5.4524,5.4354,5.401,5.383,5.3804,5.3699,5.3552,5.3399,5.3299,5.3219,5.3203,5.3197,5.3197,5.3197,5.3197,5.3197,5.3197,5.3197,5.3197,5.3197,5.3197,5.3197,5.3197,5.3197,5.3197,5.3197,5.3197,5.3197,5.3121,5.1933,5.1265,5.1265,5.1265,5.1265,5.1265,5.1284,5.1265,5.1265,5.1265,5.1265,5.1265,5.1265,5.1284,5.1265,5.1265,5.1265,5.1265,5.1265,5.1265,5.1284,5.1832,5.2486,5.3121,5.3197,5.3197,5.3082,5.2029,5.1496,5.2077,5.2197,5.2467,5.2986,5.3145,5.3197,5.3197,5.3197,5.3101,5.3178,5.3197,5.3299,5.3433,5.351,5.3549,5.3722,5.376,5.3837,5.3876,5.376,5.4068,5.4626,5.4761,5.4453,5.401,5.376,5.3851,5.376,5.3818,5.3837,5.3755,5.3837,5.3914,5.3895,5.3818,5.3799,5.3895,5.3857,5.3914,5.3799,5.3832,5.3876,5.3933,5.3972,5.3857,5.3909,5.3895,5.3587,5.4023,5.3984,5.4062,5.4473,5.5156,5.5176,5.5605,5.625,5.6348,5.6281,5.5954,5.4621,5.3952,5.3815,5.3834,5.3699,5.3495,5.3394,5.3374,5.329,5.3197,5.3197,5.3294,5.326,5.3197,5.3255,5.3294,5.3351,5.3351,5.3294,5.3236,5.3197,5.3197,5.3255,5.3236,5.3236,5.3217,5.3217,5.3049,5.2986,5.2967,5.2967,5.2967,5.2972,5.2953,5.2972,5.2851,5.2967,5.2972,5.2986,5.2909,5.2947,5.2928,5.2928,5.2947,5.2933,5.2933,5.2967,5.2972,5.3024,5.314,5.3178,5.3294,5.3294,5.3274,5.3106,5.2986,5.3101,5.3106,5.3145,5.3197,5.328,5.3371,5.3433,5.3371,5.3197,5.3313,5.3197,5.3505,5.4299,5.4376,5.465,5.5131,5.5247,5.5343,5.5203,5.5145,5.5208,5.5395,5.5458,5.5458,5.5381,5.542,5.5362,5.5299,5.5439,5.5241,5.5299,5.5395,5.5285,5.5189,5.5247,5.5434,5.4991,5.5261,5.5208,5.5266,5.5458,5.5343,5.5112,5.517,5.5362,5.5453,5.5318,5.4818,5.5527,5.5547,5.5527,5.5723,5.6055,5.6074,5.6269,5.6601,5.6621,5.6561,5.6435,5.5727,5.5274,5.5052,5.5049,5.4934,5.4757,5.4762,5.4733,5.4684,5.4664,5.4684,5.4684,5.4664,5.4684,5.4684,5.4684,5.4684,5.4664,5.4664,5.4664,5.4684,5.4684,5.4684,5.4684,5.4684,5.4684,5.4684,5.4664,5.4684,5.4549,5.3703,5.3197,5.3197,5.3197,5.3197,5.3197,5.3197,5.3197,5.3197,5.3197,5.3197,5.3197,5.3197,5.3197,5.3197,5.3197,5.3428,5.3914,5.3953,5.4184,5.4626,5.4684,5.4664,5.4664,5.4684,5.4684,5.4626,5.4241,5.4145,5.4568,5.4689,5.4684,5.4684,5.4689,5.467,5.4684,5.4684,5.4857,5.5164,5.5203,5.5324,5.5612,5.5689,5.5689,5.5689,5.5708,5.5785,5.5728,5.5689,5.5689,5.5689,5.5689,5.5689,5.5689,5.5689,5.5689,5.5689,5.5689,5.5689,5.5689,5.5689,5.5689,5.5689,5.5689,5.5689,5.5612,5.5689,5.5689,5.5689,5.5689,5.5689,5.5689,5.5689,5.5304,5.6621,5.6621,5.6621,5.6621,5.6621,5.6621,5.6621,5.666,5.6855,5.6912,5.6835,5.6967,5.6864,5.6532,5.6119,5.5815,5.571,5.5689,5.5689,5.5689,5.5689,5.5689,5.5689,5.5689,5.5689,5.5689,5.5651,5.567,5.5689,5.5689,5.5689,5.5728,5.5939,5.6055,5.6093,5.6261,5.6415,5.642,5.6415,5.6415,5.6261,5.5241,5.4371,5.3953,5.3895,5.3876,5.3895,5.3871,5.3895,5.3895,5.3895,5.3895,5.3871,5.3876,5.3895,5.3876,5.3876,5.4164,5.478,5.4838,5.5189,5.5939,5.6055,5.617,5.6357,5.6415,5.6415,5.6376,5.5876,5.5742,5.5593,5.5689,5.5689,5.5708,5.5876,5.6035,5.6055,5.6209,5.6434,5.6415,5.6492,5.6415,5.6415,5.6497,5.6549,5.653,5.6472,5.6415,5.6415,5.6472,5.6478,5.642,5.6434,5.6209,5.5843,5.5689,5.5689,5.5689,5.5689,5.5689,5.5689,5.5689,5.5689,5.5689,5.5689,5.5689,5.5689,5.5689,5.5805,5.5728,5.5766,5.5805,5.5689,5.5708,5.5708,5.6621,5.666,5.6621,5.6719,5.664,5.6699,5.666,5.6855,5.75,5.7669,5.7543,5.8161,5.8408,5.8026,5.6658,5.5868,5.5768,5.5843,5.5862,5.5862,5.5824,5.5747,5.5689,5.5689,5.5747,5.5939,5.5958,5.5882,5.5824,5.5785,5.5689,5.5799,5.6574,5.694,5.7036,5.7665,5.8121,5.7986,5.7986,5.8102,5.8083,5.7986,5.7088,5.5761,5.5588,5.5607,5.5593,5.5607,5.5593,5.5593,5.5588,5.5588,5.5588,5.5588,5.5588,5.5593,5.5612,5.5626,5.5708,5.5747,5.6074,5.6766,5.6945,5.7267,5.7857,5.7929,5.7929,5.8102,5.7871,5.7319,5.6132,5.6035,5.5934,5.5939,5.6497,5.6882,5.6945,5.755,5.8102,5.8063,5.7948,5.7871,5.8044,5.8204,5.8006,5.7967,5.8063,5.8025,5.7909,5.8006,5.7967,5.7948,5.7871,5.7607,5.6151,5.6107,5.6016,5.6055,5.628,5.5901,5.5747,5.5689,5.5785,5.5843,5.6055,5.6055,5.5805,5.5805,5.5972,5.603,5.6107,5.6088,5.6074,5.5805,5.5747,5.8262,5.8262,5.8281,5.8262,5.8262,5.8281,5.8242,5.8281,5.8574,5.8668,5.8576,5.8665,5.8658,5.8525,5.7781,5.741,5.7363,5.7376,5.7357,5.7357,5.7357,5.7376,5.7357,5.7376,5.7357,5.7357,5.7357,5.7376,5.7357,5.7357,5.7376,5.7376,5.7665,5.7844,5.7896,5.814,5.8294,5.8294,5.8294,5.8294,5.8333,5.8294,5.7953,5.7415,5.7376,5.7357,5.7357,5.7352,5.7376,5.7371,5.7357,5.7376,5.7376,5.7357,5.7376,5.7376,5.7357,5.7357,5.7357,5.7357,5.7473,5.7761,5.7838,5.7953,5.8217,5.8294,5.8294,5.8313,5.8313,5.7909,5.7607,5.7357,5.7376,5.7396,5.7627,5.7838,5.7857,5.8102,5.8294,5.8294,5.8294,5.8294,5.839,5.8294,5.8294,5.8294,5.8294,5.8352,5.8313,5.8294,5.839,5.8313,5.8275,5.8107,5.7607,5.7396,5.7396,5.7396,5.7434,5.7396,5.728,5.7165,5.7223,5.7126,5.7088,5.7049,5.7011,5.703,5.703,5.7107,5.7126,5.6761,5.6632,5.6555,5.6247,5.9199,5.9199,5.9199,5.9199,5.9199,5.9199,5.9199,5.9238,5.9473,5.9569,5.9516,5.9518,5.9492,5.9417,5.9205,5.9108,5.9031,5.8563,5.8294,5.8294,5.8294,5.8294,5.8294,5.8294,5.8294,5.8275,5.8294,5.8294,5.8294,5.8294,5.8294,5.8275,5.8531,5.8684,5.8723,5.8954,5.9108,5.9108,5.9108,5.9127,5.9108,5.9108,5.9127,5.9108,5.9108,5.8819,5.8333,5.8294,5.8294,5.8294,5.8294,5.8294,5.8294,5.8294,5.8294,5.8294,5.8275,5.8294,5.8294,5.8294,5.839,5.8665,5.8704,5.8761,5.9031,5.9108,5.9127,5.9108,5.9108,5.9108,5.9108,5.9108,5.889,5.8506,5.8525,5.8679,5.8698,5.8954,5.9108,5.9204,5.9223,5.9165,5.9108,5.9127,5.9165,5.9108,5.9108,5.9108,5.9108,5.9108,5.9088,5.9102,5.9223,5.9242,5.9088,5.9069,5.8396,5.828,5.8204,5.8352,5.8486,5.8448,5.8429,5.8371,5.8333,5.8313,5.8313,5.8313,5.8333,5.8371,5.8063,5.7646,5.753,5.744,5.717,5.9277,5.9355,5.9238,5.9394,5.9433,5.9453,5.9316,5.9512,6.0117,6.0346,6.0353,6.0877,6.0923,6.0887,6.0599,6.0689,6.0319,5.9184,5.8563,5.8563,5.8506,5.8525,5.8525,5.8583,5.8583,5.8563,5.8409,5.8415,5.8531,5.8563,5.8544,5.8563,5.9204,5.9531,5.9511,6.0185,6.0646,6.0589,6.0537,6.0614,6.0762,6.0589,6.055,6.0608,6.0608,5.9935,5.8506,5.8448,5.8525,5.8486,5.8448,5.8352,5.8525,5.8525,5.8434,5.8525,5.8429,5.839,5.8434,5.8506,5.8929,5.9358,5.9511,5.9819,6.0344,6.0537,6.0556,6.0498,6.055,6.0627,6.0589,6.055,6.0031,5.8756,5.9146,5.9511,5.9665,6.0242,6.0742,6.0608,6.0531,6.0723,6.0742,6.0512,6.0435,6.0454,6.0492,6.0454,6.0396,6.0377,6.0633,6.0627,6.0377,6.0165,6.0454,6.0646,5.9685,5.8915,5.88,5.8813,5.8967,5.8992,5.9069,5.905,5.9083,5.9063,5.9088,5.9088,5.8948,5.891,5.8646,5.8569,5.8377,5.8261,5.8165,6.0918,6.0918,6.0918,6.0918,6.0918,6.0918,6.0918,6.0937,6.1211,6.1269,6.1259,6.1364,6.1357,6.12,6.1016,6.0902,6.0735,6.0223,6.0012,5.9973,5.9973,5.9954,5.9973,5.9992,6.0031,6.0031,6.0012,6.0012,5.9973,5.9973,6.0031,6.0089,6.0248,6.0396,6.0377,6.0666,6.08,6.08,6.08,6.08,6.08,6.08,6.08,6.08,6.0781,6.0512,6.0069,6.0031,6.0012,5.9973,6.0012,6.0031,6.0012,6.0012,6.0037,6.0031,6.0012,6.0012,6.0012,5.9992,6.005,6.0319,6.0358,6.0492,6.0742,6.08,6.08,6.08,6.08,6.08,6.08,6.08,6.0512,6.0069,6.0242,6.0339,6.0339,6.0608,6.0762,6.08,6.08,6.08,6.08,6.08,6.08,6.08,6.08,6.08,6.08,6.08,6.0781,6.0781,6.08,6.08,6.08,6.08,6.0319,5.9781,5.9627,5.9492,5.9588,5.9646,5.9704,5.9742,5.9781,5.9819,5.9838,5.9819,5.9685,5.9819,5.9896,5.9646,5.9242,5.9069,5.9011,6.1699,6.1699,6.1699,6.1699,6.1699,6.1699,6.1699,6.1699,6.1699,6.1699,6.168,6.1572,6.1455,6.1341,6.1116,6.0963,6.0866,6.0831,6.08,6.08,6.08,6.08,6.08,6.08,6.08,6.08,6.0781,6.08,6.08,6.08,6.0781,6.0781,6.08,6.0781,6.08,6.08,6.08,6.08,6.08,6.08,6.08,6.08,6.08,6.08,6.08,6.08,6.08,6.08,6.08,6.08,6.08,6.08,6.08,6.0762,6.08,6.08,6.0781,6.0762,6.08,6.0704,6.08,6.08,6.08,6.0781,6.08,6.08,6.08,6.08,6.08,6.08,6.08,6.08,6.08,6.0781,6.0742,6.08,6.08,6.08,6.08,6.08,6.08,6.08,6.08,6.08,6.08,6.08,6.08,6.08,6.08,6.08,6.08,6.08,6.08,6.08,6.08,6.08,6.08,6.0646,6.055,6.0416,6.0396,6.0377,6.0416,6.0377,6.0396,6.0358,6.0358,6.0473,6.0454,6.0762,6.08,6.0454,5.9992,5.9973,5.9915,6.1699,6.1699,6.1699,6.1699,6.1699,6.1699,6.1699,6.1699,6.1699,6.1699,6.168,6.158,6.1508,6.1424,6.1198,6.1045,6.0981,6.0892,6.0821,6.0793,6.08,6.08,6.08,6.08,6.08,6.08,6.08,6.08,6.08,6.08,6.08,6.08,6.08,6.08,6.08,6.08,6.08,6.08,6.08,6.08,6.08,6.08,6.08,6.08,6.0916,6.0973,6.0998,6.1127,6.1031,6.0839,6.08,6.08,6.08,6.08,6.08,6.08,6.08,6.08,6.08,6.08,6.08,6.08,6.08,6.08,6.08,6.08,6.08,6.08,6.08,6.0839,6.0916,6.0973,6.1012,6.0973,6.0954,6.0819,6.08,6.08,6.08,6.08,6.08,6.08,6.08,6.08,6.08,6.08,6.08,6.08,6.08,6.08,6.08,6.08,6.08,6.08,6.08,6.08,6.08,6.08,6.08,6.08,6.08,6.08,6.08,6.08,6.08,6.08,6.08,6.08,6.08,6.08,6.08,6.08,6.0704,6.055,6.0473,6.1699,6.1699,6.1699,6.1699,6.1699,6.1699,6.1699,6.1699,6.1699,6.1699,6.1699,6.1658,6.1602,6.1481,6.1413,6.1244,6.1056,6.0963,6.0878,6.0804,6.08,6.08,6.08,6.08,6.08,6.08,6.08,6.08,6.08,6.08,6.08,6.08,6.08,6.08,6.08,6.0819,6.08,6.08,6.0819,6.0864,6.0877,6.0877,6.08,6.0845,6.1422,6.1729,6.1826,6.2339,6.1993,6.0877,6.08,6.08,6.0896,6.0896,6.0954,6.0935,6.0877,6.0839,6.0858,6.0877,6.0839,6.08,6.0973,6.08,6.08,6.08,6.08,6.08,6.08,6.1114,6.1614,6.1768,6.1999,6.2377,6.1647,6.0935,6.0916,6.08,6.08,6.08,6.0858,6.0858,6.0877,6.08,6.08,6.08,6.08,6.08,6.08,6.08,6.08,6.08,6.08,6.08,6.08,6.08,6.08,6.08,6.08,6.08,6.08,6.08,6.08,6.08,6.08,6.08,6.08,6.08,6.08,6.08,6.08,6.08,6.08,6.0704,6.0685,6.1699,6.1699,6.1699,6.1699,6.1699,6.1699,6.1699,6.1699,6.1699,6.1699,6.1699,6.1699,6.166,6.1579,6.146,6.1312,6.1139,6.0977,6.0866,6.0802,6.08,6.08,6.08,6.08,6.08,6.08,6.08,6.08,6.08,6.08,6.08,6.08,6.08,6.08,6.0839,6.121,6.1364,6.1441,6.1627,6.1858,6.1858,6.1839,6.1858,6.1916,6.2377,6.2608,6.2685,6.3045,6.2775,6.205,6.1858,6.1839,6.1858,6.1858,6.1839,6.1858,6.1858,6.1877,6.1858,6.1858,6.1858,6.1858,6.1858,6.1839,6.1897,6.1858,6.1858,6.1916,6.1858,6.2108,6.2454,6.2608,6.282,6.3025,6.2435,6.1858,6.1858,6.1935,6.1877,6.1781,6.1556,6.1345,6.1345,6.1075,6.0858,6.08,6.08,6.08,6.08,6.0819,6.0896,6.1012,6.0993,6.0993,6.0973,6.0954,6.0839,6.0819,6.08,6.08,6.08,6.08,6.08,6.08,6.08,6.08,6.08,6.08,6.08,6.08,6.08,6.08,6.08,6.08,6.08,6.1699,6.1699,6.1699,6.1699,6.1699,6.1699,6.1699,6.1699,6.1699,6.1699,6.1699,6.1699,6.1699,6.168,6.1696,6.1514,6.1509,6.149,6.1307,6.1283,6.1262,6.1281,6.132,6.0916,6.0819,6.08,6.08,6.08,6.08,6.08,6.0902,6.1037,6.1031,6.105,6.1416,6.1903,6.2191,6.2345,6.2718,6.2968,6.2987,6.2987,6.2968,6.3006,6.3295,6.357,6.3641,6.3737,6.3628,6.3583,6.3429,6.3141,6.3179,6.3237,6.3198,6.3121,6.3045,6.3083,6.3218,6.3045,6.3179,6.3083,6.3121,6.3295,6.3083,6.3006,6.3006,6.2968,6.3275,6.3218,6.3429,6.3506,6.3718,6.3852,6.3622,6.3583,6.3545,6.3429,6.3295,6.3275,6.2608,6.2306,6.2018,6.1614,6.1127,6.1723,6.1608,6.1647,6.1666,6.1704,6.1647,6.1531,6.1435,6.1243,6.1185,6.1127,6.0973,6.0864,6.0819,6.08,6.08,6.08,6.08,6.08,6.08,6.08,6.08,6.08,6.08,6.08,6.08,6.08,6.08,6.08,6.08,6.1699,6.1699,6.1699,6.1699,6.1699,6.1699,6.1699,6.1699,6.1719,6.1777,6.1738,6.1738,6.1797,6.1816,6.2352,6.2589,6.2553,6.2779,6.3018,6.2774,6.2756,6.2762,6.2441,6.1562,6.0902,6.0896,6.0839,6.0839,6.0877,6.105,6.1191,6.1768,6.1845,6.2114,6.2666,6.2839,6.3051,6.3064,6.3275,6.3429,6.3487,6.3468,6.3468,6.3506,6.4006,6.4686,6.5224,6.5359,6.534,6.5032,6.4141,6.3506,6.3506,6.3448,6.3487,6.3506,6.3429,6.3372,6.3333,6.3448,6.3333,6.3468,6.3525,6.3295,6.3295,6.341,6.3372,6.3314,6.3314,6.3737,6.4237,6.4955,6.5089,6.5089,6.5147,6.5186,6.5109,6.4166,6.3545,6.3372,6.3218,6.3025,6.3051,6.2858,6.2621,6.2718,6.2679,6.2718,6.2647,6.2551,6.2416,6.2204,6.2243,6.2127,6.207,6.1954,6.1685,6.1512,6.1377,6.1281,6.1281,6.096,6.1018,6.0935,6.08,6.08,6.08,6.08,6.08,6.08,6.08,6.08,6.08,6.08,6.08,6.1699,6.1699,6.1699,6.1699,6.1699,6.1699,6.1699,6.1777,6.2168,6.2305,6.2402,6.2695,6.293,6.293,6.3314,6.3466,6.3468,6.3641,6.3691,6.351,6.3457,6.3422,6.3315,6.2564,6.1973,6.1973,6.1993,6.1973,6.1973,6.1954,6.2262,6.2614,6.2666,6.282,6.3352,6.3705,6.3891,6.4025,6.4339,6.4532,6.4532,6.4512,6.4532,6.4551,6.4974,6.5474,6.5801,6.5865,6.5865,6.5654,6.5013,6.4493,6.4512,6.4506,6.4512,6.4532,6.4512,6.4512,6.4532,6.4512,6.457,6.4468,6.4493,6.4532,6.4532,6.4532,6.4532,6.4532,6.4589,6.4782,6.5166,6.5513,6.5878,6.5884,6.5884,6.5884,6.5743,6.5051,6.4532,6.441,6.4218,6.4006,6.3872,6.3737,6.3391,6.316,6.3102,6.3141,6.3064,6.2987,6.3045,6.2987,6.3102,6.3102,6.3045,6.2878,6.257,6.2454,6.2371,6.2333,6.2333,6.1839,6.1325,6.1133,6.0921,6.08,6.08,6.08,6.08,6.08,6.08,6.08,6.08,6.08,6.08,6.1699,6.1699,6.1699,6.1699,6.1699,6.1699,6.1797,6.2051,6.2656,6.3008,6.3301,6.4023,6.4043,6.4238,6.4321,6.4355,6.4476,6.4424,6.4507,6.4425,6.4341,6.4277,6.4126,6.391,6.3713,6.3678,6.3218,6.316,6.3121,6.3314,6.316,6.3429,6.3506,6.3737,6.391,6.4378,6.4801,6.4878,6.532,6.5628,6.5692,6.5692,6.5692,6.5692,6.5711,6.5782,6.5884,6.5884,6.5884,6.5884,6.5884,6.5884,6.5884,6.5884,6.5884,6.582,6.5667,6.559,6.5551,6.5692,6.5724,6.5884,6.5827,6.5827,6.5769,6.5673,6.5628,6.5686,6.5673,6.5673,6.5884,6.5884,6.5884,6.5884,6.5884,6.5884,6.5884,6.5884,6.5711,6.5628,6.5147,6.4839,6.4628,6.4455,6.4006,6.366,6.3641,6.3622,6.3602,6.3698,6.391,6.4083,6.4275,6.3968,6.3839,6.3718,6.3416,6.3147,6.3141,6.316,6.3141,6.266,6.2031,6.1325,6.1056,6.096,6.0839,6.08,6.08,6.08,6.08,6.08,6.08,6.08,6.08,6.1699,6.1699,6.1699,6.1699,6.1699,6.1719,6.2129,6.2734,6.2988,6.3437,6.4082,6.4258,6.4453,6.4531,6.5117,6.5605,6.5871,6.5861,6.5875,6.582,6.5742,6.5653,6.5455,6.5349,6.5382,6.5049,6.4286,6.3571,6.3474,6.3314,6.3872,6.4282,6.4397,6.4647,6.5147,6.5609,6.5551,6.5493,6.5769,6.5884,6.5884,6.5884,6.5884,6.5884,6.5884,6.5884,6.5884,6.5884,6.5884,6.5884,6.5884,6.5884,6.5884,6.5884,6.5884,6.5884,6.5884,6.5884,6.5884,6.5884,6.5884,6.5884,6.5884,6.5884,6.5884,6.5884,6.5884,6.5884,6.5884,6.5884,6.5884,6.5884,6.5884,6.5884,6.5884,6.5884,6.5884,6.5884,6.5884,6.584,6.5692,6.5577,6.5301,6.5147,6.4974,6.4782,6.4801,6.4839,6.4878,6.5013,6.5243,6.5416,6.557,6.507,6.4589,6.4455,6.4224,6.3762,6.366,6.366,6.3583,6.3314,6.2775,6.23,6.1614,6.1185,6.105,6.0954,6.0819,6.0864,6.0839,6.08,6.08,6.08,6.08,6.1699,6.1699,6.1699,6.1699,6.1777,6.2207,6.2598,6.3125,6.3945,6.457,6.5,6.541,6.5644,6.5762,6.6035,6.6484,6.666,6.6762,6.6729,6.6657,6.6551,6.6478,6.6329,6.6286,6.6227,6.5962,6.5276,6.473,6.4678,6.4686,6.4832,6.5128,6.5282,6.5519,6.5788,6.5846,6.5897,6.5897,6.5903,6.5897,6.5891,6.5891,6.591,6.5884,6.5884,6.5884,6.5884,6.5884,6.5884,6.5884,6.5884,6.5884,6.5884,6.5884,6.5884,6.5884,6.5884,6.5884,6.5884,6.5884,6.5884,6.5884,6.5884,6.5884,6.5884,6.5884,6.5884,6.5884,6.5884,6.5884,6.5884,6.5884,6.5884,6.5884,6.5884,6.5884,6.5884,6.5884,6.5884,6.5884,6.5807,6.5769,6.5807,6.5743,6.5846,6.5884,6.5884,6.5884,6.5884,6.5884,6.5884,6.5884,6.5859,6.5628,6.5166,6.5089,6.4974,6.4551,6.432,6.4333,6.4295,6.416,6.3955,6.3608,6.282,6.2089,6.1614,6.1633,6.1287,6.096,6.0921,6.0896,6.0819,6.08,6.08,6.1699,6.1699,6.1699,6.1797,6.207,6.2676,6.3242,6.3769,6.4961,6.5625,6.5957,6.6504,6.6816,6.6855,6.6836,6.6875,6.6894,6.6894,6.6875,6.6833,6.6737,6.6655,6.6555,6.6505,6.6406,6.633,6.624,6.6248,6.5885,6.582,6.5925,6.5931,6.5964,6.5994,6.6039,6.6054,6.5999,6.5994,6.6013,6.5988,6.5956,6.5938,6.5934,6.5884,6.5884,6.5884,6.5884,6.5884,6.5884,6.5884,6.5884,6.5884,6.5884,6.5884,6.5884,6.5884,6.5884,6.5884,6.5884,6.5884,6.5884,6.5884,6.5884,6.5884,6.5884,6.5884,6.5884,6.5884,6.5884,6.5884,6.5884,6.5884,6.5884,6.5884,6.5884,6.5884,6.5884,6.5884,6.5884,6.5884,6.5884,6.5884,6.5884,6.5884,6.5884,6.5884,6.5884,6.5884,6.5884,6.5884,6.5884,6.5884,6.5884,6.5884,6.5705,6.5667,6.557,6.5378,6.5243,6.5243,6.5243,6.5186,6.4916,6.4609,6.4397,6.3705,6.3037,6.2268,6.1979,6.1652,6.1268,6.0998,6.0883,6.0819,6.08,6.1699,6.1699,6.1699,6.2129,6.2773,6.2988,6.3926,6.5195,6.5508,6.6055,6.6621,6.6816,6.6894,6.6894,6.6894,6.6894,6.6894,6.6894,6.6894,6.6875,6.6836,6.6743,6.663,6.6592,6.6518,6.6493,6.6452,6.6397,6.6328,6.6325,6.6314,6.6299,6.6276,6.6325,6.6275,6.6267,6.6323,6.6332,6.6325,6.624,6.6124,6.6104,6.6024,6.5955,6.5927,6.5932,6.5949,6.5955,6.5944,6.594,6.5928,6.5897,6.5884,6.5884,6.5884,6.5884,6.5884,6.5884,6.5891,6.5884,6.5884,6.5884,6.5884,6.5884,6.5884,6.5884,6.5884,6.5884,6.5884,6.5884,6.5884,6.5884,6.5884,6.5884,6.5884,6.5884,6.5884,6.5884,6.5884,6.5884,6.5884,6.5884,6.5884,6.5884,6.5884,6.5884,6.5884,6.5884,6.5884,6.5884,6.5884,6.5884,6.5884,6.5884,6.5884,6.5884,6.5884,6.5884,6.5884,6.5884,6.5743,6.5628,6.5705,6.5455,6.5301,6.4897,6.3993,6.3262,6.2781,6.2377,6.2012,6.1479,6.0921,6.0883,6.0993,6.1699,6.1699,6.1699,6.2207,6.3027,6.3515,6.4433,6.5508,6.6133,6.6543,6.6855,6.6894,6.6894,6.6894,6.6894,6.6894,6.6894,6.6894,6.6894,6.6894,6.6894,6.6836,6.6789,6.6765,6.671,6.668,6.668,6.67,6.665,6.6493,6.6409,6.6422,6.6416,6.639,6.6443,6.6416,6.6403,6.6397,6.6397,6.6347,6.6287,6.626,6.624,6.6179,6.6181,6.6176,6.6176,6.6179,6.6179,6.6179,6.6199,6.6179,6.6179,6.6184,6.6184,6.6184,6.6184,6.6089,6.594,6.591,6.5903,6.5897,6.5897,6.5884,6.5884,6.5897,6.5897,6.5884,6.5884,6.5884,6.5884,6.5884,6.5884,6.5884,6.5884,6.5884,6.5884,6.5884,6.5884,6.5884,6.5884,6.5884,6.5884,6.5884,6.5884,6.5884,6.5884,6.5884,6.5884,6.5884,6.5884,6.5884,6.5884,6.5884,6.5884,6.5884,6.5884,6.5884,6.5884,6.5884,6.5884,6.5865,6.5884,6.5884,6.5692,6.5224,6.4686,6.4243,6.3743,6.3262,6.2801,6.2339,6.1916,6.1633,6.1614,6.1699,6.1699,6.1933,6.2519,6.3379,6.4258,6.5117,6.5976,6.6601,6.6894,6.6894,6.6894,6.6894,6.6894,6.6894,6.6894,6.6894,6.6894,6.6894,6.6894,6.6894,6.6894,6.6875,6.6875,6.6875,6.6894,6.6855,6.6855,6.6797,6.6673,6.6562,6.6537,6.6594,6.656,6.6527,6.656,6.659,6.657,6.6566,6.652,6.6457,6.6446,6.6437,6.6409,6.6406,6.6406,6.6406,6.6394,6.6387,6.6384,6.637,6.6357,6.6363,6.6353,6.6357,6.6353,6.635,6.6264,6.6138,6.6076,6.6025,6.6019,6.6019,6.6067,6.6044,6.5999,6.5949,6.5965,6.591,6.5897,6.5884,6.5884,6.5884,6.5884,6.5884,6.5884,6.5884,6.5884,6.5884,6.5884,6.5884,6.5884,6.5884,6.5884,6.5884,6.5884,6.5884,6.5884,6.5884,6.5884,6.5884,6.5884,6.5884,6.5884,6.5884,6.5884,6.5884,6.5884,6.5884,6.5884,6.5884,6.5884,6.5884,6.5884,6.5884,6.5705,6.5263,6.4993,6.4686,6.4109,6.3608,6.3429,6.3108,6.2724,6.2358,6.1699,6.1777,6.2578,6.3379,6.4238,6.5137,6.5976,6.668,6.6836,6.6894,6.6894,6.6894,6.6894,6.6894,6.6894,6.6894,6.6894,6.6894,6.6894,6.6894,6.6894,6.6894,6.6894,6.6894,6.6894,6.6894,6.6894,6.6894,6.6894,6.6836,6.6816,6.6875,6.6777,6.6836,6.6816,6.6777,6.6797,6.6777,6.6777,6.671,6.6645,6.6601,6.6551,6.6463,6.6425,6.6409,6.6413,6.6452,6.6469,6.6471,6.6477,6.6477,6.6493,6.6487,6.649,6.6509,6.6487,6.6446,6.6387,6.6333,6.6339,6.6357,6.6335,6.6307,6.6279,6.6165,6.6104,6.6075,6.6006,6.5946,6.5909,6.5884,6.5884,6.5884,6.5884,6.5884,6.5884,6.5884,6.5884,6.5884,6.5884,6.5884,6.5884,6.5884,6.5884,6.5884,6.5884,6.5884,6.5884,6.5884,6.5884,6.5884,6.5884,6.5884,6.5884,6.5884,6.5884,6.5884,6.5884,6.5884,6.5884,6.5884,6.5884,6.5884,6.5884,6.5884,6.5884,6.5532,6.5166,6.4762,6.4436,6.4243,6.3891,6.3416,6.3185,6.2012,6.2578,6.3437,6.3984,6.4375,6.5234,6.6094,6.6816,6.6894,6.6894,6.6894,6.6894,6.6894,6.6894,6.6894,6.6894,6.6894,6.6894,6.6894,6.6894,6.6894,6.6894,6.6894,6.6894,6.6894,6.6894,6.6894,6.6894,6.6894,6.6894,6.6894,6.6894,6.6894,6.6894,6.6894,6.6894,6.6894,6.6894,6.6894,6.6836,6.6831,6.6787,6.676,6.6725,6.6721,6.6701,6.6704,6.6722,6.6701,6.6699,6.6699,6.668,6.666,6.668,6.668,6.668,6.668,6.668,6.6647,6.6541,6.6409,6.6406,6.6403,6.6422,6.6443,6.632,6.629,6.6216,6.6119,6.604,6.603,6.5942,6.5884,6.5884,6.5884,6.5884,6.5884,6.5884,6.5884,6.5884,6.5884,6.5884,6.5884,6.5884,6.5884,6.5884,6.5884,6.5884,6.5884,6.5884,6.5884,6.5884,6.5884,6.5884,6.5884,6.5884,6.5884,6.5884,6.5884,6.5884,6.5884,6.5884,6.5884,6.5884,6.5884,6.5884,6.5884,6.5884,6.5647,6.5282,6.5128,6.5051,6.4628,6.4147,6.3968,6.2207,6.3066,6.3945,6.4453,6.4785,6.5625,6.6308,6.6816,6.6894,6.6894,6.6894,6.6894,6.6894,6.6894,6.6894,6.6894,6.6894,6.6894,6.6894,6.6894,6.6894,6.6894,6.6894,6.6894,6.6894,6.6894,6.6894,6.6894,6.6894,6.6894,6.6894,6.6894,6.6894,6.6894,6.6894,6.6894,6.6894,6.6894,6.6894,6.6894,6.6894,6.6894,6.6875,6.6875,6.6875,6.6855,6.6855,6.6855,6.6855,6.6855,6.6875,6.6875,6.6894,6.6894,6.6894,6.6894,6.6894,6.6894,6.6836,6.6725,6.6557,6.6604,6.6578,6.6574,6.6551,6.6483,6.6438,6.6424,6.6293,6.6179,6.6166,6.6069,6.5997,6.6003,6.5897,6.5884,6.5884,6.5884,6.5884,6.5884,6.5884,6.5884,6.5884,6.5884,6.5884,6.5884,6.5884,6.5884,6.5884,6.5884,6.5884,6.5884,6.5884,6.5884,6.5884,6.5884,6.5884,6.5884,6.5884,6.5884,6.5884,6.5884,6.5884,6.5884,6.5884,6.5884,6.5884,6.5884,6.5884,6.5846,6.5667,6.5493,6.5397,6.4955,6.4782,6.2226,6.3066,6.3945,6.4765,6.5625,6.6484,6.6855,6.6894,6.6894,6.6894,6.6894,6.6894,6.6894,6.6894,6.6894,6.6894,6.6894,6.6894,6.6894,6.6894,6.6894,6.6894,6.6894,6.6894,6.6894,6.6894,6.6894,6.6894,6.6894,6.6894,6.6894,6.6894,6.6894,6.6894,6.6894,6.6894,6.6894,6.6894,6.6894,6.6894,6.6894,6.6894,6.6894,6.6894,6.6894,6.6894,6.6894,6.6894,6.6894,6.6894,6.6894,6.6894,6.6894,6.6894,6.6894,6.6894,6.6894,6.6894,6.6894,6.6875,6.6836,6.6816,6.6758,6.6797,6.6816,6.6715,6.6614,6.6608,6.6454,6.6377,6.6323,6.622,6.6156,6.6104,6.6011,6.5994,6.5997,6.5937,6.5942,6.5937,6.5909,6.5884,6.5884,6.5884,6.5884,6.5884,6.5884,6.5884,6.5884,6.5884,6.5884,6.5884,6.5884,6.5884,6.5884,6.5884,6.5884,6.5884,6.5884,6.5884,6.5884,6.5884,6.5884,6.5884,6.5884,6.5884,6.5884,6.5884,6.5884,6.5884,6.5884,6.5788,6.5788,6.5711,6.5416,6.2539,6.3887,6.416,6.5137,6.6387,6.6758,6.6894,6.6894,6.6894,6.6894,6.6894,6.6894,6.6894,6.6894,6.6894,6.6894,6.6894,6.6894,6.6894,6.6894,6.6894,6.6894,6.6894,6.6894,6.6894,6.6894,6.6894,6.6894,6.6894,6.6894,6.6894,6.6894,6.6894,6.6894,6.6894,6.6894,6.6894,6.6894,6.6894,6.6894,6.6894,6.6894,6.6894,6.6894,6.6894,6.6894,6.6894,6.6894,6.6894,6.6894,6.6894,6.6894,6.6894,6.6894,6.6894,6.6894,6.6894,6.6894,6.6894,6.6894,6.6894,6.6894,6.6894,6.6894,6.6875,6.6836,6.681,6.6763,6.6618,6.6557,6.6488,6.6396,6.6332,6.6317,6.6275,6.6271,6.6247,6.6109,6.6039,6.6014,6.5991,6.5938,6.5915,6.5891,6.5884,6.5884,6.5884,6.5884,6.5884,6.5884,6.5884,6.5884,6.5884,6.5884,6.5884,6.5884,6.5884,6.5884,6.5884,6.5884,6.5884,6.5884,6.5884,6.5884,6.5884,6.5884,6.5884,6.5884,6.5884,6.5884,6.5884,6.5884,6.5865,6.5846,6.5769,6.2715,6.4238,6.4297,6.5293,6.6758,6.6894,6.6894,6.6894,6.6894,6.6894,6.6894,6.6894,6.6894,6.6894,6.6894,6.6894,6.6894,6.6894,6.6894,6.6894,6.6894,6.6894,6.6894,6.6894,6.6894,6.6894,6.6894,6.6894,6.6894,6.6894,6.6894,6.6894,6.6894,6.6894,6.6894,6.6894,6.6894,6.6894,6.6894,6.6894,6.6894,6.6894,6.6894,6.6894,6.6894,6.6894,6.6894,6.6894,6.6894,6.6894,6.6894,6.6894,6.6894,6.6894,6.6894,6.6894,6.6894,6.6894,6.6894,6.6894,6.6894,6.6894,6.6894,6.6894,6.6894,6.6875,6.6875,6.6836,6.6758,6.6719,6.668,6.6562,6.6498,6.6487,6.6446,6.6437,6.6374,6.624,6.6191,6.6169,6.6133,6.6067,6.5961,6.5922,6.5884,6.5884,6.5884,6.5884,6.5884,6.5884,6.5884,6.5884,6.5884,6.5884,6.5884,6.5884,6.5884,6.5884,6.5884,6.5884,6.5884,6.5884,6.5884,6.5884,6.5884,6.5884,6.5884,6.5884,6.5884,6.5884,6.5884,6.5884,6.5884,6.5884,6.5884,6.2715,6.418,6.4297,6.5312,6.6738,6.6894,6.6894,6.6894,6.6894,6.6894,6.6894,6.6894,6.6894,6.6894,6.6894,6.6894,6.6894,6.6894,6.6894,6.6894,6.6894,6.6894,6.6894,6.6894,6.6894,6.6894,6.6894,6.6894,6.6894,6.6894,6.6894,6.6894,6.6894,6.6894,6.6894,6.6894,6.6894,6.6894,6.6894,6.6894,6.6894,6.6894,6.6894,6.6894,6.6894,6.6894,6.6894,6.6894,6.6894,6.6894,6.6894,6.6894,6.6894,6.6894,6.6894,6.6894,6.6894,6.6894,6.6894,6.6894,6.6894,6.6894,6.6894,6.6894,6.6894,6.6894,6.6894,6.6894,6.6836,6.6855,6.6855,6.6738,6.6622,6.6572,6.6527,6.6486,6.646,6.6418,6.6399,6.6371,6.6363,6.626,6.6089,6.5992,6.5955,6.5884,6.5884,6.5884,6.5884,6.5884,6.5884,6.5884,6.5884,6.5884,6.5884,6.5884,6.5884,6.5884,6.5884,6.5884,6.5884,6.5884,6.5884,6.5884,6.5884,6.5884,6.5884,6.5884,6.5884,6.5884,6.5884,6.5884,6.5884,6.5884,6.5884,6.2715,6.4258,6.4297,6.5293,6.6777,6.6894,6.6894,6.6894,6.6894,6.6894,6.6894,6.6894,6.6894,6.6894,6.6894,6.6894,6.6894,6.6894,6.6894,6.6894,6.6894,6.6894,6.6894,6.6894,6.6894,6.6894,6.6894,6.6894,6.6894,6.6894,6.6894,6.6894,6.6894,6.6894,6.6894,6.6894,6.6894,6.6894,6.6894,6.6894,6.6894,6.6894,6.6894,6.6894,6.6894,6.6894,6.6894,6.6894,6.6894,6.6894,6.6894,6.6894,6.6894,6.6894,6.6894,6.6894,6.6894,6.6894,6.6894,6.6894,6.6894,6.6894,6.6894,6.6894,6.6894,6.6894,6.6894,6.6894,6.6894,6.6894,6.6894,6.6816,6.6758,6.6719,6.668,6.668,6.664,6.6596,6.6582,6.6542,6.6524,6.6364,6.62,6.6119,6.6063,6.5955,6.591,6.594,6.5916,6.5903,6.5884,6.5884,6.5884,6.5884,6.5884,6.5884,6.5884,6.5884,6.5884,6.5884,6.5884,6.5884,6.5884,6.5884,6.5884,6.5884,6.5884,6.5884,6.5884,6.5884,6.5884,6.5884,6.5884,6.5884,6.5884,6.2715,6.4199,6.4297,6.5312,6.6738,6.6894,6.6894,6.6894,6.6894,6.6894,6.6894,6.6894,6.6894,6.6894,6.6894,6.6894,6.6894,6.6894,6.6894,6.6894,6.6894,6.6894,6.6894,6.6894,6.6894,6.6894,6.6894,6.6894,6.6894,6.6894,6.6894,6.6894,6.6894,6.6894,6.6894,6.6894,6.6894,6.6894,6.6894,6.6894,6.6894,6.6894,6.6894,6.6894,6.6894,6.6894,6.6894,6.6894,6.6894,6.6894,6.6894,6.6894,6.6894,6.6894,6.6894,6.6894,6.6894,6.6894,6.6894,6.6894,6.6894,6.6894,6.6894,6.6894,6.6894,6.6894,6.6894,6.6894,6.6894,6.6894,6.6894,6.6894,6.6894,6.6894,6.6894,6.6894,6.6836,6.6777,6.6738,6.6707,6.6606,6.6456,6.6332,6.6256,6.6219,6.6184,6.6162,6.6171,6.6077,6.5965,6.5933,6.5884,6.5884,6.5884,6.5884,6.5884,6.5884,6.5884,6.5884,6.5884,6.5884,6.5884,6.5884,6.5884,6.5884,6.5884,6.5884,6.5884,6.5884,6.5884,6.5891,6.5897,6.5891,6.5884,6.5884,6.2734,6.4336,6.4453,6.5508,6.6777,6.6894,6.6894,6.6894,6.6894,6.6894,6.6894,6.6894,6.6894,6.6894,6.6894,6.6894,6.6894,6.6894,6.6894,6.6894,6.6894,6.6894,6.6894,6.6894,6.6894,6.6894,6.6894,6.6894,6.6894,6.6894,6.6894,6.6894,6.6894,6.6894,6.6894,6.6894,6.6894,6.6894,6.6894,6.6894,6.6894,6.6894,6.6894,6.6894,6.6894,6.6894,6.6894,6.6894,6.6894,6.6894,6.6894,6.6894,6.6894,6.6894,6.6894,6.6894,6.6894,6.6894,6.6894,6.6894,6.6894,6.6894,6.6894,6.6894,6.6894,6.6894,6.6894,6.6894,6.6894,6.6894,6.6894,6.6894,6.6894,6.6894,6.6894,6.6894,6.6875,6.6836,6.6836,6.6797,6.6738,6.6606,6.6488,6.6418,6.6338,6.6358,6.635,6.6339,6.6276,6.6114,6.6038,6.5953,6.5961,6.5955,6.5884,6.5884,6.5884,6.5884,6.5897,6.5884,6.5884,6.5884,6.5884,6.5884,6.5884,6.5884,6.5884,6.5884,6.5897,6.5903,6.591,6.5916,6.5916,6.5927,6.591,6.2715,6.4414,6.5742,6.6543,6.6875,6.6894,6.6894,6.6894,6.6894,6.6894,6.6894,6.6894,6.6894,6.6894,6.6894,6.6894,6.6894,6.6894,6.6894,6.6894,6.6894,6.6894,6.6894,6.6894,6.6894,6.6894,6.6894,6.6894,6.6894,6.6894,6.6894,6.6894,6.6894,6.6894,6.6894,6.6894,6.6894,6.6894,6.6894,6.6894,6.6894,6.6894,6.6894,6.6894,6.6894,6.6894,6.6894,6.6894,6.6894,6.6894,6.6894,6.6894,6.6894,6.6894,6.6894,6.6894,6.6894,6.6894,6.6894,6.6894,6.6894,6.6894,6.6894,6.6894,6.6894,6.6894,6.6894,6.6894,6.6894,6.6894,6.6894,6.6894,6.6894,6.6894,6.6894,6.6894,6.6894,6.6894,6.6894,6.6875,6.6836,6.6763,6.6652,6.6574,6.6498,6.6446,6.6416,6.64,6.6425,6.6316,6.6244,6.6169,6.6094,6.6053,6.5969,6.5943,6.5988,6.595,6.5926,6.5915,6.5897,6.5914,6.5937,6.591,6.5884,6.591,6.5922,6.5916,6.591,6.5952,6.6008,6.6065,6.6027,6.6027,6.599,6.2715,6.4453,6.6191,6.6894,6.6894,6.6894,6.6894,6.6894,6.6894,6.6894,6.6894,6.6894,6.6894,6.6894,6.6894,6.6894,6.6894,6.6894,6.6894,6.6894,6.6894,6.6894,6.6894,6.6894,6.6894,6.6894,6.6894,6.6894,6.6894,6.6894,6.6894,6.6894,6.6894,6.6894,6.6894,6.6894,6.6894,6.6894,6.6894,6.6894,6.6894,6.6894,6.6894,6.6894,6.6894,6.6894,6.6894,6.6894,6.6894,6.6894,6.6894,6.6894,6.6894,6.6894,6.6894,6.6894,6.6894,6.6894,6.6894,6.6894,6.6894,6.6894,6.6894,6.6894,6.6894,6.6894,6.6894,6.6894,6.6894,6.6894,6.6894,6.6894,6.6894,6.6894,6.6894,6.6894,6.6894,6.6894,6.6894,6.6894,6.6875,6.6854,6.6785,6.6764,6.6699,6.6699,6.664,6.6601,6.6601,6.6543,6.646,6.6377,6.6304,6.624,6.6204,6.6157,6.6138,6.6063,6.5997,6.5967,6.5961,6.598,6.6003,6.6003,6.5982,6.5956,6.5956,6.5988,6.5997,6.603,6.6124,6.6215,6.6183,6.6152,6.6162,6.2715,6.4453,6.6172,6.6894,6.6894,6.6894,6.6894,6.6894,6.6894,6.6894,6.6894,6.6894,6.6894,6.6894,6.6894,6.6894,6.6894,6.6894,6.6894,6.6894,6.6894,6.6894,6.6894,6.6894,6.6894,6.6894,6.6894,6.6894,6.6894,6.6894,6.6894,6.6894,6.6894,6.6894,6.6894,6.6894,6.6894,6.6894,6.6894,6.6894,6.6894,6.6894,6.6894,6.6894,6.6894,6.6894,6.6894,6.6894,6.6894,6.6894,6.6894,6.6894,6.6894,6.6894,6.6894,6.6894,6.6894,6.6894,6.6894,6.6894,6.6894,6.6894,6.6894,6.6894,6.6894,6.6894,6.6894,6.6894,6.6894,6.6894,6.6894,6.6894,6.6894,6.6894,6.6894,6.6894,6.6894,6.6894,6.6894,6.6894,6.6894,6.6894,6.6894,6.6894,6.6894,6.6894,6.6894,6.6894,6.6855,6.6777,6.6677,6.661,6.6557,6.6508,6.6393,6.6353,6.6283,6.6219,6.6157,6.6068,6.6044,6.6119,6.6151,6.6133,6.6114,6.6109,6.6114,6.6166,6.6156,6.6141,6.6267,6.6374,6.6334,6.6332,6.6377,6.2715,6.4453,6.6191,6.6894,6.6894,6.6894,6.6894,6.6894,6.6894,6.6894,6.6894,6.6894,6.6894,6.6894,6.6894,6.6894,6.6894,6.6894,6.6894,6.6894,6.6894,6.6894,6.6894,6.6894,6.6894,6.6894,6.6894,6.6894,6.6894,6.6894,6.6894,6.6894,6.6894,6.6894,6.6894,6.6894,6.6894,6.6894,6.6894,6.6894,6.6894,6.6894,6.6894,6.6894,6.6894,6.6894,6.6894,6.6894,6.6894,6.6894,6.6894,6.6894,6.6894,6.6894,6.6894,6.6894,6.6894,6.6894,6.6894,6.6894,6.6894,6.6894,6.6894,6.6894,6.6894,6.6894,6.6894,6.6894,6.6894,6.6894,6.6894,6.6894,6.6894,6.6894,6.6894,6.6894,6.6894,6.6894,6.6894,6.6894,6.6894,6.6894,6.6894,6.6894,6.6894,6.6894,6.6894,6.6894,6.6894,6.6875,6.6875,6.6816,6.6758,6.6601,6.6446,6.6469,6.6428,6.6364,6.632,6.6264,6.6248,6.6298,6.633,6.6323,6.6312,6.6314,6.6339,6.6337,6.6337,6.6338,6.6461,6.6533,6.6504,6.65,6.6555]}]]